<?xml version="1.0" encoding="UTF-8" standalone="no" ?>
<gpx xmlns="http://www.topografix.com/GPX/1/1" xmlns:xsi="http://www.w3.org/2001/XMLSchema-instance" xsi:schemaLocation="http://www.topografix.com/GPX/1/1 http://www.topografix.com/GPX/1/1/gpx.xsd" version="1.1" creator="VisuGPX - https://www.visugpx.com">
  <metadata>
    <name>Retour Plage du Pellegrin+rallonge......</name>
    <desc><![CDATA[?]]></desc>
  </metadata>
  <trk>
    <name><![CDATA[Retour Plage du Pellegrin+rallonge......_1]]></name>
    <trkseg>
      <trkpt lat="43.12119" lon="6.26856">
        <ele>6.4</ele>
        <time>2021-07-20T10:20:01Z</time>
      </trkpt>
      <trkpt lat="43.12118" lon="6.26856">
        <ele>6.4</ele>
        <time>2021-07-20T10:20:03Z</time>
      </trkpt>
      <trkpt lat="43.12118" lon="6.26856">
        <ele>6.4</ele>
        <time>2021-07-20T10:20:04Z</time>
      </trkpt>
      <trkpt lat="43.12118" lon="6.26855">
        <ele>6.4</ele>
        <time>2021-07-20T10:20:05Z</time>
      </trkpt>
      <trkpt lat="43.12117" lon="6.26854">
        <ele>6.5</ele>
        <time>2021-07-20T10:20:07Z</time>
      </trkpt>
      <trkpt lat="43.12117" lon="6.26853">
        <ele>6.5</ele>
        <time>2021-07-20T10:20:09Z</time>
      </trkpt>
      <trkpt lat="43.12117" lon="6.26852">
        <ele>6.5</ele>
        <time>2021-07-20T10:20:10Z</time>
      </trkpt>
      <trkpt lat="43.12116" lon="6.26852">
        <ele>6.6</ele>
        <time>2021-07-20T10:20:11Z</time>
      </trkpt>
      <trkpt lat="43.12116" lon="6.26851">
        <ele>6.6</ele>
        <time>2021-07-20T10:20:12Z</time>
      </trkpt>
      <trkpt lat="43.12116" lon="6.2685">
        <ele>6.6</ele>
        <time>2021-07-20T10:20:13Z</time>
      </trkpt>
      <trkpt lat="43.12115" lon="6.26849">
        <ele>6.7</ele>
        <time>2021-07-20T10:20:15Z</time>
      </trkpt>
      <trkpt lat="43.12115" lon="6.26849">
        <ele>6.7</ele>
        <time>2021-07-20T10:20:16Z</time>
      </trkpt>
      <trkpt lat="43.12115" lon="6.26848">
        <ele>6.7</ele>
        <time>2021-07-20T10:20:17Z</time>
      </trkpt>
      <trkpt lat="43.12114" lon="6.26847">
        <ele>6.7</ele>
        <time>2021-07-20T10:20:18Z</time>
      </trkpt>
      <trkpt lat="43.12114" lon="6.26846">
        <ele>6.8</ele>
        <time>2021-07-20T10:20:19Z</time>
      </trkpt>
      <trkpt lat="43.12114" lon="6.26845">
        <ele>6.8</ele>
        <time>2021-07-20T10:20:21Z</time>
      </trkpt>
      <trkpt lat="43.12113" lon="6.26845">
        <ele>6.8</ele>
        <time>2021-07-20T10:20:22Z</time>
      </trkpt>
      <trkpt lat="43.12113" lon="6.26844">
        <ele>6.9</ele>
        <time>2021-07-20T10:20:23Z</time>
      </trkpt>
      <trkpt lat="43.12111" lon="6.2684">
        <ele>7</ele>
        <time>2021-07-20T10:20:24Z</time>
      </trkpt>
      <trkpt lat="43.1211" lon="6.26839">
        <ele>7.1</ele>
        <time>2021-07-20T10:20:25Z</time>
      </trkpt>
      <trkpt lat="43.12108" lon="6.26836">
        <ele>7.2</ele>
        <time>2021-07-20T10:20:26Z</time>
      </trkpt>
      <trkpt lat="43.12108" lon="6.26835">
        <ele>7.2</ele>
        <time>2021-07-20T10:20:27Z</time>
      </trkpt>
      <trkpt lat="43.12105" lon="6.26833">
        <ele>7.4</ele>
        <time>2021-07-20T10:20:29Z</time>
      </trkpt>
      <trkpt lat="43.12104" lon="6.26832">
        <ele>7.5</ele>
        <time>2021-07-20T10:20:30Z</time>
      </trkpt>
      <trkpt lat="43.12101" lon="6.2683">
        <ele>7.6</ele>
        <time>2021-07-20T10:20:32Z</time>
      </trkpt>
      <trkpt lat="43.121" lon="6.26829">
        <ele>7.7</ele>
        <time>2021-07-20T10:20:33Z</time>
      </trkpt>
      <trkpt lat="43.12098" lon="6.26828">
        <ele>7.8</ele>
        <time>2021-07-20T10:20:34Z</time>
      </trkpt>
      <trkpt lat="43.12096" lon="6.26827">
        <ele>7.9</ele>
        <time>2021-07-20T10:20:36Z</time>
      </trkpt>
      <trkpt lat="43.12094" lon="6.26828">
        <ele>8.1</ele>
        <time>2021-07-20T10:20:38Z</time>
      </trkpt>
      <trkpt lat="43.12094" lon="6.26829">
        <ele>8.1</ele>
        <time>2021-07-20T10:20:39Z</time>
      </trkpt>
      <trkpt lat="43.12094" lon="6.26831">
        <ele>8.2</ele>
        <time>2021-07-20T10:20:40Z</time>
      </trkpt>
      <trkpt lat="43.12094" lon="6.26832">
        <ele>8.2</ele>
        <time>2021-07-20T10:20:41Z</time>
      </trkpt>
      <trkpt lat="43.12095" lon="6.26832">
        <ele>8.3</ele>
        <time>2021-07-20T10:20:42Z</time>
      </trkpt>
      <trkpt lat="43.12095" lon="6.26833">
        <ele>8.3</ele>
        <time>2021-07-20T10:20:44Z</time>
      </trkpt>
      <trkpt lat="43.12095" lon="6.26832">
        <ele>8.3</ele>
        <time>2021-07-20T10:20:46Z</time>
      </trkpt>
      <trkpt lat="43.12094" lon="6.26833">
        <ele>8.3</ele>
        <time>2021-07-20T10:20:48Z</time>
      </trkpt>
      <trkpt lat="43.12094" lon="6.26832">
        <ele>8.3</ele>
        <time>2021-07-20T10:20:50Z</time>
      </trkpt>
      <trkpt lat="43.12094" lon="6.26832">
        <ele>8.4</ele>
        <time>2021-07-20T10:20:51Z</time>
      </trkpt>
      <trkpt lat="43.12095" lon="6.26832">
        <ele>8.4</ele>
        <time>2021-07-20T10:20:52Z</time>
      </trkpt>
      <trkpt lat="43.12095" lon="6.26833">
        <ele>8.4</ele>
        <time>2021-07-20T10:20:54Z</time>
      </trkpt>
      <trkpt lat="43.12095" lon="6.26833">
        <ele>8.4</ele>
        <time>2021-07-20T10:20:55Z</time>
      </trkpt>
      <trkpt lat="43.12095" lon="6.26832">
        <ele>8.5</ele>
        <time>2021-07-20T10:20:56Z</time>
      </trkpt>
      <trkpt lat="43.12096" lon="6.26832">
        <ele>8.5</ele>
        <time>2021-07-20T10:20:57Z</time>
      </trkpt>
      <trkpt lat="43.12096" lon="6.26832">
        <ele>8.5</ele>
        <time>2021-07-20T10:20:58Z</time>
      </trkpt>
      <trkpt lat="43.12096" lon="6.26832">
        <ele>8.5</ele>
        <time>2021-07-20T10:20:59Z</time>
      </trkpt>
      <trkpt lat="43.12097" lon="6.26831">
        <ele>8.6</ele>
        <time>2021-07-20T10:21:00Z</time>
      </trkpt>
      <trkpt lat="43.12097" lon="6.26829">
        <ele>8.7</ele>
        <time>2021-07-20T10:21:01Z</time>
      </trkpt>
      <trkpt lat="43.12097" lon="6.26828">
        <ele>8.8</ele>
        <time>2021-07-20T10:21:03Z</time>
      </trkpt>
      <trkpt lat="43.12097" lon="6.26827">
        <ele>8.9</ele>
        <time>2021-07-20T10:21:04Z</time>
      </trkpt>
      <trkpt lat="43.12096" lon="6.26825">
        <ele>9</ele>
        <time>2021-07-20T10:21:05Z</time>
      </trkpt>
      <trkpt lat="43.12096" lon="6.26823">
        <ele>9.1</ele>
        <time>2021-07-20T10:21:06Z</time>
      </trkpt>
      <trkpt lat="43.12094" lon="6.26819">
        <ele>9.4</ele>
        <time>2021-07-20T10:21:08Z</time>
      </trkpt>
      <trkpt lat="43.12094" lon="6.26817">
        <ele>9.5</ele>
        <time>2021-07-20T10:21:09Z</time>
      </trkpt>
      <trkpt lat="43.12093" lon="6.26816">
        <ele>9.6</ele>
        <time>2021-07-20T10:21:11Z</time>
      </trkpt>
      <trkpt lat="43.12093" lon="6.26815">
        <ele>9.7</ele>
        <time>2021-07-20T10:21:12Z</time>
      </trkpt>
      <trkpt lat="43.12092" lon="6.26812">
        <ele>9.8</ele>
        <time>2021-07-20T10:21:13Z</time>
      </trkpt>
      <trkpt lat="43.12091" lon="6.26811">
        <ele>9.9</ele>
        <time>2021-07-20T10:21:15Z</time>
      </trkpt>
      <trkpt lat="43.1209" lon="6.2681">
        <ele>10</ele>
        <time>2021-07-20T10:21:16Z</time>
      </trkpt>
      <trkpt lat="43.12089" lon="6.26809">
        <ele>10.1</ele>
        <time>2021-07-20T10:21:17Z</time>
      </trkpt>
      <trkpt lat="43.12089" lon="6.26808">
        <ele>10.2</ele>
        <time>2021-07-20T10:21:18Z</time>
      </trkpt>
      <trkpt lat="43.12088" lon="6.26807">
        <ele>10.2</ele>
        <time>2021-07-20T10:21:20Z</time>
      </trkpt>
      <trkpt lat="43.12086" lon="6.26806">
        <ele>10.3</ele>
        <time>2021-07-20T10:21:21Z</time>
      </trkpt>
      <trkpt lat="43.12086" lon="6.26805">
        <ele>10.4</ele>
        <time>2021-07-20T10:21:22Z</time>
      </trkpt>
      <trkpt lat="43.12085" lon="6.26804">
        <ele>10.4</ele>
        <time>2021-07-20T10:21:24Z</time>
      </trkpt>
      <trkpt lat="43.12084" lon="6.26803">
        <ele>10.5</ele>
        <time>2021-07-20T10:21:26Z</time>
      </trkpt>
      <trkpt lat="43.12083" lon="6.26802">
        <ele>10.5</ele>
        <time>2021-07-20T10:21:27Z</time>
      </trkpt>
      <trkpt lat="43.12082" lon="6.26801">
        <ele>10.6</ele>
        <time>2021-07-20T10:21:28Z</time>
      </trkpt>
      <trkpt lat="43.12082" lon="6.26802">
        <ele>10.6</ele>
        <time>2021-07-20T10:21:30Z</time>
      </trkpt>
      <trkpt lat="43.12081" lon="6.26802">
        <ele>10.6</ele>
        <time>2021-07-20T10:21:32Z</time>
      </trkpt>
      <trkpt lat="43.12081" lon="6.26802">
        <ele>10.6</ele>
        <time>2021-07-20T10:21:33Z</time>
      </trkpt>
      <trkpt lat="43.12082" lon="6.26801">
        <ele>10.6</ele>
        <time>2021-07-20T10:21:35Z</time>
      </trkpt>
      <trkpt lat="43.12083" lon="6.26801">
        <ele>10.6</ele>
        <time>2021-07-20T10:21:36Z</time>
      </trkpt>
      <trkpt lat="43.12083" lon="6.268">
        <ele>10.7</ele>
        <time>2021-07-20T10:21:38Z</time>
      </trkpt>
      <trkpt lat="43.12084" lon="6.268">
        <ele>10.7</ele>
        <time>2021-07-20T10:21:39Z</time>
      </trkpt>
      <trkpt lat="43.12084" lon="6.268">
        <ele>10.7</ele>
        <time>2021-07-20T10:21:40Z</time>
      </trkpt>
      <trkpt lat="43.12085" lon="6.268">
        <ele>10.7</ele>
        <time>2021-07-20T10:21:42Z</time>
      </trkpt>
      <trkpt lat="43.12086" lon="6.268">
        <ele>10.7</ele>
        <time>2021-07-20T10:21:44Z</time>
      </trkpt>
      <trkpt lat="43.12086" lon="6.268">
        <ele>10.7</ele>
        <time>2021-07-20T10:21:45Z</time>
      </trkpt>
      <trkpt lat="43.12086" lon="6.268">
        <ele>10.7</ele>
        <time>2021-07-20T10:21:47Z</time>
      </trkpt>
      <trkpt lat="43.12087" lon="6.268">
        <ele>10.6</ele>
        <time>2021-07-20T10:21:48Z</time>
      </trkpt>
      <trkpt lat="43.12087" lon="6.268">
        <ele>10.6</ele>
        <time>2021-07-20T10:21:49Z</time>
      </trkpt>
      <trkpt lat="43.12087" lon="6.268">
        <ele>10.6</ele>
        <time>2021-07-20T10:21:51Z</time>
      </trkpt>
      <trkpt lat="43.12087" lon="6.268">
        <ele>10.6</ele>
        <time>2021-07-20T10:21:52Z</time>
      </trkpt>
      <trkpt lat="43.12087" lon="6.268">
        <ele>10.6</ele>
        <time>2021-07-20T10:21:54Z</time>
      </trkpt>
      <trkpt lat="43.12087" lon="6.268">
        <ele>10.6</ele>
        <time>2021-07-20T10:21:56Z</time>
      </trkpt>
      <trkpt lat="43.12087" lon="6.268">
        <ele>10.6</ele>
        <time>2021-07-20T10:21:58Z</time>
      </trkpt>
      <trkpt lat="43.12086" lon="6.26799">
        <ele>10.6</ele>
        <time>2021-07-20T10:21:59Z</time>
      </trkpt>
      <trkpt lat="43.12086" lon="6.26799">
        <ele>10.6</ele>
        <time>2021-07-20T10:22:00Z</time>
      </trkpt>
      <trkpt lat="43.12085" lon="6.26799">
        <ele>10.6</ele>
        <time>2021-07-20T10:22:01Z</time>
      </trkpt>
      <trkpt lat="43.12084" lon="6.26799">
        <ele>10.6</ele>
        <time>2021-07-20T10:22:02Z</time>
      </trkpt>
      <trkpt lat="43.12083" lon="6.26799">
        <ele>10.6</ele>
        <time>2021-07-20T10:22:03Z</time>
      </trkpt>
      <trkpt lat="43.12082" lon="6.26799">
        <ele>10.5</ele>
        <time>2021-07-20T10:22:04Z</time>
      </trkpt>
      <trkpt lat="43.12081" lon="6.26799">
        <ele>10.5</ele>
        <time>2021-07-20T10:22:05Z</time>
      </trkpt>
      <trkpt lat="43.1208" lon="6.26799">
        <ele>10.4</ele>
        <time>2021-07-20T10:22:07Z</time>
      </trkpt>
      <trkpt lat="43.12079" lon="6.26799">
        <ele>10.3</ele>
        <time>2021-07-20T10:22:09Z</time>
      </trkpt>
      <trkpt lat="43.12079" lon="6.26799">
        <ele>10.3</ele>
        <time>2021-07-20T10:22:11Z</time>
      </trkpt>
      <trkpt lat="43.12079" lon="6.26798">
        <ele>10.3</ele>
        <time>2021-07-20T10:22:12Z</time>
      </trkpt>
      <trkpt lat="43.12078" lon="6.26797">
        <ele>10.2</ele>
        <time>2021-07-20T10:22:13Z</time>
      </trkpt>
      <trkpt lat="43.12078" lon="6.26795">
        <ele>10.1</ele>
        <time>2021-07-20T10:22:14Z</time>
      </trkpt>
      <trkpt lat="43.12077" lon="6.26794">
        <ele>10</ele>
        <time>2021-07-20T10:22:16Z</time>
      </trkpt>
      <trkpt lat="43.12076" lon="6.26793">
        <ele>9.9</ele>
        <time>2021-07-20T10:22:17Z</time>
      </trkpt>
      <trkpt lat="43.12075" lon="6.2679">
        <ele>9.6</ele>
        <time>2021-07-20T10:22:18Z</time>
      </trkpt>
      <trkpt lat="43.12074" lon="6.2679">
        <ele>9.5</ele>
        <time>2021-07-20T10:22:20Z</time>
      </trkpt>
      <trkpt lat="43.12074" lon="6.26789">
        <ele>9.4</ele>
        <time>2021-07-20T10:22:21Z</time>
      </trkpt>
      <trkpt lat="43.12073" lon="6.26788">
        <ele>9.2</ele>
        <time>2021-07-20T10:22:22Z</time>
      </trkpt>
      <trkpt lat="43.12072" lon="6.26786">
        <ele>9.1</ele>
        <time>2021-07-20T10:22:23Z</time>
      </trkpt>
      <trkpt lat="43.12071" lon="6.26785">
        <ele>8.9</ele>
        <time>2021-07-20T10:22:25Z</time>
      </trkpt>
      <trkpt lat="43.1207" lon="6.26785">
        <ele>8.9</ele>
        <time>2021-07-20T10:22:26Z</time>
      </trkpt>
      <trkpt lat="43.1207" lon="6.26785">
        <ele>8.8</ele>
        <time>2021-07-20T10:22:27Z</time>
      </trkpt>
      <trkpt lat="43.12069" lon="6.26785">
        <ele>8.6</ele>
        <time>2021-07-20T10:22:28Z</time>
      </trkpt>
      <trkpt lat="43.12068" lon="6.26784">
        <ele>8.5</ele>
        <time>2021-07-20T10:22:30Z</time>
      </trkpt>
      <trkpt lat="43.12069" lon="6.26783">
        <ele>8.4</ele>
        <time>2021-07-20T10:22:32Z</time>
      </trkpt>
      <trkpt lat="43.1207" lon="6.26782">
        <ele>8.2</ele>
        <time>2021-07-20T10:22:33Z</time>
      </trkpt>
      <trkpt lat="43.1207" lon="6.26781">
        <ele>8.2</ele>
        <time>2021-07-20T10:22:34Z</time>
      </trkpt>
      <trkpt lat="43.12071" lon="6.2678">
        <ele>8</ele>
        <time>2021-07-20T10:22:36Z</time>
      </trkpt>
      <trkpt lat="43.12071" lon="6.26779">
        <ele>7.9</ele>
        <time>2021-07-20T10:22:38Z</time>
      </trkpt>
      <trkpt lat="43.12071" lon="6.26779">
        <ele>7.9</ele>
        <time>2021-07-20T10:22:39Z</time>
      </trkpt>
      <trkpt lat="43.12071" lon="6.26778">
        <ele>7.8</ele>
        <time>2021-07-20T10:22:41Z</time>
      </trkpt>
      <trkpt lat="43.12071" lon="6.26778">
        <ele>7.8</ele>
        <time>2021-07-20T10:22:42Z</time>
      </trkpt>
      <trkpt lat="43.12071" lon="6.26778">
        <ele>7.8</ele>
        <time>2021-07-20T10:22:43Z</time>
      </trkpt>
      <trkpt lat="43.12071" lon="6.26778">
        <ele>7.8</ele>
        <time>2021-07-20T10:22:45Z</time>
      </trkpt>
      <trkpt lat="43.12071" lon="6.26777">
        <ele>7.7</ele>
        <time>2021-07-20T10:22:46Z</time>
      </trkpt>
      <trkpt lat="43.12071" lon="6.26776">
        <ele>7.6</ele>
        <time>2021-07-20T10:22:47Z</time>
      </trkpt>
      <trkpt lat="43.12071" lon="6.26775">
        <ele>7.4</ele>
        <time>2021-07-20T10:22:48Z</time>
      </trkpt>
      <trkpt lat="43.12071" lon="6.26774">
        <ele>7.3</ele>
        <time>2021-07-20T10:22:49Z</time>
      </trkpt>
      <trkpt lat="43.1207" lon="6.26774">
        <ele>7.2</ele>
        <time>2021-07-20T10:22:51Z</time>
      </trkpt>
      <trkpt lat="43.1207" lon="6.26774">
        <ele>7.2</ele>
        <time>2021-07-20T10:22:52Z</time>
      </trkpt>
      <trkpt lat="43.12069" lon="6.26774">
        <ele>7.1</ele>
        <time>2021-07-20T10:22:53Z</time>
      </trkpt>
      <trkpt lat="43.12069" lon="6.26773">
        <ele>7</ele>
        <time>2021-07-20T10:22:55Z</time>
      </trkpt>
      <trkpt lat="43.12069" lon="6.26773">
        <ele>7</ele>
        <time>2021-07-20T10:22:56Z</time>
      </trkpt>
      <trkpt lat="43.12068" lon="6.26772">
        <ele>6.9</ele>
        <time>2021-07-20T10:22:57Z</time>
      </trkpt>
      <trkpt lat="43.12067" lon="6.26771">
        <ele>6.7</ele>
        <time>2021-07-20T10:22:58Z</time>
      </trkpt>
      <trkpt lat="43.12067" lon="6.2677">
        <ele>6.6</ele>
        <time>2021-07-20T10:23:00Z</time>
      </trkpt>
      <trkpt lat="43.12066" lon="6.26769">
        <ele>6.5</ele>
        <time>2021-07-20T10:23:01Z</time>
      </trkpt>
      <trkpt lat="43.12066" lon="6.26767">
        <ele>6.3</ele>
        <time>2021-07-20T10:23:02Z</time>
      </trkpt>
      <trkpt lat="43.12066" lon="6.26764">
        <ele>6.1</ele>
        <time>2021-07-20T10:23:04Z</time>
      </trkpt>
      <trkpt lat="43.12066" lon="6.26763">
        <ele>6</ele>
        <time>2021-07-20T10:23:05Z</time>
      </trkpt>
      <trkpt lat="43.12066" lon="6.26762">
        <ele>5.9</ele>
        <time>2021-07-20T10:23:06Z</time>
      </trkpt>
      <trkpt lat="43.12066" lon="6.26761">
        <ele>5.8</ele>
        <time>2021-07-20T10:23:07Z</time>
      </trkpt>
      <trkpt lat="43.12066" lon="6.26759">
        <ele>5.7</ele>
        <time>2021-07-20T10:23:08Z</time>
      </trkpt>
      <trkpt lat="43.12065" lon="6.26758">
        <ele>5.6</ele>
        <time>2021-07-20T10:23:09Z</time>
      </trkpt>
      <trkpt lat="43.12065" lon="6.26757">
        <ele>5.5</ele>
        <time>2021-07-20T10:23:11Z</time>
      </trkpt>
      <trkpt lat="43.12064" lon="6.26756">
        <ele>5.4</ele>
        <time>2021-07-20T10:23:12Z</time>
      </trkpt>
      <trkpt lat="43.12063" lon="6.26755">
        <ele>5.3</ele>
        <time>2021-07-20T10:23:13Z</time>
      </trkpt>
      <trkpt lat="43.12062" lon="6.26755">
        <ele>5.3</ele>
        <time>2021-07-20T10:23:15Z</time>
      </trkpt>
      <trkpt lat="43.12062" lon="6.26754">
        <ele>5.2</ele>
        <time>2021-07-20T10:23:16Z</time>
      </trkpt>
      <trkpt lat="43.12063" lon="6.26753">
        <ele>5.2</ele>
        <time>2021-07-20T10:23:17Z</time>
      </trkpt>
      <trkpt lat="43.12063" lon="6.26751">
        <ele>5</ele>
        <time>2021-07-20T10:23:18Z</time>
      </trkpt>
      <trkpt lat="43.12062" lon="6.26749">
        <ele>4.9</ele>
        <time>2021-07-20T10:23:20Z</time>
      </trkpt>
      <trkpt lat="43.12062" lon="6.26747">
        <ele>4.8</ele>
        <time>2021-07-20T10:23:21Z</time>
      </trkpt>
      <trkpt lat="43.12061" lon="6.26744">
        <ele>4.7</ele>
        <time>2021-07-20T10:23:23Z</time>
      </trkpt>
      <trkpt lat="43.12061" lon="6.26742">
        <ele>4.7</ele>
        <time>2021-07-20T10:23:25Z</time>
      </trkpt>
      <trkpt lat="43.12062" lon="6.2674">
        <ele>4.6</ele>
        <time>2021-07-20T10:23:26Z</time>
      </trkpt>
      <trkpt lat="43.12063" lon="6.26738">
        <ele>4.6</ele>
        <time>2021-07-20T10:23:28Z</time>
      </trkpt>
      <trkpt lat="43.12062" lon="6.26738">
        <ele>4.6</ele>
        <time>2021-07-20T10:23:30Z</time>
      </trkpt>
      <trkpt lat="43.12061" lon="6.26739">
        <ele>4.6</ele>
        <time>2021-07-20T10:23:32Z</time>
      </trkpt>
      <trkpt lat="43.12062" lon="6.26739">
        <ele>4.6</ele>
        <time>2021-07-20T10:23:34Z</time>
      </trkpt>
      <trkpt lat="43.12062" lon="6.26739">
        <ele>4.6</ele>
        <time>2021-07-20T10:23:35Z</time>
      </trkpt>
      <trkpt lat="43.12062" lon="6.26738">
        <ele>4.6</ele>
        <time>2021-07-20T10:23:37Z</time>
      </trkpt>
      <trkpt lat="43.12063" lon="6.26738">
        <ele>4.6</ele>
        <time>2021-07-20T10:23:38Z</time>
      </trkpt>
      <trkpt lat="43.12063" lon="6.26737">
        <ele>4.6</ele>
        <time>2021-07-20T10:23:40Z</time>
      </trkpt>
      <trkpt lat="43.12063" lon="6.26736">
        <ele>4.6</ele>
        <time>2021-07-20T10:23:41Z</time>
      </trkpt>
      <trkpt lat="43.12063" lon="6.26735">
        <ele>4.6</ele>
        <time>2021-07-20T10:23:42Z</time>
      </trkpt>
      <trkpt lat="43.12063" lon="6.26733">
        <ele>4.7</ele>
        <time>2021-07-20T10:23:43Z</time>
      </trkpt>
      <trkpt lat="43.12063" lon="6.26732">
        <ele>4.7</ele>
        <time>2021-07-20T10:23:45Z</time>
      </trkpt>
      <trkpt lat="43.12063" lon="6.26731">
        <ele>4.7</ele>
        <time>2021-07-20T10:23:46Z</time>
      </trkpt>
      <trkpt lat="43.12063" lon="6.2673">
        <ele>4.8</ele>
        <time>2021-07-20T10:23:47Z</time>
      </trkpt>
      <trkpt lat="43.12063" lon="6.26728">
        <ele>4.8</ele>
        <time>2021-07-20T10:23:49Z</time>
      </trkpt>
      <trkpt lat="43.12063" lon="6.26729">
        <ele>4.8</ele>
        <time>2021-07-20T10:23:50Z</time>
      </trkpt>
      <trkpt lat="43.12062" lon="6.26729">
        <ele>4.9</ele>
        <time>2021-07-20T10:23:51Z</time>
      </trkpt>
      <trkpt lat="43.12062" lon="6.2673">
        <ele>4.9</ele>
        <time>2021-07-20T10:23:53Z</time>
      </trkpt>
      <trkpt lat="43.12062" lon="6.2673">
        <ele>4.9</ele>
        <time>2021-07-20T10:23:54Z</time>
      </trkpt>
      <trkpt lat="43.12061" lon="6.2673">
        <ele>5</ele>
        <time>2021-07-20T10:23:56Z</time>
      </trkpt>
      <trkpt lat="43.12061" lon="6.2673">
        <ele>5</ele>
        <time>2021-07-20T10:23:58Z</time>
      </trkpt>
      <trkpt lat="43.12061" lon="6.2673">
        <ele>5</ele>
        <time>2021-07-20T10:23:59Z</time>
      </trkpt>
      <trkpt lat="43.12061" lon="6.2673">
        <ele>5</ele>
        <time>2021-07-20T10:24:00Z</time>
      </trkpt>
      <trkpt lat="43.12061" lon="6.2673">
        <ele>5</ele>
        <time>2021-07-20T10:24:02Z</time>
      </trkpt>
      <trkpt lat="43.12061" lon="6.2673">
        <ele>5</ele>
        <time>2021-07-20T10:24:04Z</time>
      </trkpt>
      <trkpt lat="43.12061" lon="6.2673">
        <ele>5</ele>
        <time>2021-07-20T10:24:05Z</time>
      </trkpt>
      <trkpt lat="43.12061" lon="6.2673">
        <ele>5</ele>
        <time>2021-07-20T10:24:06Z</time>
      </trkpt>
      <trkpt lat="43.12061" lon="6.26731">
        <ele>5.1</ele>
        <time>2021-07-20T10:24:08Z</time>
      </trkpt>
      <trkpt lat="43.12061" lon="6.26731">
        <ele>5.1</ele>
        <time>2021-07-20T10:24:10Z</time>
      </trkpt>
      <trkpt lat="43.12061" lon="6.26731">
        <ele>5.1</ele>
        <time>2021-07-20T10:24:12Z</time>
      </trkpt>
      <trkpt lat="43.12061" lon="6.26731">
        <ele>5.1</ele>
        <time>2021-07-20T10:24:13Z</time>
      </trkpt>
      <trkpt lat="43.12061" lon="6.26731">
        <ele>5.1</ele>
        <time>2021-07-20T10:24:15Z</time>
      </trkpt>
      <trkpt lat="43.12061" lon="6.26731">
        <ele>5.1</ele>
        <time>2021-07-20T10:24:16Z</time>
      </trkpt>
      <trkpt lat="43.12061" lon="6.26731">
        <ele>5.1</ele>
        <time>2021-07-20T10:24:17Z</time>
      </trkpt>
      <trkpt lat="43.12061" lon="6.26731">
        <ele>5.1</ele>
        <time>2021-07-20T10:24:18Z</time>
      </trkpt>
      <trkpt lat="43.12061" lon="6.26731">
        <ele>5.1</ele>
        <time>2021-07-20T10:24:20Z</time>
      </trkpt>
      <trkpt lat="43.12061" lon="6.26731">
        <ele>5.1</ele>
        <time>2021-07-20T10:24:21Z</time>
      </trkpt>
      <trkpt lat="43.12061" lon="6.26731">
        <ele>5.1</ele>
        <time>2021-07-20T10:24:22Z</time>
      </trkpt>
      <trkpt lat="43.12061" lon="6.26731">
        <ele>5.2</ele>
        <time>2021-07-20T10:24:23Z</time>
      </trkpt>
      <trkpt lat="43.12061" lon="6.26728">
        <ele>5.3</ele>
        <time>2021-07-20T10:24:25Z</time>
      </trkpt>
      <trkpt lat="43.12061" lon="6.26726">
        <ele>5.5</ele>
        <time>2021-07-20T10:24:26Z</time>
      </trkpt>
      <trkpt lat="43.1206" lon="6.26722">
        <ele>5.8</ele>
        <time>2021-07-20T10:24:28Z</time>
      </trkpt>
      <trkpt lat="43.1206" lon="6.26721">
        <ele>6</ele>
        <time>2021-07-20T10:24:29Z</time>
      </trkpt>
      <trkpt lat="43.1206" lon="6.26719">
        <ele>6.1</ele>
        <time>2021-07-20T10:24:31Z</time>
      </trkpt>
      <trkpt lat="43.1206" lon="6.26716">
        <ele>6.5</ele>
        <time>2021-07-20T10:24:33Z</time>
      </trkpt>
      <trkpt lat="43.12059" lon="6.26713">
        <ele>6.9</ele>
        <time>2021-07-20T10:24:34Z</time>
      </trkpt>
      <trkpt lat="43.12058" lon="6.26712">
        <ele>7.1</ele>
        <time>2021-07-20T10:24:35Z</time>
      </trkpt>
      <trkpt lat="43.12056" lon="6.26712">
        <ele>7.5</ele>
        <time>2021-07-20T10:24:37Z</time>
      </trkpt>
      <trkpt lat="43.12055" lon="6.26712">
        <ele>7.7</ele>
        <time>2021-07-20T10:24:39Z</time>
      </trkpt>
      <trkpt lat="43.12054" lon="6.26712">
        <ele>7.8</ele>
        <time>2021-07-20T10:24:41Z</time>
      </trkpt>
      <trkpt lat="43.12054" lon="6.26713">
        <ele>7.9</ele>
        <time>2021-07-20T10:24:42Z</time>
      </trkpt>
      <trkpt lat="43.12054" lon="6.26713">
        <ele>8</ele>
        <time>2021-07-20T10:24:44Z</time>
      </trkpt>
      <trkpt lat="43.12054" lon="6.26714">
        <ele>8</ele>
        <time>2021-07-20T10:24:46Z</time>
      </trkpt>
      <trkpt lat="43.12054" lon="6.26714">
        <ele>8.1</ele>
        <time>2021-07-20T10:24:47Z</time>
      </trkpt>
      <trkpt lat="43.12054" lon="6.26716">
        <ele>8.3</ele>
        <time>2021-07-20T10:24:49Z</time>
      </trkpt>
      <trkpt lat="43.12054" lon="6.26716">
        <ele>8.4</ele>
        <time>2021-07-20T10:24:50Z</time>
      </trkpt>
      <trkpt lat="43.12054" lon="6.26717">
        <ele>8.5</ele>
        <time>2021-07-20T10:24:51Z</time>
      </trkpt>
      <trkpt lat="43.12055" lon="6.26717">
        <ele>8.6</ele>
        <time>2021-07-20T10:24:53Z</time>
      </trkpt>
      <trkpt lat="43.12055" lon="6.26717">
        <ele>8.7</ele>
        <time>2021-07-20T10:24:55Z</time>
      </trkpt>
      <trkpt lat="43.12055" lon="6.26716">
        <ele>8.8</ele>
        <time>2021-07-20T10:24:57Z</time>
      </trkpt>
      <trkpt lat="43.12055" lon="6.26716">
        <ele>8.8</ele>
        <time>2021-07-20T10:24:58Z</time>
      </trkpt>
      <trkpt lat="43.12055" lon="6.26717">
        <ele>8.9</ele>
        <time>2021-07-20T10:24:59Z</time>
      </trkpt>
      <trkpt lat="43.12054" lon="6.26718">
        <ele>9.2</ele>
        <time>2021-07-20T10:25:01Z</time>
      </trkpt>
      <trkpt lat="43.12054" lon="6.2672">
        <ele>9.4</ele>
        <time>2021-07-20T10:25:02Z</time>
      </trkpt>
      <trkpt lat="43.12054" lon="6.26723">
        <ele>9.8</ele>
        <time>2021-07-20T10:25:04Z</time>
      </trkpt>
      <trkpt lat="43.12053" lon="6.26723">
        <ele>9.8</ele>
        <time>2021-07-20T10:25:06Z</time>
      </trkpt>
      <trkpt lat="43.12054" lon="6.26723">
        <ele>9.9</ele>
        <time>2021-07-20T10:25:07Z</time>
      </trkpt>
      <trkpt lat="43.12055" lon="6.26723">
        <ele>10.1</ele>
        <time>2021-07-20T10:25:09Z</time>
      </trkpt>
      <trkpt lat="43.12055" lon="6.26723">
        <ele>10.1</ele>
        <time>2021-07-20T10:25:11Z</time>
      </trkpt>
      <trkpt lat="43.12054" lon="6.26723">
        <ele>10.1</ele>
        <time>2021-07-20T10:25:13Z</time>
      </trkpt>
      <trkpt lat="43.12054" lon="6.26723">
        <ele>10.2</ele>
        <time>2021-07-20T10:25:15Z</time>
      </trkpt>
      <trkpt lat="43.12054" lon="6.26723">
        <ele>10.2</ele>
        <time>2021-07-20T10:25:16Z</time>
      </trkpt>
      <trkpt lat="43.12054" lon="6.26723">
        <ele>10.2</ele>
        <time>2021-07-20T10:25:17Z</time>
      </trkpt>
      <trkpt lat="43.12054" lon="6.26723">
        <ele>10.3</ele>
        <time>2021-07-20T10:25:18Z</time>
      </trkpt>
      <trkpt lat="43.12054" lon="6.26723">
        <ele>10.3</ele>
        <time>2021-07-20T10:25:20Z</time>
      </trkpt>
      <trkpt lat="43.12054" lon="6.26724">
        <ele>10.3</ele>
        <time>2021-07-20T10:25:21Z</time>
      </trkpt>
      <trkpt lat="43.12054" lon="6.26724">
        <ele>10.3</ele>
        <time>2021-07-20T10:25:22Z</time>
      </trkpt>
      <trkpt lat="43.12054" lon="6.26723">
        <ele>10.4</ele>
        <time>2021-07-20T10:25:23Z</time>
      </trkpt>
      <trkpt lat="43.12053" lon="6.2672">
        <ele>10.8</ele>
        <time>2021-07-20T10:25:25Z</time>
      </trkpt>
      <trkpt lat="43.12052" lon="6.26719">
        <ele>11</ele>
        <time>2021-07-20T10:25:27Z</time>
      </trkpt>
      <trkpt lat="43.12052" lon="6.26719">
        <ele>11.1</ele>
        <time>2021-07-20T10:25:28Z</time>
      </trkpt>
      <trkpt lat="43.12053" lon="6.26718">
        <ele>11.1</ele>
        <time>2021-07-20T10:25:30Z</time>
      </trkpt>
      <trkpt lat="43.12053" lon="6.26717">
        <ele>11.3</ele>
        <time>2021-07-20T10:25:32Z</time>
      </trkpt>
      <trkpt lat="43.12053" lon="6.26716">
        <ele>11.4</ele>
        <time>2021-07-20T10:25:34Z</time>
      </trkpt>
      <trkpt lat="43.12054" lon="6.26716">
        <ele>11.5</ele>
        <time>2021-07-20T10:25:35Z</time>
      </trkpt>
      <trkpt lat="43.12054" lon="6.26716">
        <ele>11.5</ele>
        <time>2021-07-20T10:25:36Z</time>
      </trkpt>
      <trkpt lat="43.12054" lon="6.26715">
        <ele>11.6</ele>
        <time>2021-07-20T10:25:37Z</time>
      </trkpt>
      <trkpt lat="43.12054" lon="6.26715">
        <ele>11.7</ele>
        <time>2021-07-20T10:25:39Z</time>
      </trkpt>
      <trkpt lat="43.12054" lon="6.26714">
        <ele>11.7</ele>
        <time>2021-07-20T10:25:40Z</time>
      </trkpt>
      <trkpt lat="43.12054" lon="6.26713">
        <ele>11.8</ele>
        <time>2021-07-20T10:25:41Z</time>
      </trkpt>
      <trkpt lat="43.12054" lon="6.26713">
        <ele>11.9</ele>
        <time>2021-07-20T10:25:42Z</time>
      </trkpt>
      <trkpt lat="43.12053" lon="6.26712">
        <ele>12</ele>
        <time>2021-07-20T10:25:44Z</time>
      </trkpt>
      <trkpt lat="43.12053" lon="6.26711">
        <ele>12.1</ele>
        <time>2021-07-20T10:25:45Z</time>
      </trkpt>
      <trkpt lat="43.12053" lon="6.26711">
        <ele>12.1</ele>
        <time>2021-07-20T10:25:46Z</time>
      </trkpt>
      <trkpt lat="43.12052" lon="6.26712">
        <ele>12.2</ele>
        <time>2021-07-20T10:25:48Z</time>
      </trkpt>
      <trkpt lat="43.12052" lon="6.26712">
        <ele>12.2</ele>
        <time>2021-07-20T10:25:49Z</time>
      </trkpt>
      <trkpt lat="43.12052" lon="6.26713">
        <ele>12.3</ele>
        <time>2021-07-20T10:25:50Z</time>
      </trkpt>
      <trkpt lat="43.12052" lon="6.26713">
        <ele>12.3</ele>
        <time>2021-07-20T10:25:52Z</time>
      </trkpt>
      <trkpt lat="43.12052" lon="6.26713">
        <ele>12.4</ele>
        <time>2021-07-20T10:25:53Z</time>
      </trkpt>
      <trkpt lat="43.12052" lon="6.26714">
        <ele>12.4</ele>
        <time>2021-07-20T10:25:54Z</time>
      </trkpt>
      <trkpt lat="43.12052" lon="6.26714">
        <ele>12.5</ele>
        <time>2021-07-20T10:25:56Z</time>
      </trkpt>
      <trkpt lat="43.12052" lon="6.26714">
        <ele>12.5</ele>
        <time>2021-07-20T10:25:57Z</time>
      </trkpt>
      <trkpt lat="43.12052" lon="6.26715">
        <ele>12.5</ele>
        <time>2021-07-20T10:25:58Z</time>
      </trkpt>
      <trkpt lat="43.12052" lon="6.26715">
        <ele>12.6</ele>
        <time>2021-07-20T10:26:00Z</time>
      </trkpt>
      <trkpt lat="43.12053" lon="6.26716">
        <ele>12.7</ele>
        <time>2021-07-20T10:26:02Z</time>
      </trkpt>
      <trkpt lat="43.12053" lon="6.26716">
        <ele>12.7</ele>
        <time>2021-07-20T10:26:03Z</time>
      </trkpt>
      <trkpt lat="43.12053" lon="6.26717">
        <ele>12.8</ele>
        <time>2021-07-20T10:26:05Z</time>
      </trkpt>
      <trkpt lat="43.12053" lon="6.26717">
        <ele>12.8</ele>
        <time>2021-07-20T10:26:06Z</time>
      </trkpt>
      <trkpt lat="43.12053" lon="6.26717">
        <ele>12.8</ele>
        <time>2021-07-20T10:26:07Z</time>
      </trkpt>
      <trkpt lat="43.12054" lon="6.26717">
        <ele>12.9</ele>
        <time>2021-07-20T10:26:09Z</time>
      </trkpt>
      <trkpt lat="43.12054" lon="6.26717">
        <ele>13</ele>
        <time>2021-07-20T10:26:11Z</time>
      </trkpt>
      <trkpt lat="43.12054" lon="6.26717">
        <ele>13</ele>
        <time>2021-07-20T10:26:12Z</time>
      </trkpt>
      <trkpt lat="43.12054" lon="6.26717">
        <ele>13</ele>
        <time>2021-07-20T10:26:13Z</time>
      </trkpt>
      <trkpt lat="43.12055" lon="6.26717">
        <ele>13</ele>
        <time>2021-07-20T10:26:14Z</time>
      </trkpt>
      <trkpt lat="43.12055" lon="6.26717">
        <ele>13</ele>
        <time>2021-07-20T10:26:16Z</time>
      </trkpt>
      <trkpt lat="43.12055" lon="6.26717">
        <ele>13.1</ele>
        <time>2021-07-20T10:26:17Z</time>
      </trkpt>
      <trkpt lat="43.12055" lon="6.26717">
        <ele>13.1</ele>
        <time>2021-07-20T10:26:18Z</time>
      </trkpt>
      <trkpt lat="43.12055" lon="6.26717">
        <ele>13.1</ele>
        <time>2021-07-20T10:26:20Z</time>
      </trkpt>
      <trkpt lat="43.12055" lon="6.26717">
        <ele>13.1</ele>
        <time>2021-07-20T10:26:21Z</time>
      </trkpt>
      <trkpt lat="43.12055" lon="6.26717">
        <ele>13.1</ele>
        <time>2021-07-20T10:26:22Z</time>
      </trkpt>
      <trkpt lat="43.12055" lon="6.26717">
        <ele>13.1</ele>
        <time>2021-07-20T10:26:23Z</time>
      </trkpt>
      <trkpt lat="43.12055" lon="6.26717">
        <ele>13.1</ele>
        <time>2021-07-20T10:26:24Z</time>
      </trkpt>
      <trkpt lat="43.12055" lon="6.26717">
        <ele>13.1</ele>
        <time>2021-07-20T10:26:25Z</time>
      </trkpt>
      <trkpt lat="43.12055" lon="6.26717">
        <ele>13.1</ele>
        <time>2021-07-20T10:26:26Z</time>
      </trkpt>
      <trkpt lat="43.12055" lon="6.26717">
        <ele>13.1</ele>
        <time>2021-07-20T10:26:27Z</time>
      </trkpt>
      <trkpt lat="43.12055" lon="6.26717">
        <ele>13.2</ele>
        <time>2021-07-20T10:26:29Z</time>
      </trkpt>
      <trkpt lat="43.12055" lon="6.26717">
        <ele>13.2</ele>
        <time>2021-07-20T10:26:30Z</time>
      </trkpt>
      <trkpt lat="43.12055" lon="6.26717">
        <ele>13.2</ele>
        <time>2021-07-20T10:26:32Z</time>
      </trkpt>
      <trkpt lat="43.12055" lon="6.26717">
        <ele>13.2</ele>
        <time>2021-07-20T10:26:33Z</time>
      </trkpt>
      <trkpt lat="43.12055" lon="6.26717">
        <ele>13.2</ele>
        <time>2021-07-20T10:26:34Z</time>
      </trkpt>
      <trkpt lat="43.12055" lon="6.26716">
        <ele>13.2</ele>
        <time>2021-07-20T10:26:35Z</time>
      </trkpt>
      <trkpt lat="43.12055" lon="6.26717">
        <ele>13.3</ele>
        <time>2021-07-20T10:26:36Z</time>
      </trkpt>
      <trkpt lat="43.12055" lon="6.26717">
        <ele>13.3</ele>
        <time>2021-07-20T10:26:37Z</time>
      </trkpt>
      <trkpt lat="43.12054" lon="6.26718">
        <ele>13.5</ele>
        <time>2021-07-20T10:26:39Z</time>
      </trkpt>
      <trkpt lat="43.12054" lon="6.26719">
        <ele>13.5</ele>
        <time>2021-07-20T10:26:40Z</time>
      </trkpt>
      <trkpt lat="43.12054" lon="6.26719">
        <ele>13.5</ele>
        <time>2021-07-20T10:26:41Z</time>
      </trkpt>
      <trkpt lat="43.12053" lon="6.2672">
        <ele>13.6</ele>
        <time>2021-07-20T10:26:43Z</time>
      </trkpt>
      <trkpt lat="43.12053" lon="6.2672">
        <ele>13.7</ele>
        <time>2021-07-20T10:26:44Z</time>
      </trkpt>
      <trkpt lat="43.12053" lon="6.2672">
        <ele>13.7</ele>
        <time>2021-07-20T10:26:45Z</time>
      </trkpt>
      <trkpt lat="43.12053" lon="6.26721">
        <ele>13.8</ele>
        <time>2021-07-20T10:26:47Z</time>
      </trkpt>
      <trkpt lat="43.12053" lon="6.26721">
        <ele>13.8</ele>
        <time>2021-07-20T10:26:49Z</time>
      </trkpt>
      <trkpt lat="43.12053" lon="6.26721">
        <ele>13.8</ele>
        <time>2021-07-20T10:26:50Z</time>
      </trkpt>
      <trkpt lat="43.12053" lon="6.26721">
        <ele>13.9</ele>
        <time>2021-07-20T10:26:52Z</time>
      </trkpt>
      <trkpt lat="43.12052" lon="6.26721">
        <ele>13.9</ele>
        <time>2021-07-20T10:26:53Z</time>
      </trkpt>
      <trkpt lat="43.12052" lon="6.26721">
        <ele>13.9</ele>
        <time>2021-07-20T10:26:54Z</time>
      </trkpt>
      <trkpt lat="43.12052" lon="6.26721">
        <ele>13.9</ele>
        <time>2021-07-20T10:26:56Z</time>
      </trkpt>
      <trkpt lat="43.12052" lon="6.26721">
        <ele>13.9</ele>
        <time>2021-07-20T10:26:58Z</time>
      </trkpt>
      <trkpt lat="43.12052" lon="6.26721">
        <ele>13.9</ele>
        <time>2021-07-20T10:26:59Z</time>
      </trkpt>
      <trkpt lat="43.12052" lon="6.26721">
        <ele>13.9</ele>
        <time>2021-07-20T10:27:00Z</time>
      </trkpt>
      <trkpt lat="43.12052" lon="6.26721">
        <ele>14</ele>
        <time>2021-07-20T10:27:02Z</time>
      </trkpt>
      <trkpt lat="43.12052" lon="6.2672">
        <ele>14</ele>
        <time>2021-07-20T10:27:03Z</time>
      </trkpt>
      <trkpt lat="43.12053" lon="6.2672">
        <ele>14.1</ele>
        <time>2021-07-20T10:27:04Z</time>
      </trkpt>
      <trkpt lat="43.12052" lon="6.2672">
        <ele>14.1</ele>
        <time>2021-07-20T10:27:05Z</time>
      </trkpt>
      <trkpt lat="43.12052" lon="6.2672">
        <ele>14.2</ele>
        <time>2021-07-20T10:27:07Z</time>
      </trkpt>
      <trkpt lat="43.12052" lon="6.2672">
        <ele>14.2</ele>
        <time>2021-07-20T10:27:08Z</time>
      </trkpt>
      <trkpt lat="43.12051" lon="6.2672">
        <ele>14.2</ele>
        <time>2021-07-20T10:27:10Z</time>
      </trkpt>
      <trkpt lat="43.12051" lon="6.2672">
        <ele>14.2</ele>
        <time>2021-07-20T10:27:11Z</time>
      </trkpt>
      <trkpt lat="43.12051" lon="6.2672">
        <ele>14.2</ele>
        <time>2021-07-20T10:27:13Z</time>
      </trkpt>
      <trkpt lat="43.12051" lon="6.2672">
        <ele>14.2</ele>
        <time>2021-07-20T10:27:14Z</time>
      </trkpt>
      <trkpt lat="43.12051" lon="6.2672">
        <ele>14.2</ele>
        <time>2021-07-20T10:27:16Z</time>
      </trkpt>
      <trkpt lat="43.12051" lon="6.2672">
        <ele>14.2</ele>
        <time>2021-07-20T10:27:18Z</time>
      </trkpt>
      <trkpt lat="43.12051" lon="6.2672">
        <ele>14.2</ele>
        <time>2021-07-20T10:27:19Z</time>
      </trkpt>
      <trkpt lat="43.12051" lon="6.2672">
        <ele>14.2</ele>
        <time>2021-07-20T10:27:21Z</time>
      </trkpt>
      <trkpt lat="43.12051" lon="6.2672">
        <ele>14.2</ele>
        <time>2021-07-20T10:27:23Z</time>
      </trkpt>
      <trkpt lat="43.12051" lon="6.2672">
        <ele>14.2</ele>
        <time>2021-07-20T10:27:24Z</time>
      </trkpt>
      <trkpt lat="43.12051" lon="6.2672">
        <ele>14.2</ele>
        <time>2021-07-20T10:27:26Z</time>
      </trkpt>
      <trkpt lat="43.12051" lon="6.2672">
        <ele>14.2</ele>
        <time>2021-07-20T10:27:27Z</time>
      </trkpt>
      <trkpt lat="43.12051" lon="6.2672">
        <ele>14.2</ele>
        <time>2021-07-20T10:27:29Z</time>
      </trkpt>
      <trkpt lat="43.12051" lon="6.2672">
        <ele>14.2</ele>
        <time>2021-07-20T10:27:30Z</time>
      </trkpt>
      <trkpt lat="43.12051" lon="6.2672">
        <ele>14.2</ele>
        <time>2021-07-20T10:27:31Z</time>
      </trkpt>
      <trkpt lat="43.12051" lon="6.2672">
        <ele>14.2</ele>
        <time>2021-07-20T10:27:33Z</time>
      </trkpt>
      <trkpt lat="43.12051" lon="6.2672">
        <ele>14.2</ele>
        <time>2021-07-20T10:27:35Z</time>
      </trkpt>
      <trkpt lat="43.12051" lon="6.2672">
        <ele>14.2</ele>
        <time>2021-07-20T10:27:37Z</time>
      </trkpt>
      <trkpt lat="43.12051" lon="6.2672">
        <ele>14.2</ele>
        <time>2021-07-20T10:27:39Z</time>
      </trkpt>
      <trkpt lat="43.12051" lon="6.2672">
        <ele>14.2</ele>
        <time>2021-07-20T10:27:41Z</time>
      </trkpt>
      <trkpt lat="43.12051" lon="6.2672">
        <ele>14.2</ele>
        <time>2021-07-20T10:27:42Z</time>
      </trkpt>
      <trkpt lat="43.12051" lon="6.2672">
        <ele>14.2</ele>
        <time>2021-07-20T10:27:43Z</time>
      </trkpt>
      <trkpt lat="43.12052" lon="6.2672">
        <ele>14.4</ele>
        <time>2021-07-20T10:27:45Z</time>
      </trkpt>
      <trkpt lat="43.12053" lon="6.2672">
        <ele>14.4</ele>
        <time>2021-07-20T10:27:46Z</time>
      </trkpt>
      <trkpt lat="43.12053" lon="6.26719">
        <ele>14.6</ele>
        <time>2021-07-20T10:27:48Z</time>
      </trkpt>
      <trkpt lat="43.12053" lon="6.26718">
        <ele>14.7</ele>
        <time>2021-07-20T10:27:50Z</time>
      </trkpt>
      <trkpt lat="43.12054" lon="6.26718">
        <ele>14.7</ele>
        <time>2021-07-20T10:27:51Z</time>
      </trkpt>
      <trkpt lat="43.12054" lon="6.26717">
        <ele>14.8</ele>
        <time>2021-07-20T10:27:52Z</time>
      </trkpt>
      <trkpt lat="43.12055" lon="6.26715">
        <ele>15</ele>
        <time>2021-07-20T10:27:54Z</time>
      </trkpt>
      <trkpt lat="43.12055" lon="6.26713">
        <ele>15.2</ele>
        <time>2021-07-20T10:27:55Z</time>
      </trkpt>
      <trkpt lat="43.12056" lon="6.26712">
        <ele>15.4</ele>
        <time>2021-07-20T10:27:56Z</time>
      </trkpt>
      <trkpt lat="43.12057" lon="6.26709">
        <ele>15.6</ele>
        <time>2021-07-20T10:27:57Z</time>
      </trkpt>
      <trkpt lat="43.12057" lon="6.26708">
        <ele>15.7</ele>
        <time>2021-07-20T10:27:59Z</time>
      </trkpt>
      <trkpt lat="43.12058" lon="6.26707">
        <ele>15.8</ele>
        <time>2021-07-20T10:28:00Z</time>
      </trkpt>
      <trkpt lat="43.12058" lon="6.26706">
        <ele>15.9</ele>
        <time>2021-07-20T10:28:01Z</time>
      </trkpt>
      <trkpt lat="43.12059" lon="6.26706">
        <ele>16</ele>
        <time>2021-07-20T10:28:03Z</time>
      </trkpt>
      <trkpt lat="43.1206" lon="6.26706">
        <ele>16</ele>
        <time>2021-07-20T10:28:04Z</time>
      </trkpt>
      <trkpt lat="43.1206" lon="6.26705">
        <ele>16.1</ele>
        <time>2021-07-20T10:28:05Z</time>
      </trkpt>
      <trkpt lat="43.12061" lon="6.26705">
        <ele>16.2</ele>
        <time>2021-07-20T10:28:07Z</time>
      </trkpt>
      <trkpt lat="43.12061" lon="6.26705">
        <ele>16.3</ele>
        <time>2021-07-20T10:28:08Z</time>
      </trkpt>
      <trkpt lat="43.12062" lon="6.26705">
        <ele>16.3</ele>
        <time>2021-07-20T10:28:09Z</time>
      </trkpt>
      <trkpt lat="43.12062" lon="6.26704">
        <ele>16.4</ele>
        <time>2021-07-20T10:28:11Z</time>
      </trkpt>
      <trkpt lat="43.12062" lon="6.26704">
        <ele>16.4</ele>
        <time>2021-07-20T10:28:12Z</time>
      </trkpt>
      <trkpt lat="43.12063" lon="6.26703">
        <ele>16.5</ele>
        <time>2021-07-20T10:28:13Z</time>
      </trkpt>
      <trkpt lat="43.12063" lon="6.26702">
        <ele>16.6</ele>
        <time>2021-07-20T10:28:14Z</time>
      </trkpt>
      <trkpt lat="43.12064" lon="6.26701">
        <ele>16.7</ele>
        <time>2021-07-20T10:28:16Z</time>
      </trkpt>
      <trkpt lat="43.12064" lon="6.267">
        <ele>16.8</ele>
        <time>2021-07-20T10:28:17Z</time>
      </trkpt>
      <trkpt lat="43.12064" lon="6.26698">
        <ele>16.9</ele>
        <time>2021-07-20T10:28:18Z</time>
      </trkpt>
      <trkpt lat="43.12065" lon="6.26697">
        <ele>17</ele>
        <time>2021-07-20T10:28:20Z</time>
      </trkpt>
      <trkpt lat="43.12066" lon="6.26695">
        <ele>17.1</ele>
        <time>2021-07-20T10:28:21Z</time>
      </trkpt>
      <trkpt lat="43.12067" lon="6.26694">
        <ele>17.2</ele>
        <time>2021-07-20T10:28:22Z</time>
      </trkpt>
      <trkpt lat="43.12068" lon="6.26693">
        <ele>17.3</ele>
        <time>2021-07-20T10:28:24Z</time>
      </trkpt>
      <trkpt lat="43.1207" lon="6.26691">
        <ele>17.4</ele>
        <time>2021-07-20T10:28:25Z</time>
      </trkpt>
      <trkpt lat="43.12071" lon="6.26691">
        <ele>17.5</ele>
        <time>2021-07-20T10:28:26Z</time>
      </trkpt>
      <trkpt lat="43.12073" lon="6.26691">
        <ele>17.5</ele>
        <time>2021-07-20T10:28:28Z</time>
      </trkpt>
      <trkpt lat="43.12074" lon="6.26691">
        <ele>17.6</ele>
        <time>2021-07-20T10:28:29Z</time>
      </trkpt>
      <trkpt lat="43.12074" lon="6.26691">
        <ele>17.6</ele>
        <time>2021-07-20T10:28:30Z</time>
      </trkpt>
      <trkpt lat="43.12076" lon="6.26691">
        <ele>17.6</ele>
        <time>2021-07-20T10:28:32Z</time>
      </trkpt>
      <trkpt lat="43.12077" lon="6.2669">
        <ele>17.6</ele>
        <time>2021-07-20T10:28:33Z</time>
      </trkpt>
      <trkpt lat="43.1208" lon="6.26688">
        <ele>17.6</ele>
        <time>2021-07-20T10:28:35Z</time>
      </trkpt>
      <trkpt lat="43.12081" lon="6.26688">
        <ele>17.6</ele>
        <time>2021-07-20T10:28:36Z</time>
      </trkpt>
      <trkpt lat="43.12083" lon="6.26688">
        <ele>17.6</ele>
        <time>2021-07-20T10:28:37Z</time>
      </trkpt>
      <trkpt lat="43.12085" lon="6.26689">
        <ele>17.5</ele>
        <time>2021-07-20T10:28:39Z</time>
      </trkpt>
      <trkpt lat="43.12088" lon="6.26692">
        <ele>17.5</ele>
        <time>2021-07-20T10:28:41Z</time>
      </trkpt>
      <trkpt lat="43.12088" lon="6.26692">
        <ele>17.4</ele>
        <time>2021-07-20T10:28:42Z</time>
      </trkpt>
      <trkpt lat="43.12089" lon="6.26692">
        <ele>17.4</ele>
        <time>2021-07-20T10:28:43Z</time>
      </trkpt>
      <trkpt lat="43.1209" lon="6.26692">
        <ele>17.4</ele>
        <time>2021-07-20T10:28:45Z</time>
      </trkpt>
      <trkpt lat="43.1209" lon="6.26691">
        <ele>17.4</ele>
        <time>2021-07-20T10:28:46Z</time>
      </trkpt>
      <trkpt lat="43.1209" lon="6.26689">
        <ele>17.3</ele>
        <time>2021-07-20T10:28:48Z</time>
      </trkpt>
      <trkpt lat="43.1209" lon="6.26687">
        <ele>17.2</ele>
        <time>2021-07-20T10:28:49Z</time>
      </trkpt>
      <trkpt lat="43.1209" lon="6.26685">
        <ele>17.2</ele>
        <time>2021-07-20T10:28:50Z</time>
      </trkpt>
      <trkpt lat="43.1209" lon="6.26683">
        <ele>17.1</ele>
        <time>2021-07-20T10:28:52Z</time>
      </trkpt>
      <trkpt lat="43.1209" lon="6.26682">
        <ele>17</ele>
        <time>2021-07-20T10:28:53Z</time>
      </trkpt>
      <trkpt lat="43.1209" lon="6.2668">
        <ele>17</ele>
        <time>2021-07-20T10:28:54Z</time>
      </trkpt>
      <trkpt lat="43.1209" lon="6.26679">
        <ele>16.9</ele>
        <time>2021-07-20T10:28:55Z</time>
      </trkpt>
      <trkpt lat="43.12089" lon="6.26678">
        <ele>16.9</ele>
        <time>2021-07-20T10:28:57Z</time>
      </trkpt>
      <trkpt lat="43.12089" lon="6.26677">
        <ele>16.8</ele>
        <time>2021-07-20T10:28:58Z</time>
      </trkpt>
      <trkpt lat="43.12089" lon="6.26675">
        <ele>16.8</ele>
        <time>2021-07-20T10:28:59Z</time>
      </trkpt>
      <trkpt lat="43.1209" lon="6.26674">
        <ele>16.7</ele>
        <time>2021-07-20T10:29:01Z</time>
      </trkpt>
      <trkpt lat="43.12091" lon="6.26673">
        <ele>16.6</ele>
        <time>2021-07-20T10:29:02Z</time>
      </trkpt>
      <trkpt lat="43.12091" lon="6.26672">
        <ele>16.6</ele>
        <time>2021-07-20T10:29:04Z</time>
      </trkpt>
      <trkpt lat="43.12092" lon="6.26671">
        <ele>16.5</ele>
        <time>2021-07-20T10:29:05Z</time>
      </trkpt>
      <trkpt lat="43.12093" lon="6.26669">
        <ele>16.4</ele>
        <time>2021-07-20T10:29:06Z</time>
      </trkpt>
      <trkpt lat="43.12096" lon="6.26668">
        <ele>16.2</ele>
        <time>2021-07-20T10:29:08Z</time>
      </trkpt>
      <trkpt lat="43.12096" lon="6.26668">
        <ele>16.2</ele>
        <time>2021-07-20T10:29:09Z</time>
      </trkpt>
      <trkpt lat="43.12098" lon="6.26667">
        <ele>16.1</ele>
        <time>2021-07-20T10:29:10Z</time>
      </trkpt>
      <trkpt lat="43.12099" lon="6.26665">
        <ele>16</ele>
        <time>2021-07-20T10:29:12Z</time>
      </trkpt>
      <trkpt lat="43.12099" lon="6.26664">
        <ele>15.9</ele>
        <time>2021-07-20T10:29:14Z</time>
      </trkpt>
      <trkpt lat="43.121" lon="6.26663">
        <ele>15.8</ele>
        <time>2021-07-20T10:29:16Z</time>
      </trkpt>
      <trkpt lat="43.121" lon="6.26662">
        <ele>15.8</ele>
        <time>2021-07-20T10:29:17Z</time>
      </trkpt>
      <trkpt lat="43.121" lon="6.26662">
        <ele>15.8</ele>
        <time>2021-07-20T10:29:18Z</time>
      </trkpt>
      <trkpt lat="43.12101" lon="6.26661">
        <ele>15.7</ele>
        <time>2021-07-20T10:29:20Z</time>
      </trkpt>
      <trkpt lat="43.12101" lon="6.26662">
        <ele>15.7</ele>
        <time>2021-07-20T10:29:21Z</time>
      </trkpt>
      <trkpt lat="43.12101" lon="6.26662">
        <ele>15.6</ele>
        <time>2021-07-20T10:29:22Z</time>
      </trkpt>
      <trkpt lat="43.12102" lon="6.26661">
        <ele>15.6</ele>
        <time>2021-07-20T10:29:23Z</time>
      </trkpt>
      <trkpt lat="43.12103" lon="6.2666">
        <ele>15.5</ele>
        <time>2021-07-20T10:29:24Z</time>
      </trkpt>
      <trkpt lat="43.12104" lon="6.26659">
        <ele>15.4</ele>
        <time>2021-07-20T10:29:25Z</time>
      </trkpt>
      <trkpt lat="43.12106" lon="6.26657">
        <ele>15.3</ele>
        <time>2021-07-20T10:29:27Z</time>
      </trkpt>
      <trkpt lat="43.12107" lon="6.26656">
        <ele>15.2</ele>
        <time>2021-07-20T10:29:28Z</time>
      </trkpt>
      <trkpt lat="43.12108" lon="6.26654">
        <ele>15.1</ele>
        <time>2021-07-20T10:29:29Z</time>
      </trkpt>
      <trkpt lat="43.12109" lon="6.26653">
        <ele>14.9</ele>
        <time>2021-07-20T10:29:30Z</time>
      </trkpt>
      <trkpt lat="43.1211" lon="6.26652">
        <ele>14.8</ele>
        <time>2021-07-20T10:29:32Z</time>
      </trkpt>
      <trkpt lat="43.12112" lon="6.26651">
        <ele>14.7</ele>
        <time>2021-07-20T10:29:33Z</time>
      </trkpt>
      <trkpt lat="43.12113" lon="6.2665">
        <ele>14.6</ele>
        <time>2021-07-20T10:29:34Z</time>
      </trkpt>
      <trkpt lat="43.12115" lon="6.26647">
        <ele>14.4</ele>
        <time>2021-07-20T10:29:36Z</time>
      </trkpt>
      <trkpt lat="43.12116" lon="6.26646">
        <ele>14.3</ele>
        <time>2021-07-20T10:29:37Z</time>
      </trkpt>
      <trkpt lat="43.12117" lon="6.26644">
        <ele>14.2</ele>
        <time>2021-07-20T10:29:38Z</time>
      </trkpt>
      <trkpt lat="43.12117" lon="6.26643">
        <ele>14.1</ele>
        <time>2021-07-20T10:29:39Z</time>
      </trkpt>
      <trkpt lat="43.12117" lon="6.26641">
        <ele>14</ele>
        <time>2021-07-20T10:29:41Z</time>
      </trkpt>
      <trkpt lat="43.12117" lon="6.2664">
        <ele>13.9</ele>
        <time>2021-07-20T10:29:42Z</time>
      </trkpt>
      <trkpt lat="43.12118" lon="6.2664">
        <ele>13.9</ele>
        <time>2021-07-20T10:29:43Z</time>
      </trkpt>
      <trkpt lat="43.12119" lon="6.2664">
        <ele>13.8</ele>
        <time>2021-07-20T10:29:44Z</time>
      </trkpt>
      <trkpt lat="43.12121" lon="6.26639">
        <ele>13.7</ele>
        <time>2021-07-20T10:29:46Z</time>
      </trkpt>
      <trkpt lat="43.12121" lon="6.26639">
        <ele>13.6</ele>
        <time>2021-07-20T10:29:48Z</time>
      </trkpt>
      <trkpt lat="43.12122" lon="6.26639">
        <ele>13.6</ele>
        <time>2021-07-20T10:29:49Z</time>
      </trkpt>
      <trkpt lat="43.12122" lon="6.26638">
        <ele>13.5</ele>
        <time>2021-07-20T10:29:50Z</time>
      </trkpt>
      <trkpt lat="43.12123" lon="6.26637">
        <ele>13.4</ele>
        <time>2021-07-20T10:29:51Z</time>
      </trkpt>
      <trkpt lat="43.12124" lon="6.26636">
        <ele>13.3</ele>
        <time>2021-07-20T10:29:53Z</time>
      </trkpt>
      <trkpt lat="43.12125" lon="6.26635">
        <ele>13.3</ele>
        <time>2021-07-20T10:29:54Z</time>
      </trkpt>
      <trkpt lat="43.12125" lon="6.26634">
        <ele>13.2</ele>
        <time>2021-07-20T10:29:55Z</time>
      </trkpt>
      <trkpt lat="43.12126" lon="6.26633">
        <ele>13.1</ele>
        <time>2021-07-20T10:29:56Z</time>
      </trkpt>
      <trkpt lat="43.12127" lon="6.26633">
        <ele>13</ele>
        <time>2021-07-20T10:29:57Z</time>
      </trkpt>
      <trkpt lat="43.12128" lon="6.26632">
        <ele>12.9</ele>
        <time>2021-07-20T10:29:59Z</time>
      </trkpt>
      <trkpt lat="43.12129" lon="6.26631">
        <ele>12.8</ele>
        <time>2021-07-20T10:30:00Z</time>
      </trkpt>
      <trkpt lat="43.1213" lon="6.2663">
        <ele>12.7</ele>
        <time>2021-07-20T10:30:01Z</time>
      </trkpt>
      <trkpt lat="43.1213" lon="6.2663">
        <ele>12.7</ele>
        <time>2021-07-20T10:30:02Z</time>
      </trkpt>
      <trkpt lat="43.12129" lon="6.26629">
        <ele>12.7</ele>
        <time>2021-07-20T10:30:04Z</time>
      </trkpt>
      <trkpt lat="43.12129" lon="6.26629">
        <ele>12.7</ele>
        <time>2021-07-20T10:30:05Z</time>
      </trkpt>
      <trkpt lat="43.12129" lon="6.26629">
        <ele>12.6</ele>
        <time>2021-07-20T10:30:06Z</time>
      </trkpt>
      <trkpt lat="43.12128" lon="6.26628">
        <ele>12.6</ele>
        <time>2021-07-20T10:30:07Z</time>
      </trkpt>
      <trkpt lat="43.12128" lon="6.26628">
        <ele>12.6</ele>
        <time>2021-07-20T10:30:08Z</time>
      </trkpt>
      <trkpt lat="43.12128" lon="6.26628">
        <ele>12.5</ele>
        <time>2021-07-20T10:30:10Z</time>
      </trkpt>
      <trkpt lat="43.12128" lon="6.26628">
        <ele>12.5</ele>
        <time>2021-07-20T10:30:11Z</time>
      </trkpt>
      <trkpt lat="43.12128" lon="6.26628">
        <ele>12.5</ele>
        <time>2021-07-20T10:30:12Z</time>
      </trkpt>
      <trkpt lat="43.12129" lon="6.26627">
        <ele>12.4</ele>
        <time>2021-07-20T10:30:13Z</time>
      </trkpt>
      <trkpt lat="43.1213" lon="6.26626">
        <ele>12.3</ele>
        <time>2021-07-20T10:30:15Z</time>
      </trkpt>
      <trkpt lat="43.1213" lon="6.26626">
        <ele>12.3</ele>
        <time>2021-07-20T10:30:16Z</time>
      </trkpt>
      <trkpt lat="43.12131" lon="6.26626">
        <ele>12.2</ele>
        <time>2021-07-20T10:30:17Z</time>
      </trkpt>
      <trkpt lat="43.12132" lon="6.26626">
        <ele>12.1</ele>
        <time>2021-07-20T10:30:18Z</time>
      </trkpt>
      <trkpt lat="43.12133" lon="6.26625">
        <ele>12</ele>
        <time>2021-07-20T10:30:20Z</time>
      </trkpt>
      <trkpt lat="43.12134" lon="6.26625">
        <ele>11.9</ele>
        <time>2021-07-20T10:30:21Z</time>
      </trkpt>
      <trkpt lat="43.12136" lon="6.26625">
        <ele>11.8</ele>
        <time>2021-07-20T10:30:22Z</time>
      </trkpt>
      <trkpt lat="43.12137" lon="6.26625">
        <ele>11.7</ele>
        <time>2021-07-20T10:30:23Z</time>
      </trkpt>
      <trkpt lat="43.12138" lon="6.26624">
        <ele>11.5</ele>
        <time>2021-07-20T10:30:25Z</time>
      </trkpt>
      <trkpt lat="43.1214" lon="6.26622">
        <ele>11.3</ele>
        <time>2021-07-20T10:30:26Z</time>
      </trkpt>
      <trkpt lat="43.1214" lon="6.26621">
        <ele>11.3</ele>
        <time>2021-07-20T10:30:27Z</time>
      </trkpt>
      <trkpt lat="43.12141" lon="6.2662">
        <ele>11.2</ele>
        <time>2021-07-20T10:30:28Z</time>
      </trkpt>
      <trkpt lat="43.12142" lon="6.26619">
        <ele>11.1</ele>
        <time>2021-07-20T10:30:29Z</time>
      </trkpt>
      <trkpt lat="43.12143" lon="6.26617">
        <ele>11</ele>
        <time>2021-07-20T10:30:31Z</time>
      </trkpt>
      <trkpt lat="43.12144" lon="6.26616">
        <ele>10.5</ele>
        <time>2021-07-20T10:30:32Z</time>
      </trkpt>
      <trkpt lat="43.12144" lon="6.26613">
        <ele>9.9</ele>
        <time>2021-07-20T10:30:34Z</time>
      </trkpt>
      <trkpt lat="43.12144" lon="6.26612">
        <ele>9.6</ele>
        <time>2021-07-20T10:30:35Z</time>
      </trkpt>
      <trkpt lat="43.12144" lon="6.2661">
        <ele>9.1</ele>
        <time>2021-07-20T10:30:37Z</time>
      </trkpt>
      <trkpt lat="43.12144" lon="6.26609">
        <ele>8.8</ele>
        <time>2021-07-20T10:30:38Z</time>
      </trkpt>
      <trkpt lat="43.12144" lon="6.26609">
        <ele>8.7</ele>
        <time>2021-07-20T10:30:40Z</time>
      </trkpt>
      <trkpt lat="43.12144" lon="6.26609">
        <ele>8.7</ele>
        <time>2021-07-20T10:30:41Z</time>
      </trkpt>
      <trkpt lat="43.12144" lon="6.26609">
        <ele>8.6</ele>
        <time>2021-07-20T10:30:42Z</time>
      </trkpt>
      <trkpt lat="43.12144" lon="6.26608">
        <ele>8.6</ele>
        <time>2021-07-20T10:30:44Z</time>
      </trkpt>
      <trkpt lat="43.12144" lon="6.26609">
        <ele>8.3</ele>
        <time>2021-07-20T10:30:46Z</time>
      </trkpt>
      <trkpt lat="43.12144" lon="6.2661">
        <ele>8.2</ele>
        <time>2021-07-20T10:30:47Z</time>
      </trkpt>
      <trkpt lat="43.12144" lon="6.2661">
        <ele>8.1</ele>
        <time>2021-07-20T10:30:48Z</time>
      </trkpt>
      <trkpt lat="43.12144" lon="6.2661">
        <ele>8</ele>
        <time>2021-07-20T10:30:50Z</time>
      </trkpt>
      <trkpt lat="43.12144" lon="6.26611">
        <ele>7.9</ele>
        <time>2021-07-20T10:30:51Z</time>
      </trkpt>
      <trkpt lat="43.12143" lon="6.26611">
        <ele>7.8</ele>
        <time>2021-07-20T10:30:52Z</time>
      </trkpt>
      <trkpt lat="43.12143" lon="6.26611">
        <ele>7.7</ele>
        <time>2021-07-20T10:30:54Z</time>
      </trkpt>
      <trkpt lat="43.12143" lon="6.26612">
        <ele>7.7</ele>
        <time>2021-07-20T10:30:55Z</time>
      </trkpt>
      <trkpt lat="43.12143" lon="6.26612">
        <ele>7.7</ele>
        <time>2021-07-20T10:30:56Z</time>
      </trkpt>
      <trkpt lat="43.12143" lon="6.26612">
        <ele>7.6</ele>
        <time>2021-07-20T10:30:57Z</time>
      </trkpt>
      <trkpt lat="43.12143" lon="6.26612">
        <ele>7.6</ele>
        <time>2021-07-20T10:30:59Z</time>
      </trkpt>
      <trkpt lat="43.12143" lon="6.26611">
        <ele>7.6</ele>
        <time>2021-07-20T10:31:00Z</time>
      </trkpt>
      <trkpt lat="43.12143" lon="6.26611">
        <ele>7.5</ele>
        <time>2021-07-20T10:31:02Z</time>
      </trkpt>
      <trkpt lat="43.12143" lon="6.2661">
        <ele>7.2</ele>
        <time>2021-07-20T10:31:03Z</time>
      </trkpt>
      <trkpt lat="43.12143" lon="6.2661">
        <ele>7.1</ele>
        <time>2021-07-20T10:31:05Z</time>
      </trkpt>
      <trkpt lat="43.12143" lon="6.26608">
        <ele>6.8</ele>
        <time>2021-07-20T10:31:06Z</time>
      </trkpt>
      <trkpt lat="43.12142" lon="6.26607">
        <ele>6.5</ele>
        <time>2021-07-20T10:31:07Z</time>
      </trkpt>
      <trkpt lat="43.12142" lon="6.26606">
        <ele>6.1</ele>
        <time>2021-07-20T10:31:09Z</time>
      </trkpt>
      <trkpt lat="43.12141" lon="6.26605">
        <ele>5.8</ele>
        <time>2021-07-20T10:31:10Z</time>
      </trkpt>
      <trkpt lat="43.12141" lon="6.26604">
        <ele>5.6</ele>
        <time>2021-07-20T10:31:12Z</time>
      </trkpt>
      <trkpt lat="43.12141" lon="6.26603">
        <ele>5.3</ele>
        <time>2021-07-20T10:31:13Z</time>
      </trkpt>
      <trkpt lat="43.12141" lon="6.26602">
        <ele>5.2</ele>
        <time>2021-07-20T10:31:14Z</time>
      </trkpt>
      <trkpt lat="43.1214" lon="6.266">
        <ele>4.9</ele>
        <time>2021-07-20T10:31:15Z</time>
      </trkpt>
      <trkpt lat="43.12139" lon="6.26597">
        <ele>4.1</ele>
        <time>2021-07-20T10:31:18Z</time>
      </trkpt>
      <trkpt lat="43.12138" lon="6.26595">
        <ele>3.9</ele>
        <time>2021-07-20T10:31:19Z</time>
      </trkpt>
      <trkpt lat="43.12138" lon="6.26593">
        <ele>3.5</ele>
        <time>2021-07-20T10:31:21Z</time>
      </trkpt>
      <trkpt lat="43.12137" lon="6.26591">
        <ele>3.4</ele>
        <time>2021-07-20T10:31:22Z</time>
      </trkpt>
      <trkpt lat="43.12137" lon="6.26589">
        <ele>3.3</ele>
        <time>2021-07-20T10:31:23Z</time>
      </trkpt>
      <trkpt lat="43.12137" lon="6.26588">
        <ele>3.3</ele>
        <time>2021-07-20T10:31:24Z</time>
      </trkpt>
      <trkpt lat="43.12138" lon="6.26585">
        <ele>3.2</ele>
        <time>2021-07-20T10:31:26Z</time>
      </trkpt>
      <trkpt lat="43.12138" lon="6.26583">
        <ele>3.1</ele>
        <time>2021-07-20T10:31:28Z</time>
      </trkpt>
      <trkpt lat="43.12138" lon="6.26582">
        <ele>3.1</ele>
        <time>2021-07-20T10:31:29Z</time>
      </trkpt>
      <trkpt lat="43.12138" lon="6.2658">
        <ele>3</ele>
        <time>2021-07-20T10:31:31Z</time>
      </trkpt>
      <trkpt lat="43.12139" lon="6.26579">
        <ele>3</ele>
        <time>2021-07-20T10:31:32Z</time>
      </trkpt>
      <trkpt lat="43.12139" lon="6.26577">
        <ele>3</ele>
        <time>2021-07-20T10:31:33Z</time>
      </trkpt>
      <trkpt lat="43.12139" lon="6.26576">
        <ele>2.9</ele>
        <time>2021-07-20T10:31:34Z</time>
      </trkpt>
      <trkpt lat="43.12139" lon="6.26575">
        <ele>2.9</ele>
        <time>2021-07-20T10:31:36Z</time>
      </trkpt>
      <trkpt lat="43.12138" lon="6.26574">
        <ele>2.9</ele>
        <time>2021-07-20T10:31:37Z</time>
      </trkpt>
      <trkpt lat="43.12138" lon="6.26571">
        <ele>2.9</ele>
        <time>2021-07-20T10:31:38Z</time>
      </trkpt>
      <trkpt lat="43.12137" lon="6.26571">
        <ele>2.8</ele>
        <time>2021-07-20T10:31:39Z</time>
      </trkpt>
      <trkpt lat="43.12137" lon="6.2657">
        <ele>2.8</ele>
        <time>2021-07-20T10:31:40Z</time>
      </trkpt>
      <trkpt lat="43.12136" lon="6.26568">
        <ele>2.8</ele>
        <time>2021-07-20T10:31:42Z</time>
      </trkpt>
      <trkpt lat="43.12135" lon="6.26567">
        <ele>2.8</ele>
        <time>2021-07-20T10:31:43Z</time>
      </trkpt>
      <trkpt lat="43.12135" lon="6.26566">
        <ele>2.8</ele>
        <time>2021-07-20T10:31:44Z</time>
      </trkpt>
      <trkpt lat="43.12135" lon="6.26565">
        <ele>2.8</ele>
        <time>2021-07-20T10:31:46Z</time>
      </trkpt>
      <trkpt lat="43.12134" lon="6.26564">
        <ele>2.7</ele>
        <time>2021-07-20T10:31:47Z</time>
      </trkpt>
      <trkpt lat="43.12134" lon="6.26563">
        <ele>2.7</ele>
        <time>2021-07-20T10:31:48Z</time>
      </trkpt>
      <trkpt lat="43.12133" lon="6.26562">
        <ele>2.7</ele>
        <time>2021-07-20T10:31:49Z</time>
      </trkpt>
      <trkpt lat="43.12133" lon="6.26561">
        <ele>2.7</ele>
        <time>2021-07-20T10:31:51Z</time>
      </trkpt>
      <trkpt lat="43.12133" lon="6.2656">
        <ele>2.7</ele>
        <time>2021-07-20T10:31:52Z</time>
      </trkpt>
      <trkpt lat="43.12132" lon="6.26558">
        <ele>2.7</ele>
        <time>2021-07-20T10:31:53Z</time>
      </trkpt>
      <trkpt lat="43.12132" lon="6.26557">
        <ele>2.7</ele>
        <time>2021-07-20T10:31:54Z</time>
      </trkpt>
      <trkpt lat="43.12132" lon="6.26556">
        <ele>2.7</ele>
        <time>2021-07-20T10:31:55Z</time>
      </trkpt>
      <trkpt lat="43.12132" lon="6.26554">
        <ele>2.7</ele>
        <time>2021-07-20T10:31:57Z</time>
      </trkpt>
      <trkpt lat="43.12131" lon="6.26552">
        <ele>2.6</ele>
        <time>2021-07-20T10:31:58Z</time>
      </trkpt>
      <trkpt lat="43.12131" lon="6.2655">
        <ele>2.6</ele>
        <time>2021-07-20T10:31:59Z</time>
      </trkpt>
      <trkpt lat="43.1213" lon="6.26549">
        <ele>2.6</ele>
        <time>2021-07-20T10:32:00Z</time>
      </trkpt>
      <trkpt lat="43.1213" lon="6.26547">
        <ele>2.6</ele>
        <time>2021-07-20T10:32:01Z</time>
      </trkpt>
      <trkpt lat="43.1213" lon="6.26546">
        <ele>2.6</ele>
        <time>2021-07-20T10:32:02Z</time>
      </trkpt>
      <trkpt lat="43.1213" lon="6.26544">
        <ele>2.6</ele>
        <time>2021-07-20T10:32:04Z</time>
      </trkpt>
      <trkpt lat="43.1213" lon="6.26543">
        <ele>2.6</ele>
        <time>2021-07-20T10:32:05Z</time>
      </trkpt>
      <trkpt lat="43.1213" lon="6.26542">
        <ele>2.6</ele>
        <time>2021-07-20T10:32:06Z</time>
      </trkpt>
      <trkpt lat="43.12131" lon="6.26541">
        <ele>2.6</ele>
        <time>2021-07-20T10:32:07Z</time>
      </trkpt>
      <trkpt lat="43.12131" lon="6.26539">
        <ele>2.6</ele>
        <time>2021-07-20T10:32:08Z</time>
      </trkpt>
      <trkpt lat="43.12132" lon="6.26538">
        <ele>2.6</ele>
        <time>2021-07-20T10:32:10Z</time>
      </trkpt>
      <trkpt lat="43.12132" lon="6.26537">
        <ele>2.6</ele>
        <time>2021-07-20T10:32:12Z</time>
      </trkpt>
      <trkpt lat="43.12132" lon="6.26535">
        <ele>2.6</ele>
        <time>2021-07-20T10:32:13Z</time>
      </trkpt>
      <trkpt lat="43.12132" lon="6.26534">
        <ele>2.6</ele>
        <time>2021-07-20T10:32:14Z</time>
      </trkpt>
      <trkpt lat="43.12133" lon="6.26532">
        <ele>2.6</ele>
        <time>2021-07-20T10:32:15Z</time>
      </trkpt>
      <trkpt lat="43.12133" lon="6.26531">
        <ele>2.6</ele>
        <time>2021-07-20T10:32:16Z</time>
      </trkpt>
      <trkpt lat="43.12133" lon="6.2653">
        <ele>2.6</ele>
        <time>2021-07-20T10:32:17Z</time>
      </trkpt>
      <trkpt lat="43.12133" lon="6.26527">
        <ele>2.6</ele>
        <time>2021-07-20T10:32:18Z</time>
      </trkpt>
      <trkpt lat="43.12133" lon="6.26525">
        <ele>2.6</ele>
        <time>2021-07-20T10:32:20Z</time>
      </trkpt>
      <trkpt lat="43.12133" lon="6.26524">
        <ele>2.6</ele>
        <time>2021-07-20T10:32:21Z</time>
      </trkpt>
      <trkpt lat="43.12133" lon="6.2652">
        <ele>2.6</ele>
        <time>2021-07-20T10:32:23Z</time>
      </trkpt>
      <trkpt lat="43.12133" lon="6.26519">
        <ele>2.6</ele>
        <time>2021-07-20T10:32:24Z</time>
      </trkpt>
      <trkpt lat="43.12132" lon="6.26518">
        <ele>2.6</ele>
        <time>2021-07-20T10:32:25Z</time>
      </trkpt>
      <trkpt lat="43.12132" lon="6.26516">
        <ele>2.6</ele>
        <time>2021-07-20T10:32:26Z</time>
      </trkpt>
      <trkpt lat="43.12131" lon="6.26515">
        <ele>2.6</ele>
        <time>2021-07-20T10:32:27Z</time>
      </trkpt>
      <trkpt lat="43.12131" lon="6.26513">
        <ele>2.6</ele>
        <time>2021-07-20T10:32:28Z</time>
      </trkpt>
      <trkpt lat="43.12132" lon="6.2651">
        <ele>2.6</ele>
        <time>2021-07-20T10:32:30Z</time>
      </trkpt>
      <trkpt lat="43.12133" lon="6.26506">
        <ele>2.5</ele>
        <time>2021-07-20T10:32:32Z</time>
      </trkpt>
      <trkpt lat="43.12133" lon="6.26505">
        <ele>2.5</ele>
        <time>2021-07-20T10:32:33Z</time>
      </trkpt>
      <trkpt lat="43.12133" lon="6.26502">
        <ele>2.5</ele>
        <time>2021-07-20T10:32:35Z</time>
      </trkpt>
      <trkpt lat="43.12133" lon="6.26501">
        <ele>2.5</ele>
        <time>2021-07-20T10:32:36Z</time>
      </trkpt>
      <trkpt lat="43.12133" lon="6.26499">
        <ele>2.5</ele>
        <time>2021-07-20T10:32:37Z</time>
      </trkpt>
      <trkpt lat="43.12132" lon="6.26497">
        <ele>2.5</ele>
        <time>2021-07-20T10:32:38Z</time>
      </trkpt>
      <trkpt lat="43.12132" lon="6.26496">
        <ele>2.5</ele>
        <time>2021-07-20T10:32:39Z</time>
      </trkpt>
      <trkpt lat="43.12132" lon="6.26494">
        <ele>2.5</ele>
        <time>2021-07-20T10:32:40Z</time>
      </trkpt>
      <trkpt lat="43.12132" lon="6.26492">
        <ele>2.5</ele>
        <time>2021-07-20T10:32:42Z</time>
      </trkpt>
      <trkpt lat="43.12132" lon="6.2649">
        <ele>2.5</ele>
        <time>2021-07-20T10:32:43Z</time>
      </trkpt>
      <trkpt lat="43.12132" lon="6.26489">
        <ele>2.5</ele>
        <time>2021-07-20T10:32:44Z</time>
      </trkpt>
      <trkpt lat="43.12132" lon="6.26487">
        <ele>2.5</ele>
        <time>2021-07-20T10:32:45Z</time>
      </trkpt>
      <trkpt lat="43.12132" lon="6.26485">
        <ele>2.5</ele>
        <time>2021-07-20T10:32:46Z</time>
      </trkpt>
      <trkpt lat="43.12132" lon="6.26484">
        <ele>2.5</ele>
        <time>2021-07-20T10:32:47Z</time>
      </trkpt>
      <trkpt lat="43.12132" lon="6.26481">
        <ele>2.5</ele>
        <time>2021-07-20T10:32:48Z</time>
      </trkpt>
      <trkpt lat="43.12132" lon="6.2648">
        <ele>2.5</ele>
        <time>2021-07-20T10:32:49Z</time>
      </trkpt>
      <trkpt lat="43.12132" lon="6.26479">
        <ele>2.5</ele>
        <time>2021-07-20T10:32:50Z</time>
      </trkpt>
      <trkpt lat="43.12132" lon="6.26476">
        <ele>2.5</ele>
        <time>2021-07-20T10:32:52Z</time>
      </trkpt>
      <trkpt lat="43.12132" lon="6.26474">
        <ele>2.6</ele>
        <time>2021-07-20T10:32:53Z</time>
      </trkpt>
      <trkpt lat="43.12131" lon="6.26472">
        <ele>2.6</ele>
        <time>2021-07-20T10:32:54Z</time>
      </trkpt>
      <trkpt lat="43.12131" lon="6.2647">
        <ele>2.6</ele>
        <time>2021-07-20T10:32:56Z</time>
      </trkpt>
      <trkpt lat="43.1213" lon="6.26469">
        <ele>2.6</ele>
        <time>2021-07-20T10:32:57Z</time>
      </trkpt>
      <trkpt lat="43.12129" lon="6.26467">
        <ele>2.6</ele>
        <time>2021-07-20T10:32:58Z</time>
      </trkpt>
      <trkpt lat="43.12129" lon="6.26466">
        <ele>2.6</ele>
        <time>2021-07-20T10:33:00Z</time>
      </trkpt>
      <trkpt lat="43.12128" lon="6.26464">
        <ele>2.6</ele>
        <time>2021-07-20T10:33:01Z</time>
      </trkpt>
      <trkpt lat="43.12128" lon="6.26463">
        <ele>2.6</ele>
        <time>2021-07-20T10:33:02Z</time>
      </trkpt>
      <trkpt lat="43.12128" lon="6.26461">
        <ele>2.6</ele>
        <time>2021-07-20T10:33:03Z</time>
      </trkpt>
      <trkpt lat="43.12127" lon="6.2646">
        <ele>2.6</ele>
        <time>2021-07-20T10:33:04Z</time>
      </trkpt>
      <trkpt lat="43.12127" lon="6.26459">
        <ele>2.6</ele>
        <time>2021-07-20T10:33:05Z</time>
      </trkpt>
      <trkpt lat="43.12126" lon="6.26458">
        <ele>2.6</ele>
        <time>2021-07-20T10:33:06Z</time>
      </trkpt>
      <trkpt lat="43.12125" lon="6.26455">
        <ele>2.6</ele>
        <time>2021-07-20T10:33:08Z</time>
      </trkpt>
      <trkpt lat="43.12125" lon="6.26454">
        <ele>2.6</ele>
        <time>2021-07-20T10:33:09Z</time>
      </trkpt>
      <trkpt lat="43.12125" lon="6.26452">
        <ele>2.6</ele>
        <time>2021-07-20T10:33:11Z</time>
      </trkpt>
      <trkpt lat="43.12125" lon="6.2645">
        <ele>2.6</ele>
        <time>2021-07-20T10:33:12Z</time>
      </trkpt>
      <trkpt lat="43.12125" lon="6.26449">
        <ele>2.6</ele>
        <time>2021-07-20T10:33:13Z</time>
      </trkpt>
      <trkpt lat="43.12125" lon="6.26447">
        <ele>2.6</ele>
        <time>2021-07-20T10:33:14Z</time>
      </trkpt>
      <trkpt lat="43.12124" lon="6.26446">
        <ele>2.6</ele>
        <time>2021-07-20T10:33:15Z</time>
      </trkpt>
      <trkpt lat="43.12124" lon="6.26442">
        <ele>2.6</ele>
        <time>2021-07-20T10:33:17Z</time>
      </trkpt>
      <trkpt lat="43.12124" lon="6.2644">
        <ele>2.6</ele>
        <time>2021-07-20T10:33:18Z</time>
      </trkpt>
      <trkpt lat="43.12124" lon="6.26439">
        <ele>2.6</ele>
        <time>2021-07-20T10:33:19Z</time>
      </trkpt>
      <trkpt lat="43.12124" lon="6.26437">
        <ele>2.6</ele>
        <time>2021-07-20T10:33:20Z</time>
      </trkpt>
      <trkpt lat="43.12123" lon="6.26434">
        <ele>2.6</ele>
        <time>2021-07-20T10:33:22Z</time>
      </trkpt>
      <trkpt lat="43.12123" lon="6.26432">
        <ele>2.6</ele>
        <time>2021-07-20T10:33:23Z</time>
      </trkpt>
      <trkpt lat="43.12124" lon="6.2643">
        <ele>2.7</ele>
        <time>2021-07-20T10:33:24Z</time>
      </trkpt>
      <trkpt lat="43.12125" lon="6.26429">
        <ele>2.7</ele>
        <time>2021-07-20T10:33:25Z</time>
      </trkpt>
      <trkpt lat="43.12126" lon="6.26427">
        <ele>2.7</ele>
        <time>2021-07-20T10:33:27Z</time>
      </trkpt>
      <trkpt lat="43.12128" lon="6.26425">
        <ele>2.7</ele>
        <time>2021-07-20T10:33:28Z</time>
      </trkpt>
      <trkpt lat="43.12129" lon="6.26425">
        <ele>2.7</ele>
        <time>2021-07-20T10:33:29Z</time>
      </trkpt>
      <trkpt lat="43.12129" lon="6.26424">
        <ele>2.7</ele>
        <time>2021-07-20T10:33:30Z</time>
      </trkpt>
      <trkpt lat="43.12131" lon="6.26422">
        <ele>2.7</ele>
        <time>2021-07-20T10:33:32Z</time>
      </trkpt>
      <trkpt lat="43.12132" lon="6.26421">
        <ele>2.7</ele>
        <time>2021-07-20T10:33:33Z</time>
      </trkpt>
      <trkpt lat="43.12133" lon="6.2642">
        <ele>2.7</ele>
        <time>2021-07-20T10:33:34Z</time>
      </trkpt>
      <trkpt lat="43.12134" lon="6.26418">
        <ele>2.8</ele>
        <time>2021-07-20T10:33:36Z</time>
      </trkpt>
      <trkpt lat="43.12134" lon="6.26417">
        <ele>2.8</ele>
        <time>2021-07-20T10:33:37Z</time>
      </trkpt>
      <trkpt lat="43.12135" lon="6.26416">
        <ele>2.8</ele>
        <time>2021-07-20T10:33:38Z</time>
      </trkpt>
      <trkpt lat="43.12135" lon="6.26414">
        <ele>2.8</ele>
        <time>2021-07-20T10:33:39Z</time>
      </trkpt>
      <trkpt lat="43.12135" lon="6.26413">
        <ele>2.8</ele>
        <time>2021-07-20T10:33:40Z</time>
      </trkpt>
      <trkpt lat="43.12135" lon="6.26412">
        <ele>2.8</ele>
        <time>2021-07-20T10:33:42Z</time>
      </trkpt>
      <trkpt lat="43.12136" lon="6.2641">
        <ele>2.8</ele>
        <time>2021-07-20T10:33:43Z</time>
      </trkpt>
      <trkpt lat="43.12136" lon="6.26408">
        <ele>2.8</ele>
        <time>2021-07-20T10:33:45Z</time>
      </trkpt>
      <trkpt lat="43.12136" lon="6.26406">
        <ele>2.9</ele>
        <time>2021-07-20T10:33:46Z</time>
      </trkpt>
      <trkpt lat="43.12136" lon="6.26403">
        <ele>2.9</ele>
        <time>2021-07-20T10:33:48Z</time>
      </trkpt>
      <trkpt lat="43.12136" lon="6.26402">
        <ele>2.9</ele>
        <time>2021-07-20T10:33:49Z</time>
      </trkpt>
      <trkpt lat="43.12136" lon="6.26401">
        <ele>2.9</ele>
        <time>2021-07-20T10:33:50Z</time>
      </trkpt>
      <trkpt lat="43.12137" lon="6.264">
        <ele>2.9</ele>
        <time>2021-07-20T10:33:51Z</time>
      </trkpt>
      <trkpt lat="43.12137" lon="6.26398">
        <ele>2.9</ele>
        <time>2021-07-20T10:33:52Z</time>
      </trkpt>
      <trkpt lat="43.12137" lon="6.26397">
        <ele>2.9</ele>
        <time>2021-07-20T10:33:53Z</time>
      </trkpt>
      <trkpt lat="43.12137" lon="6.26395">
        <ele>2.9</ele>
        <time>2021-07-20T10:33:55Z</time>
      </trkpt>
      <trkpt lat="43.12138" lon="6.26393">
        <ele>2.9</ele>
        <time>2021-07-20T10:33:56Z</time>
      </trkpt>
      <trkpt lat="43.12138" lon="6.26391">
        <ele>2.9</ele>
        <time>2021-07-20T10:33:57Z</time>
      </trkpt>
      <trkpt lat="43.12139" lon="6.26389">
        <ele>2.9</ele>
        <time>2021-07-20T10:33:58Z</time>
      </trkpt>
      <trkpt lat="43.12139" lon="6.26387">
        <ele>3</ele>
        <time>2021-07-20T10:34:00Z</time>
      </trkpt>
      <trkpt lat="43.1214" lon="6.26385">
        <ele>3</ele>
        <time>2021-07-20T10:34:02Z</time>
      </trkpt>
      <trkpt lat="43.1214" lon="6.26384">
        <ele>3</ele>
        <time>2021-07-20T10:34:03Z</time>
      </trkpt>
      <trkpt lat="43.12141" lon="6.26382">
        <ele>3</ele>
        <time>2021-07-20T10:34:04Z</time>
      </trkpt>
      <trkpt lat="43.12142" lon="6.26382">
        <ele>3</ele>
        <time>2021-07-20T10:34:05Z</time>
      </trkpt>
      <trkpt lat="43.12143" lon="6.26381">
        <ele>3</ele>
        <time>2021-07-20T10:34:07Z</time>
      </trkpt>
      <trkpt lat="43.12144" lon="6.26379">
        <ele>3</ele>
        <time>2021-07-20T10:34:08Z</time>
      </trkpt>
      <trkpt lat="43.12144" lon="6.26378">
        <ele>3</ele>
        <time>2021-07-20T10:34:09Z</time>
      </trkpt>
      <trkpt lat="43.12144" lon="6.26375">
        <ele>2.9</ele>
        <time>2021-07-20T10:34:10Z</time>
      </trkpt>
      <trkpt lat="43.12144" lon="6.26374">
        <ele>2.9</ele>
        <time>2021-07-20T10:34:11Z</time>
      </trkpt>
      <trkpt lat="43.12144" lon="6.26373">
        <ele>2.9</ele>
        <time>2021-07-20T10:34:12Z</time>
      </trkpt>
      <trkpt lat="43.12144" lon="6.26369">
        <ele>2.9</ele>
        <time>2021-07-20T10:34:13Z</time>
      </trkpt>
      <trkpt lat="43.12144" lon="6.26368">
        <ele>2.9</ele>
        <time>2021-07-20T10:34:15Z</time>
      </trkpt>
      <trkpt lat="43.12144" lon="6.26366">
        <ele>2.9</ele>
        <time>2021-07-20T10:34:16Z</time>
      </trkpt>
      <trkpt lat="43.12144" lon="6.26365">
        <ele>2.9</ele>
        <time>2021-07-20T10:34:18Z</time>
      </trkpt>
      <trkpt lat="43.12145" lon="6.26363">
        <ele>2.9</ele>
        <time>2021-07-20T10:34:19Z</time>
      </trkpt>
      <trkpt lat="43.12145" lon="6.26361">
        <ele>2.9</ele>
        <time>2021-07-20T10:34:20Z</time>
      </trkpt>
      <trkpt lat="43.12145" lon="6.26358">
        <ele>2.8</ele>
        <time>2021-07-20T10:34:22Z</time>
      </trkpt>
      <trkpt lat="43.12144" lon="6.26356">
        <ele>2.8</ele>
        <time>2021-07-20T10:34:24Z</time>
      </trkpt>
      <trkpt lat="43.12144" lon="6.26355">
        <ele>2.8</ele>
        <time>2021-07-20T10:34:25Z</time>
      </trkpt>
      <trkpt lat="43.12144" lon="6.26352">
        <ele>2.8</ele>
        <time>2021-07-20T10:34:27Z</time>
      </trkpt>
      <trkpt lat="43.12144" lon="6.26351">
        <ele>2.8</ele>
        <time>2021-07-20T10:34:28Z</time>
      </trkpt>
      <trkpt lat="43.12144" lon="6.2635">
        <ele>2.8</ele>
        <time>2021-07-20T10:34:29Z</time>
      </trkpt>
      <trkpt lat="43.12144" lon="6.26348">
        <ele>2.8</ele>
        <time>2021-07-20T10:34:30Z</time>
      </trkpt>
      <trkpt lat="43.12144" lon="6.26346">
        <ele>2.8</ele>
        <time>2021-07-20T10:34:32Z</time>
      </trkpt>
      <trkpt lat="43.12143" lon="6.26344">
        <ele>2.7</ele>
        <time>2021-07-20T10:34:33Z</time>
      </trkpt>
      <trkpt lat="43.12144" lon="6.26341">
        <ele>2.7</ele>
        <time>2021-07-20T10:34:34Z</time>
      </trkpt>
      <trkpt lat="43.12144" lon="6.2634">
        <ele>2.7</ele>
        <time>2021-07-20T10:34:35Z</time>
      </trkpt>
      <trkpt lat="43.12145" lon="6.26335">
        <ele>2.7</ele>
        <time>2021-07-20T10:34:37Z</time>
      </trkpt>
      <trkpt lat="43.12145" lon="6.26334">
        <ele>2.7</ele>
        <time>2021-07-20T10:34:38Z</time>
      </trkpt>
      <trkpt lat="43.12145" lon="6.26332">
        <ele>2.7</ele>
        <time>2021-07-20T10:34:39Z</time>
      </trkpt>
      <trkpt lat="43.12146" lon="6.26331">
        <ele>2.6</ele>
        <time>2021-07-20T10:34:40Z</time>
      </trkpt>
      <trkpt lat="43.12146" lon="6.26329">
        <ele>2.6</ele>
        <time>2021-07-20T10:34:42Z</time>
      </trkpt>
      <trkpt lat="43.12147" lon="6.26327">
        <ele>2.6</ele>
        <time>2021-07-20T10:34:43Z</time>
      </trkpt>
      <trkpt lat="43.12147" lon="6.26326">
        <ele>2.6</ele>
        <time>2021-07-20T10:34:44Z</time>
      </trkpt>
      <trkpt lat="43.12148" lon="6.26324">
        <ele>2.6</ele>
        <time>2021-07-20T10:34:46Z</time>
      </trkpt>
      <trkpt lat="43.12149" lon="6.26323">
        <ele>2.6</ele>
        <time>2021-07-20T10:34:47Z</time>
      </trkpt>
      <trkpt lat="43.12149" lon="6.26321">
        <ele>2.6</ele>
        <time>2021-07-20T10:34:48Z</time>
      </trkpt>
      <trkpt lat="43.12149" lon="6.2632">
        <ele>2.6</ele>
        <time>2021-07-20T10:34:49Z</time>
      </trkpt>
      <trkpt lat="43.1215" lon="6.26318">
        <ele>2.6</ele>
        <time>2021-07-20T10:34:50Z</time>
      </trkpt>
      <trkpt lat="43.12149" lon="6.26316">
        <ele>2.6</ele>
        <time>2021-07-20T10:34:52Z</time>
      </trkpt>
      <trkpt lat="43.12149" lon="6.26315">
        <ele>2.6</ele>
        <time>2021-07-20T10:34:53Z</time>
      </trkpt>
      <trkpt lat="43.12149" lon="6.26313">
        <ele>2.6</ele>
        <time>2021-07-20T10:34:54Z</time>
      </trkpt>
      <trkpt lat="43.12149" lon="6.26312">
        <ele>2.6</ele>
        <time>2021-07-20T10:34:55Z</time>
      </trkpt>
      <trkpt lat="43.1215" lon="6.2631">
        <ele>2.6</ele>
        <time>2021-07-20T10:34:56Z</time>
      </trkpt>
      <trkpt lat="43.1215" lon="6.26308">
        <ele>2.6</ele>
        <time>2021-07-20T10:34:57Z</time>
      </trkpt>
      <trkpt lat="43.12149" lon="6.26307">
        <ele>2.6</ele>
        <time>2021-07-20T10:34:59Z</time>
      </trkpt>
      <trkpt lat="43.12149" lon="6.26305">
        <ele>2.6</ele>
        <time>2021-07-20T10:35:00Z</time>
      </trkpt>
      <trkpt lat="43.1215" lon="6.26303">
        <ele>2.6</ele>
        <time>2021-07-20T10:35:01Z</time>
      </trkpt>
      <trkpt lat="43.1215" lon="6.26302">
        <ele>2.6</ele>
        <time>2021-07-20T10:35:02Z</time>
      </trkpt>
      <trkpt lat="43.1215" lon="6.263">
        <ele>2.7</ele>
        <time>2021-07-20T10:35:03Z</time>
      </trkpt>
      <trkpt lat="43.1215" lon="6.26297">
        <ele>2.7</ele>
        <time>2021-07-20T10:35:04Z</time>
      </trkpt>
      <trkpt lat="43.1215" lon="6.26296">
        <ele>2.7</ele>
        <time>2021-07-20T10:35:05Z</time>
      </trkpt>
      <trkpt lat="43.1215" lon="6.26295">
        <ele>2.7</ele>
        <time>2021-07-20T10:35:06Z</time>
      </trkpt>
      <trkpt lat="43.12149" lon="6.26292">
        <ele>2.7</ele>
        <time>2021-07-20T10:35:08Z</time>
      </trkpt>
      <trkpt lat="43.1215" lon="6.26291">
        <ele>2.7</ele>
        <time>2021-07-20T10:35:09Z</time>
      </trkpt>
      <trkpt lat="43.12151" lon="6.26289">
        <ele>2.7</ele>
        <time>2021-07-20T10:35:10Z</time>
      </trkpt>
      <trkpt lat="43.12152" lon="6.26288">
        <ele>2.7</ele>
        <time>2021-07-20T10:35:11Z</time>
      </trkpt>
      <trkpt lat="43.12152" lon="6.26287">
        <ele>2.7</ele>
        <time>2021-07-20T10:35:12Z</time>
      </trkpt>
      <trkpt lat="43.12154" lon="6.26284">
        <ele>2.7</ele>
        <time>2021-07-20T10:35:13Z</time>
      </trkpt>
      <trkpt lat="43.12155" lon="6.26283">
        <ele>2.7</ele>
        <time>2021-07-20T10:35:15Z</time>
      </trkpt>
      <trkpt lat="43.12155" lon="6.26282">
        <ele>2.7</ele>
        <time>2021-07-20T10:35:16Z</time>
      </trkpt>
      <trkpt lat="43.12156" lon="6.2628">
        <ele>2.7</ele>
        <time>2021-07-20T10:35:17Z</time>
      </trkpt>
      <trkpt lat="43.12156" lon="6.26279">
        <ele>2.7</ele>
        <time>2021-07-20T10:35:18Z</time>
      </trkpt>
      <trkpt lat="43.12156" lon="6.26278">
        <ele>2.7</ele>
        <time>2021-07-20T10:35:19Z</time>
      </trkpt>
      <trkpt lat="43.12156" lon="6.26276">
        <ele>2.7</ele>
        <time>2021-07-20T10:35:21Z</time>
      </trkpt>
      <trkpt lat="43.12156" lon="6.26274">
        <ele>2.7</ele>
        <time>2021-07-20T10:35:22Z</time>
      </trkpt>
      <trkpt lat="43.12156" lon="6.26272">
        <ele>2.6</ele>
        <time>2021-07-20T10:35:24Z</time>
      </trkpt>
      <trkpt lat="43.12156" lon="6.2627">
        <ele>2.6</ele>
        <time>2021-07-20T10:35:25Z</time>
      </trkpt>
      <trkpt lat="43.12156" lon="6.26269">
        <ele>2.6</ele>
        <time>2021-07-20T10:35:26Z</time>
      </trkpt>
      <trkpt lat="43.12156" lon="6.26267">
        <ele>2.6</ele>
        <time>2021-07-20T10:35:28Z</time>
      </trkpt>
      <trkpt lat="43.12157" lon="6.26266">
        <ele>2.6</ele>
        <time>2021-07-20T10:35:29Z</time>
      </trkpt>
      <trkpt lat="43.12157" lon="6.26266">
        <ele>2.6</ele>
        <time>2021-07-20T10:35:31Z</time>
      </trkpt>
      <trkpt lat="43.12157" lon="6.26265">
        <ele>2.6</ele>
        <time>2021-07-20T10:35:32Z</time>
      </trkpt>
      <trkpt lat="43.12157" lon="6.26265">
        <ele>2.6</ele>
        <time>2021-07-20T10:35:34Z</time>
      </trkpt>
      <trkpt lat="43.12157" lon="6.26265">
        <ele>2.6</ele>
        <time>2021-07-20T10:35:35Z</time>
      </trkpt>
      <trkpt lat="43.12157" lon="6.26265">
        <ele>2.6</ele>
        <time>2021-07-20T10:35:36Z</time>
      </trkpt>
      <trkpt lat="43.12157" lon="6.26265">
        <ele>2.6</ele>
        <time>2021-07-20T10:35:38Z</time>
      </trkpt>
      <trkpt lat="43.12157" lon="6.26265">
        <ele>2.6</ele>
        <time>2021-07-20T10:35:39Z</time>
      </trkpt>
      <trkpt lat="43.12157" lon="6.26265">
        <ele>2.6</ele>
        <time>2021-07-20T10:35:40Z</time>
      </trkpt>
      <trkpt lat="43.12157" lon="6.26265">
        <ele>2.6</ele>
        <time>2021-07-20T10:35:41Z</time>
      </trkpt>
      <trkpt lat="43.12157" lon="6.26266">
        <ele>2.6</ele>
        <time>2021-07-20T10:35:43Z</time>
      </trkpt>
      <trkpt lat="43.12157" lon="6.26265">
        <ele>2.6</ele>
        <time>2021-07-20T10:35:44Z</time>
      </trkpt>
      <trkpt lat="43.12157" lon="6.26265">
        <ele>2.6</ele>
        <time>2021-07-20T10:35:46Z</time>
      </trkpt>
      <trkpt lat="43.12157" lon="6.26265">
        <ele>2.6</ele>
        <time>2021-07-20T10:35:47Z</time>
      </trkpt>
      <trkpt lat="43.12157" lon="6.26265">
        <ele>2.6</ele>
        <time>2021-07-20T10:35:48Z</time>
      </trkpt>
      <trkpt lat="43.12157" lon="6.26265">
        <ele>2.6</ele>
        <time>2021-07-20T10:35:49Z</time>
      </trkpt>
      <trkpt lat="43.12157" lon="6.26264">
        <ele>2.6</ele>
        <time>2021-07-20T10:35:50Z</time>
      </trkpt>
      <trkpt lat="43.12157" lon="6.26264">
        <ele>2.6</ele>
        <time>2021-07-20T10:35:51Z</time>
      </trkpt>
      <trkpt lat="43.12157" lon="6.26264">
        <ele>2.6</ele>
        <time>2021-07-20T10:35:53Z</time>
      </trkpt>
      <trkpt lat="43.12157" lon="6.26265">
        <ele>2.6</ele>
        <time>2021-07-20T10:35:54Z</time>
      </trkpt>
      <trkpt lat="43.12157" lon="6.26265">
        <ele>2.6</ele>
        <time>2021-07-20T10:35:56Z</time>
      </trkpt>
      <trkpt lat="43.12158" lon="6.26265">
        <ele>2.6</ele>
        <time>2021-07-20T10:35:58Z</time>
      </trkpt>
      <trkpt lat="43.12158" lon="6.26265">
        <ele>2.6</ele>
        <time>2021-07-20T10:35:59Z</time>
      </trkpt>
      <trkpt lat="43.12158" lon="6.26265">
        <ele>2.6</ele>
        <time>2021-07-20T10:36:00Z</time>
      </trkpt>
      <trkpt lat="43.12158" lon="6.26265">
        <ele>2.6</ele>
        <time>2021-07-20T10:36:01Z</time>
      </trkpt>
      <trkpt lat="43.12158" lon="6.26265">
        <ele>2.6</ele>
        <time>2021-07-20T10:36:03Z</time>
      </trkpt>
      <trkpt lat="43.12159" lon="6.26265">
        <ele>2.6</ele>
        <time>2021-07-20T10:36:04Z</time>
      </trkpt>
      <trkpt lat="43.12159" lon="6.26265">
        <ele>2.6</ele>
        <time>2021-07-20T10:36:05Z</time>
      </trkpt>
      <trkpt lat="43.12159" lon="6.26265">
        <ele>2.6</ele>
        <time>2021-07-20T10:36:06Z</time>
      </trkpt>
      <trkpt lat="43.12159" lon="6.26265">
        <ele>2.6</ele>
        <time>2021-07-20T10:36:08Z</time>
      </trkpt>
      <trkpt lat="43.12159" lon="6.26265">
        <ele>2.6</ele>
        <time>2021-07-20T10:36:09Z</time>
      </trkpt>
      <trkpt lat="43.12159" lon="6.26265">
        <ele>2.6</ele>
        <time>2021-07-20T10:36:10Z</time>
      </trkpt>
      <trkpt lat="43.12159" lon="6.26265">
        <ele>2.6</ele>
        <time>2021-07-20T10:36:12Z</time>
      </trkpt>
      <trkpt lat="43.12159" lon="6.26265">
        <ele>2.6</ele>
        <time>2021-07-20T10:36:14Z</time>
      </trkpt>
      <trkpt lat="43.1216" lon="6.26265">
        <ele>2.6</ele>
        <time>2021-07-20T10:36:15Z</time>
      </trkpt>
      <trkpt lat="43.1216" lon="6.26264">
        <ele>2.6</ele>
        <time>2021-07-20T10:36:16Z</time>
      </trkpt>
      <trkpt lat="43.1216" lon="6.26264">
        <ele>2.6</ele>
        <time>2021-07-20T10:36:18Z</time>
      </trkpt>
      <trkpt lat="43.1216" lon="6.26263">
        <ele>2.6</ele>
        <time>2021-07-20T10:36:19Z</time>
      </trkpt>
      <trkpt lat="43.1216" lon="6.26263">
        <ele>2.6</ele>
        <time>2021-07-20T10:36:20Z</time>
      </trkpt>
      <trkpt lat="43.1216" lon="6.26263">
        <ele>2.6</ele>
        <time>2021-07-20T10:36:21Z</time>
      </trkpt>
      <trkpt lat="43.1216" lon="6.26261">
        <ele>2.6</ele>
        <time>2021-07-20T10:36:23Z</time>
      </trkpt>
      <trkpt lat="43.1216" lon="6.26261">
        <ele>2.6</ele>
        <time>2021-07-20T10:36:24Z</time>
      </trkpt>
      <trkpt lat="43.1216" lon="6.2626">
        <ele>2.6</ele>
        <time>2021-07-20T10:36:26Z</time>
      </trkpt>
      <trkpt lat="43.12159" lon="6.2626">
        <ele>2.6</ele>
        <time>2021-07-20T10:36:27Z</time>
      </trkpt>
      <trkpt lat="43.12159" lon="6.26259">
        <ele>2.6</ele>
        <time>2021-07-20T10:36:29Z</time>
      </trkpt>
      <trkpt lat="43.12159" lon="6.26259">
        <ele>2.6</ele>
        <time>2021-07-20T10:36:31Z</time>
      </trkpt>
      <trkpt lat="43.12159" lon="6.26259">
        <ele>2.6</ele>
        <time>2021-07-20T10:36:33Z</time>
      </trkpt>
      <trkpt lat="43.12159" lon="6.26259">
        <ele>2.6</ele>
        <time>2021-07-20T10:36:34Z</time>
      </trkpt>
      <trkpt lat="43.12159" lon="6.26258">
        <ele>2.6</ele>
        <time>2021-07-20T10:36:35Z</time>
      </trkpt>
      <trkpt lat="43.12159" lon="6.26258">
        <ele>2.6</ele>
        <time>2021-07-20T10:36:36Z</time>
      </trkpt>
      <trkpt lat="43.12159" lon="6.26258">
        <ele>2.6</ele>
        <time>2021-07-20T10:36:38Z</time>
      </trkpt>
      <trkpt lat="43.1216" lon="6.26258">
        <ele>2.6</ele>
        <time>2021-07-20T10:36:39Z</time>
      </trkpt>
      <trkpt lat="43.1216" lon="6.26257">
        <ele>2.6</ele>
        <time>2021-07-20T10:36:40Z</time>
      </trkpt>
      <trkpt lat="43.1216" lon="6.26256">
        <ele>2.6</ele>
        <time>2021-07-20T10:36:42Z</time>
      </trkpt>
      <trkpt lat="43.1216" lon="6.26256">
        <ele>2.6</ele>
        <time>2021-07-20T10:36:43Z</time>
      </trkpt>
      <trkpt lat="43.1216" lon="6.26255">
        <ele>2.6</ele>
        <time>2021-07-20T10:36:44Z</time>
      </trkpt>
      <trkpt lat="43.12159" lon="6.26254">
        <ele>2.6</ele>
        <time>2021-07-20T10:36:46Z</time>
      </trkpt>
      <trkpt lat="43.12159" lon="6.26253">
        <ele>2.6</ele>
        <time>2021-07-20T10:36:48Z</time>
      </trkpt>
      <trkpt lat="43.12159" lon="6.26252">
        <ele>2.6</ele>
        <time>2021-07-20T10:36:50Z</time>
      </trkpt>
      <trkpt lat="43.12159" lon="6.26251">
        <ele>2.6</ele>
        <time>2021-07-20T10:36:51Z</time>
      </trkpt>
      <trkpt lat="43.12159" lon="6.26251">
        <ele>2.6</ele>
        <time>2021-07-20T10:36:53Z</time>
      </trkpt>
      <trkpt lat="43.12159" lon="6.26251">
        <ele>2.6</ele>
        <time>2021-07-20T10:36:54Z</time>
      </trkpt>
      <trkpt lat="43.12159" lon="6.26251">
        <ele>2.6</ele>
        <time>2021-07-20T10:36:56Z</time>
      </trkpt>
      <trkpt lat="43.12159" lon="6.2625">
        <ele>2.6</ele>
        <time>2021-07-20T10:36:58Z</time>
      </trkpt>
      <trkpt lat="43.12159" lon="6.2625">
        <ele>2.6</ele>
        <time>2021-07-20T10:36:59Z</time>
      </trkpt>
      <trkpt lat="43.12159" lon="6.2625">
        <ele>2.6</ele>
        <time>2021-07-20T10:37:00Z</time>
      </trkpt>
      <trkpt lat="43.12159" lon="6.26251">
        <ele>2.6</ele>
        <time>2021-07-20T10:37:02Z</time>
      </trkpt>
      <trkpt lat="43.12159" lon="6.26251">
        <ele>2.6</ele>
        <time>2021-07-20T10:37:04Z</time>
      </trkpt>
      <trkpt lat="43.12159" lon="6.26251">
        <ele>2.6</ele>
        <time>2021-07-20T10:37:05Z</time>
      </trkpt>
      <trkpt lat="43.12159" lon="6.26251">
        <ele>2.6</ele>
        <time>2021-07-20T10:37:06Z</time>
      </trkpt>
      <trkpt lat="43.12159" lon="6.26251">
        <ele>2.6</ele>
        <time>2021-07-20T10:37:08Z</time>
      </trkpt>
      <trkpt lat="43.12159" lon="6.26251">
        <ele>2.6</ele>
        <time>2021-07-20T10:37:09Z</time>
      </trkpt>
      <trkpt lat="43.12159" lon="6.26251">
        <ele>2.6</ele>
        <time>2021-07-20T10:37:10Z</time>
      </trkpt>
      <trkpt lat="43.12159" lon="6.2625">
        <ele>2.6</ele>
        <time>2021-07-20T10:37:11Z</time>
      </trkpt>
      <trkpt lat="43.12159" lon="6.2625">
        <ele>2.6</ele>
        <time>2021-07-20T10:37:12Z</time>
      </trkpt>
      <trkpt lat="43.12159" lon="6.26249">
        <ele>2.6</ele>
        <time>2021-07-20T10:37:14Z</time>
      </trkpt>
      <trkpt lat="43.12159" lon="6.26249">
        <ele>2.6</ele>
        <time>2021-07-20T10:37:16Z</time>
      </trkpt>
      <trkpt lat="43.12159" lon="6.2625">
        <ele>2.6</ele>
        <time>2021-07-20T10:37:17Z</time>
      </trkpt>
      <trkpt lat="43.12159" lon="6.26249">
        <ele>2.6</ele>
        <time>2021-07-20T10:37:18Z</time>
      </trkpt>
      <trkpt lat="43.12159" lon="6.26249">
        <ele>2.6</ele>
        <time>2021-07-20T10:37:20Z</time>
      </trkpt>
      <trkpt lat="43.12159" lon="6.26249">
        <ele>2.6</ele>
        <time>2021-07-20T10:37:21Z</time>
      </trkpt>
      <trkpt lat="43.12159" lon="6.26249">
        <ele>2.6</ele>
        <time>2021-07-20T10:37:22Z</time>
      </trkpt>
      <trkpt lat="43.12159" lon="6.26248">
        <ele>2.6</ele>
        <time>2021-07-20T10:37:24Z</time>
      </trkpt>
      <trkpt lat="43.12159" lon="6.26248">
        <ele>2.6</ele>
        <time>2021-07-20T10:37:25Z</time>
      </trkpt>
      <trkpt lat="43.12159" lon="6.26248">
        <ele>2.6</ele>
        <time>2021-07-20T10:37:26Z</time>
      </trkpt>
      <trkpt lat="43.12159" lon="6.26248">
        <ele>2.6</ele>
        <time>2021-07-20T10:37:28Z</time>
      </trkpt>
      <trkpt lat="43.12159" lon="6.26248">
        <ele>2.6</ele>
        <time>2021-07-20T10:37:29Z</time>
      </trkpt>
      <trkpt lat="43.12159" lon="6.26248">
        <ele>2.6</ele>
        <time>2021-07-20T10:37:30Z</time>
      </trkpt>
      <trkpt lat="43.12159" lon="6.26248">
        <ele>2.6</ele>
        <time>2021-07-20T10:37:32Z</time>
      </trkpt>
      <trkpt lat="43.12159" lon="6.26248">
        <ele>2.6</ele>
        <time>2021-07-20T10:37:34Z</time>
      </trkpt>
      <trkpt lat="43.12159" lon="6.26248">
        <ele>2.6</ele>
        <time>2021-07-20T10:37:35Z</time>
      </trkpt>
      <trkpt lat="43.12159" lon="6.26248">
        <ele>2.6</ele>
        <time>2021-07-20T10:37:36Z</time>
      </trkpt>
      <trkpt lat="43.12159" lon="6.26248">
        <ele>2.6</ele>
        <time>2021-07-20T10:37:38Z</time>
      </trkpt>
      <trkpt lat="43.12159" lon="6.26248">
        <ele>2.6</ele>
        <time>2021-07-20T10:37:39Z</time>
      </trkpt>
      <trkpt lat="43.12159" lon="6.26248">
        <ele>2.6</ele>
        <time>2021-07-20T10:37:40Z</time>
      </trkpt>
      <trkpt lat="43.12159" lon="6.26248">
        <ele>2.6</ele>
        <time>2021-07-20T10:37:42Z</time>
      </trkpt>
      <trkpt lat="43.12159" lon="6.26248">
        <ele>2.6</ele>
        <time>2021-07-20T10:37:44Z</time>
      </trkpt>
      <trkpt lat="43.12159" lon="6.26248">
        <ele>2.6</ele>
        <time>2021-07-20T10:37:45Z</time>
      </trkpt>
      <trkpt lat="43.12159" lon="6.26248">
        <ele>2.6</ele>
        <time>2021-07-20T10:37:46Z</time>
      </trkpt>
      <trkpt lat="43.12159" lon="6.26248">
        <ele>2.6</ele>
        <time>2021-07-20T10:37:48Z</time>
      </trkpt>
      <trkpt lat="43.12159" lon="6.26247">
        <ele>2.6</ele>
        <time>2021-07-20T10:37:50Z</time>
      </trkpt>
      <trkpt lat="43.12158" lon="6.26246">
        <ele>2.6</ele>
        <time>2021-07-20T10:37:51Z</time>
      </trkpt>
      <trkpt lat="43.12157" lon="6.26244">
        <ele>2.6</ele>
        <time>2021-07-20T10:37:53Z</time>
      </trkpt>
      <trkpt lat="43.12157" lon="6.26242">
        <ele>2.6</ele>
        <time>2021-07-20T10:37:54Z</time>
      </trkpt>
      <trkpt lat="43.12157" lon="6.2624">
        <ele>2.6</ele>
        <time>2021-07-20T10:37:56Z</time>
      </trkpt>
      <trkpt lat="43.12157" lon="6.26237">
        <ele>2.6</ele>
        <time>2021-07-20T10:37:58Z</time>
      </trkpt>
      <trkpt lat="43.12157" lon="6.26236">
        <ele>2.7</ele>
        <time>2021-07-20T10:37:59Z</time>
      </trkpt>
      <trkpt lat="43.12156" lon="6.26233">
        <ele>2.7</ele>
        <time>2021-07-20T10:38:01Z</time>
      </trkpt>
      <trkpt lat="43.12156" lon="6.2623">
        <ele>2.7</ele>
        <time>2021-07-20T10:38:03Z</time>
      </trkpt>
      <trkpt lat="43.12156" lon="6.26229">
        <ele>2.7</ele>
        <time>2021-07-20T10:38:04Z</time>
      </trkpt>
      <trkpt lat="43.12156" lon="6.26228">
        <ele>2.7</ele>
        <time>2021-07-20T10:38:05Z</time>
      </trkpt>
      <trkpt lat="43.12155" lon="6.26226">
        <ele>2.7</ele>
        <time>2021-07-20T10:38:06Z</time>
      </trkpt>
      <trkpt lat="43.12155" lon="6.26224">
        <ele>2.7</ele>
        <time>2021-07-20T10:38:08Z</time>
      </trkpt>
      <trkpt lat="43.12155" lon="6.26223">
        <ele>2.7</ele>
        <time>2021-07-20T10:38:09Z</time>
      </trkpt>
      <trkpt lat="43.12154" lon="6.2622">
        <ele>2.7</ele>
        <time>2021-07-20T10:38:11Z</time>
      </trkpt>
      <trkpt lat="43.12153" lon="6.26219">
        <ele>2.7</ele>
        <time>2021-07-20T10:38:12Z</time>
      </trkpt>
      <trkpt lat="43.12153" lon="6.26217">
        <ele>2.7</ele>
        <time>2021-07-20T10:38:14Z</time>
      </trkpt>
      <trkpt lat="43.12152" lon="6.26215">
        <ele>2.7</ele>
        <time>2021-07-20T10:38:15Z</time>
      </trkpt>
      <trkpt lat="43.12151" lon="6.26213">
        <ele>2.7</ele>
        <time>2021-07-20T10:38:17Z</time>
      </trkpt>
      <trkpt lat="43.12151" lon="6.26212">
        <ele>2.7</ele>
        <time>2021-07-20T10:38:18Z</time>
      </trkpt>
      <trkpt lat="43.1215" lon="6.2621">
        <ele>2.7</ele>
        <time>2021-07-20T10:38:20Z</time>
      </trkpt>
      <trkpt lat="43.12149" lon="6.26206">
        <ele>2.7</ele>
        <time>2021-07-20T10:38:22Z</time>
      </trkpt>
      <trkpt lat="43.12149" lon="6.26204">
        <ele>2.7</ele>
        <time>2021-07-20T10:38:23Z</time>
      </trkpt>
      <trkpt lat="43.12149" lon="6.26202">
        <ele>2.7</ele>
        <time>2021-07-20T10:38:25Z</time>
      </trkpt>
      <trkpt lat="43.12148" lon="6.262">
        <ele>2.7</ele>
        <time>2021-07-20T10:38:26Z</time>
      </trkpt>
      <trkpt lat="43.12148" lon="6.26198">
        <ele>2.7</ele>
        <time>2021-07-20T10:38:27Z</time>
      </trkpt>
      <trkpt lat="43.12148" lon="6.26197">
        <ele>2.7</ele>
        <time>2021-07-20T10:38:28Z</time>
      </trkpt>
      <trkpt lat="43.12147" lon="6.26195">
        <ele>2.7</ele>
        <time>2021-07-20T10:38:29Z</time>
      </trkpt>
      <trkpt lat="43.12147" lon="6.26194">
        <ele>2.7</ele>
        <time>2021-07-20T10:38:31Z</time>
      </trkpt>
      <trkpt lat="43.12146" lon="6.26193">
        <ele>2.7</ele>
        <time>2021-07-20T10:38:32Z</time>
      </trkpt>
      <trkpt lat="43.12146" lon="6.26192">
        <ele>2.7</ele>
        <time>2021-07-20T10:38:33Z</time>
      </trkpt>
      <trkpt lat="43.12146" lon="6.26191">
        <ele>2.7</ele>
        <time>2021-07-20T10:38:34Z</time>
      </trkpt>
      <trkpt lat="43.12145" lon="6.26189">
        <ele>2.7</ele>
        <time>2021-07-20T10:38:35Z</time>
      </trkpt>
      <trkpt lat="43.12145" lon="6.26188">
        <ele>2.7</ele>
        <time>2021-07-20T10:38:36Z</time>
      </trkpt>
      <trkpt lat="43.12144" lon="6.26186">
        <ele>2.7</ele>
        <time>2021-07-20T10:38:37Z</time>
      </trkpt>
      <trkpt lat="43.12144" lon="6.26185">
        <ele>2.7</ele>
        <time>2021-07-20T10:38:38Z</time>
      </trkpt>
      <trkpt lat="43.12143" lon="6.26183">
        <ele>2.7</ele>
        <time>2021-07-20T10:38:39Z</time>
      </trkpt>
      <trkpt lat="43.12143" lon="6.26182">
        <ele>2.7</ele>
        <time>2021-07-20T10:38:40Z</time>
      </trkpt>
      <trkpt lat="43.12142" lon="6.26181">
        <ele>2.6</ele>
        <time>2021-07-20T10:38:41Z</time>
      </trkpt>
      <trkpt lat="43.12142" lon="6.26179">
        <ele>2.6</ele>
        <time>2021-07-20T10:38:43Z</time>
      </trkpt>
      <trkpt lat="43.12141" lon="6.26178">
        <ele>2.6</ele>
        <time>2021-07-20T10:38:44Z</time>
      </trkpt>
      <trkpt lat="43.12141" lon="6.26176">
        <ele>2.6</ele>
        <time>2021-07-20T10:38:45Z</time>
      </trkpt>
      <trkpt lat="43.1214" lon="6.26174">
        <ele>2.6</ele>
        <time>2021-07-20T10:38:46Z</time>
      </trkpt>
      <trkpt lat="43.1214" lon="6.26173">
        <ele>2.6</ele>
        <time>2021-07-20T10:38:47Z</time>
      </trkpt>
      <trkpt lat="43.12139" lon="6.26171">
        <ele>2.6</ele>
        <time>2021-07-20T10:38:48Z</time>
      </trkpt>
      <trkpt lat="43.12139" lon="6.26168">
        <ele>2.6</ele>
        <time>2021-07-20T10:38:50Z</time>
      </trkpt>
      <trkpt lat="43.12139" lon="6.26167">
        <ele>2.6</ele>
        <time>2021-07-20T10:38:51Z</time>
      </trkpt>
      <trkpt lat="43.12138" lon="6.26164">
        <ele>2.6</ele>
        <time>2021-07-20T10:38:52Z</time>
      </trkpt>
      <trkpt lat="43.12138" lon="6.26163">
        <ele>2.6</ele>
        <time>2021-07-20T10:38:53Z</time>
      </trkpt>
      <trkpt lat="43.12138" lon="6.26161">
        <ele>2.6</ele>
        <time>2021-07-20T10:38:54Z</time>
      </trkpt>
      <trkpt lat="43.12137" lon="6.26159">
        <ele>2.6</ele>
        <time>2021-07-20T10:38:55Z</time>
      </trkpt>
      <trkpt lat="43.12137" lon="6.26157">
        <ele>2.6</ele>
        <time>2021-07-20T10:38:57Z</time>
      </trkpt>
      <trkpt lat="43.12137" lon="6.26155">
        <ele>2.6</ele>
        <time>2021-07-20T10:38:58Z</time>
      </trkpt>
      <trkpt lat="43.12136" lon="6.26154">
        <ele>2.6</ele>
        <time>2021-07-20T10:38:59Z</time>
      </trkpt>
      <trkpt lat="43.12136" lon="6.26151">
        <ele>2.6</ele>
        <time>2021-07-20T10:39:00Z</time>
      </trkpt>
      <trkpt lat="43.12136" lon="6.26149">
        <ele>2.6</ele>
        <time>2021-07-20T10:39:02Z</time>
      </trkpt>
      <trkpt lat="43.12135" lon="6.26147">
        <ele>2.6</ele>
        <time>2021-07-20T10:39:03Z</time>
      </trkpt>
      <trkpt lat="43.12135" lon="6.26145">
        <ele>2.7</ele>
        <time>2021-07-20T10:39:04Z</time>
      </trkpt>
      <trkpt lat="43.12134" lon="6.26142">
        <ele>2.7</ele>
        <time>2021-07-20T10:39:06Z</time>
      </trkpt>
      <trkpt lat="43.12134" lon="6.2614">
        <ele>2.7</ele>
        <time>2021-07-20T10:39:07Z</time>
      </trkpt>
      <trkpt lat="43.12133" lon="6.26139">
        <ele>2.7</ele>
        <time>2021-07-20T10:39:08Z</time>
      </trkpt>
      <trkpt lat="43.12133" lon="6.26137">
        <ele>2.7</ele>
        <time>2021-07-20T10:39:09Z</time>
      </trkpt>
      <trkpt lat="43.12132" lon="6.26136">
        <ele>2.7</ele>
        <time>2021-07-20T10:39:10Z</time>
      </trkpt>
      <trkpt lat="43.12131" lon="6.26133">
        <ele>2.7</ele>
        <time>2021-07-20T10:39:12Z</time>
      </trkpt>
      <trkpt lat="43.1213" lon="6.26131">
        <ele>2.7</ele>
        <time>2021-07-20T10:39:13Z</time>
      </trkpt>
      <trkpt lat="43.1213" lon="6.2613">
        <ele>2.7</ele>
        <time>2021-07-20T10:39:14Z</time>
      </trkpt>
      <trkpt lat="43.12129" lon="6.26128">
        <ele>2.7</ele>
        <time>2021-07-20T10:39:15Z</time>
      </trkpt>
      <trkpt lat="43.12128" lon="6.26126">
        <ele>2.6</ele>
        <time>2021-07-20T10:39:17Z</time>
      </trkpt>
      <trkpt lat="43.12128" lon="6.26124">
        <ele>2.6</ele>
        <time>2021-07-20T10:39:18Z</time>
      </trkpt>
      <trkpt lat="43.12127" lon="6.26122">
        <ele>2.6</ele>
        <time>2021-07-20T10:39:19Z</time>
      </trkpt>
      <trkpt lat="43.12127" lon="6.26121">
        <ele>2.6</ele>
        <time>2021-07-20T10:39:21Z</time>
      </trkpt>
      <trkpt lat="43.12127" lon="6.2612">
        <ele>2.6</ele>
        <time>2021-07-20T10:39:22Z</time>
      </trkpt>
      <trkpt lat="43.12126" lon="6.26119">
        <ele>2.6</ele>
        <time>2021-07-20T10:39:23Z</time>
      </trkpt>
      <trkpt lat="43.12126" lon="6.26117">
        <ele>2.6</ele>
        <time>2021-07-20T10:39:24Z</time>
      </trkpt>
      <trkpt lat="43.12125" lon="6.26115">
        <ele>2.6</ele>
        <time>2021-07-20T10:39:25Z</time>
      </trkpt>
      <trkpt lat="43.12124" lon="6.26114">
        <ele>2.6</ele>
        <time>2021-07-20T10:39:26Z</time>
      </trkpt>
      <trkpt lat="43.12123" lon="6.26112">
        <ele>2.6</ele>
        <time>2021-07-20T10:39:28Z</time>
      </trkpt>
      <trkpt lat="43.12123" lon="6.26111">
        <ele>2.6</ele>
        <time>2021-07-20T10:39:29Z</time>
      </trkpt>
      <trkpt lat="43.12122" lon="6.2611">
        <ele>2.6</ele>
        <time>2021-07-20T10:39:30Z</time>
      </trkpt>
      <trkpt lat="43.12122" lon="6.26109">
        <ele>2.6</ele>
        <time>2021-07-20T10:39:31Z</time>
      </trkpt>
      <trkpt lat="43.12121" lon="6.26107">
        <ele>2.6</ele>
        <time>2021-07-20T10:39:32Z</time>
      </trkpt>
      <trkpt lat="43.12121" lon="6.26105">
        <ele>2.6</ele>
        <time>2021-07-20T10:39:33Z</time>
      </trkpt>
      <trkpt lat="43.1212" lon="6.26104">
        <ele>2.6</ele>
        <time>2021-07-20T10:39:34Z</time>
      </trkpt>
      <trkpt lat="43.1212" lon="6.26102">
        <ele>2.6</ele>
        <time>2021-07-20T10:39:35Z</time>
      </trkpt>
      <trkpt lat="43.1212" lon="6.26101">
        <ele>2.6</ele>
        <time>2021-07-20T10:39:36Z</time>
      </trkpt>
      <trkpt lat="43.1212" lon="6.26098">
        <ele>2.6</ele>
        <time>2021-07-20T10:39:38Z</time>
      </trkpt>
      <trkpt lat="43.12119" lon="6.26096">
        <ele>2.6</ele>
        <time>2021-07-20T10:39:39Z</time>
      </trkpt>
      <trkpt lat="43.12118" lon="6.26094">
        <ele>2.6</ele>
        <time>2021-07-20T10:39:40Z</time>
      </trkpt>
      <trkpt lat="43.12118" lon="6.26093">
        <ele>2.6</ele>
        <time>2021-07-20T10:39:41Z</time>
      </trkpt>
      <trkpt lat="43.12117" lon="6.26091">
        <ele>2.6</ele>
        <time>2021-07-20T10:39:42Z</time>
      </trkpt>
      <trkpt lat="43.12116" lon="6.26089">
        <ele>2.6</ele>
        <time>2021-07-20T10:39:44Z</time>
      </trkpt>
      <trkpt lat="43.12115" lon="6.26087">
        <ele>2.6</ele>
        <time>2021-07-20T10:39:45Z</time>
      </trkpt>
      <trkpt lat="43.12115" lon="6.26086">
        <ele>2.6</ele>
        <time>2021-07-20T10:39:46Z</time>
      </trkpt>
      <trkpt lat="43.12115" lon="6.26084">
        <ele>2.6</ele>
        <time>2021-07-20T10:39:47Z</time>
      </trkpt>
      <trkpt lat="43.12115" lon="6.26082">
        <ele>2.6</ele>
        <time>2021-07-20T10:39:48Z</time>
      </trkpt>
      <trkpt lat="43.12114" lon="6.2608">
        <ele>2.6</ele>
        <time>2021-07-20T10:39:50Z</time>
      </trkpt>
      <trkpt lat="43.12114" lon="6.26078">
        <ele>2.6</ele>
        <time>2021-07-20T10:39:51Z</time>
      </trkpt>
      <trkpt lat="43.12113" lon="6.26077">
        <ele>2.6</ele>
        <time>2021-07-20T10:39:52Z</time>
      </trkpt>
      <trkpt lat="43.12112" lon="6.26074">
        <ele>2.6</ele>
        <time>2021-07-20T10:39:54Z</time>
      </trkpt>
      <trkpt lat="43.12111" lon="6.26073">
        <ele>2.6</ele>
        <time>2021-07-20T10:39:55Z</time>
      </trkpt>
      <trkpt lat="43.1211" lon="6.26071">
        <ele>2.6</ele>
        <time>2021-07-20T10:39:57Z</time>
      </trkpt>
      <trkpt lat="43.12109" lon="6.26069">
        <ele>2.6</ele>
        <time>2021-07-20T10:39:58Z</time>
      </trkpt>
      <trkpt lat="43.12108" lon="6.26068">
        <ele>2.6</ele>
        <time>2021-07-20T10:39:59Z</time>
      </trkpt>
      <trkpt lat="43.12107" lon="6.26066">
        <ele>2.6</ele>
        <time>2021-07-20T10:40:00Z</time>
      </trkpt>
      <trkpt lat="43.12107" lon="6.26065">
        <ele>2.6</ele>
        <time>2021-07-20T10:40:01Z</time>
      </trkpt>
      <trkpt lat="43.12106" lon="6.26065">
        <ele>2.6</ele>
        <time>2021-07-20T10:40:02Z</time>
      </trkpt>
      <trkpt lat="43.12105" lon="6.26064">
        <ele>2.6</ele>
        <time>2021-07-20T10:40:03Z</time>
      </trkpt>
      <trkpt lat="43.12104" lon="6.26062">
        <ele>2.6</ele>
        <time>2021-07-20T10:40:04Z</time>
      </trkpt>
      <trkpt lat="43.12104" lon="6.26061">
        <ele>2.6</ele>
        <time>2021-07-20T10:40:05Z</time>
      </trkpt>
      <trkpt lat="43.12102" lon="6.26058">
        <ele>2.6</ele>
        <time>2021-07-20T10:40:06Z</time>
      </trkpt>
      <trkpt lat="43.12101" lon="6.26057">
        <ele>2.6</ele>
        <time>2021-07-20T10:40:08Z</time>
      </trkpt>
      <trkpt lat="43.12101" lon="6.26056">
        <ele>2.6</ele>
        <time>2021-07-20T10:40:09Z</time>
      </trkpt>
      <trkpt lat="43.121" lon="6.26055">
        <ele>2.6</ele>
        <time>2021-07-20T10:40:11Z</time>
      </trkpt>
      <trkpt lat="43.12099" lon="6.26053">
        <ele>2.6</ele>
        <time>2021-07-20T10:40:12Z</time>
      </trkpt>
      <trkpt lat="43.12098" lon="6.26052">
        <ele>2.6</ele>
        <time>2021-07-20T10:40:13Z</time>
      </trkpt>
      <trkpt lat="43.12097" lon="6.26051">
        <ele>2.6</ele>
        <time>2021-07-20T10:40:14Z</time>
      </trkpt>
      <trkpt lat="43.12097" lon="6.26049">
        <ele>2.6</ele>
        <time>2021-07-20T10:40:16Z</time>
      </trkpt>
      <trkpt lat="43.12096" lon="6.26048">
        <ele>2.6</ele>
        <time>2021-07-20T10:40:17Z</time>
      </trkpt>
      <trkpt lat="43.12096" lon="6.26047">
        <ele>2.6</ele>
        <time>2021-07-20T10:40:18Z</time>
      </trkpt>
      <trkpt lat="43.12095" lon="6.26044">
        <ele>2.6</ele>
        <time>2021-07-20T10:40:19Z</time>
      </trkpt>
      <trkpt lat="43.12095" lon="6.26043">
        <ele>2.6</ele>
        <time>2021-07-20T10:40:20Z</time>
      </trkpt>
      <trkpt lat="43.12095" lon="6.26042">
        <ele>2.6</ele>
        <time>2021-07-20T10:40:22Z</time>
      </trkpt>
      <trkpt lat="43.12094" lon="6.2604">
        <ele>2.6</ele>
        <time>2021-07-20T10:40:23Z</time>
      </trkpt>
      <trkpt lat="43.12094" lon="6.26039">
        <ele>2.6</ele>
        <time>2021-07-20T10:40:24Z</time>
      </trkpt>
      <trkpt lat="43.12094" lon="6.26038">
        <ele>2.6</ele>
        <time>2021-07-20T10:40:25Z</time>
      </trkpt>
      <trkpt lat="43.12094" lon="6.26036">
        <ele>2.6</ele>
        <time>2021-07-20T10:40:26Z</time>
      </trkpt>
      <trkpt lat="43.12093" lon="6.26034">
        <ele>2.6</ele>
        <time>2021-07-20T10:40:27Z</time>
      </trkpt>
      <trkpt lat="43.12093" lon="6.26032">
        <ele>2.6</ele>
        <time>2021-07-20T10:40:29Z</time>
      </trkpt>
      <trkpt lat="43.12092" lon="6.26031">
        <ele>2.5</ele>
        <time>2021-07-20T10:40:30Z</time>
      </trkpt>
      <trkpt lat="43.12092" lon="6.26029">
        <ele>2.5</ele>
        <time>2021-07-20T10:40:31Z</time>
      </trkpt>
      <trkpt lat="43.12092" lon="6.26028">
        <ele>2.5</ele>
        <time>2021-07-20T10:40:32Z</time>
      </trkpt>
      <trkpt lat="43.12091" lon="6.26027">
        <ele>2.5</ele>
        <time>2021-07-20T10:40:34Z</time>
      </trkpt>
      <trkpt lat="43.12091" lon="6.26026">
        <ele>2.5</ele>
        <time>2021-07-20T10:40:35Z</time>
      </trkpt>
      <trkpt lat="43.12091" lon="6.26025">
        <ele>2.5</ele>
        <time>2021-07-20T10:40:37Z</time>
      </trkpt>
      <trkpt lat="43.12091" lon="6.26024">
        <ele>2.5</ele>
        <time>2021-07-20T10:40:38Z</time>
      </trkpt>
      <trkpt lat="43.1209" lon="6.26023">
        <ele>2.5</ele>
        <time>2021-07-20T10:40:39Z</time>
      </trkpt>
      <trkpt lat="43.1209" lon="6.26022">
        <ele>2.5</ele>
        <time>2021-07-20T10:40:40Z</time>
      </trkpt>
      <trkpt lat="43.12091" lon="6.26021">
        <ele>2.5</ele>
        <time>2021-07-20T10:40:42Z</time>
      </trkpt>
      <trkpt lat="43.1209" lon="6.2602">
        <ele>2.5</ele>
        <time>2021-07-20T10:40:43Z</time>
      </trkpt>
      <trkpt lat="43.1209" lon="6.26019">
        <ele>2.5</ele>
        <time>2021-07-20T10:40:44Z</time>
      </trkpt>
      <trkpt lat="43.12089" lon="6.26017">
        <ele>2.5</ele>
        <time>2021-07-20T10:40:46Z</time>
      </trkpt>
      <trkpt lat="43.12088" lon="6.26016">
        <ele>2.5</ele>
        <time>2021-07-20T10:40:47Z</time>
      </trkpt>
      <trkpt lat="43.12088" lon="6.26014">
        <ele>2.5</ele>
        <time>2021-07-20T10:40:48Z</time>
      </trkpt>
      <trkpt lat="43.12088" lon="6.26013">
        <ele>2.5</ele>
        <time>2021-07-20T10:40:49Z</time>
      </trkpt>
      <trkpt lat="43.12088" lon="6.26011">
        <ele>2.5</ele>
        <time>2021-07-20T10:40:50Z</time>
      </trkpt>
      <trkpt lat="43.12087" lon="6.26008">
        <ele>2.5</ele>
        <time>2021-07-20T10:40:52Z</time>
      </trkpt>
      <trkpt lat="43.12087" lon="6.26007">
        <ele>2.5</ele>
        <time>2021-07-20T10:40:53Z</time>
      </trkpt>
      <trkpt lat="43.12087" lon="6.26006">
        <ele>2.5</ele>
        <time>2021-07-20T10:40:54Z</time>
      </trkpt>
      <trkpt lat="43.12086" lon="6.26005">
        <ele>2.5</ele>
        <time>2021-07-20T10:40:55Z</time>
      </trkpt>
      <trkpt lat="43.12085" lon="6.26003">
        <ele>2.5</ele>
        <time>2021-07-20T10:40:56Z</time>
      </trkpt>
      <trkpt lat="43.12085" lon="6.26002">
        <ele>2.5</ele>
        <time>2021-07-20T10:40:57Z</time>
      </trkpt>
      <trkpt lat="43.12084" lon="6.26">
        <ele>2.5</ele>
        <time>2021-07-20T10:40:59Z</time>
      </trkpt>
      <trkpt lat="43.12083" lon="6.25999">
        <ele>2.5</ele>
        <time>2021-07-20T10:41:00Z</time>
      </trkpt>
      <trkpt lat="43.12083" lon="6.25998">
        <ele>2.5</ele>
        <time>2021-07-20T10:41:01Z</time>
      </trkpt>
      <trkpt lat="43.12082" lon="6.25997">
        <ele>2.5</ele>
        <time>2021-07-20T10:41:02Z</time>
      </trkpt>
      <trkpt lat="43.12082" lon="6.25995">
        <ele>2.5</ele>
        <time>2021-07-20T10:41:04Z</time>
      </trkpt>
      <trkpt lat="43.12081" lon="6.25994">
        <ele>2.5</ele>
        <time>2021-07-20T10:41:05Z</time>
      </trkpt>
      <trkpt lat="43.12081" lon="6.25993">
        <ele>2.5</ele>
        <time>2021-07-20T10:41:06Z</time>
      </trkpt>
      <trkpt lat="43.12081" lon="6.25992">
        <ele>2.5</ele>
        <time>2021-07-20T10:41:07Z</time>
      </trkpt>
      <trkpt lat="43.12081" lon="6.2599">
        <ele>2.5</ele>
        <time>2021-07-20T10:41:08Z</time>
      </trkpt>
      <trkpt lat="43.1208" lon="6.25989">
        <ele>2.5</ele>
        <time>2021-07-20T10:41:10Z</time>
      </trkpt>
      <trkpt lat="43.1208" lon="6.25988">
        <ele>2.5</ele>
        <time>2021-07-20T10:41:11Z</time>
      </trkpt>
      <trkpt lat="43.1208" lon="6.25986">
        <ele>2.5</ele>
        <time>2021-07-20T10:41:12Z</time>
      </trkpt>
      <trkpt lat="43.1208" lon="6.25985">
        <ele>2.5</ele>
        <time>2021-07-20T10:41:13Z</time>
      </trkpt>
      <trkpt lat="43.12079" lon="6.25982">
        <ele>2.5</ele>
        <time>2021-07-20T10:41:14Z</time>
      </trkpt>
      <trkpt lat="43.12079" lon="6.25981">
        <ele>2.5</ele>
        <time>2021-07-20T10:41:16Z</time>
      </trkpt>
      <trkpt lat="43.12079" lon="6.25981">
        <ele>2.5</ele>
        <time>2021-07-20T10:41:17Z</time>
      </trkpt>
      <trkpt lat="43.12079" lon="6.2598">
        <ele>2.5</ele>
        <time>2021-07-20T10:41:18Z</time>
      </trkpt>
      <trkpt lat="43.12079" lon="6.25978">
        <ele>2.5</ele>
        <time>2021-07-20T10:41:19Z</time>
      </trkpt>
      <trkpt lat="43.12078" lon="6.25976">
        <ele>2.5</ele>
        <time>2021-07-20T10:41:20Z</time>
      </trkpt>
      <trkpt lat="43.12077" lon="6.25974">
        <ele>2.5</ele>
        <time>2021-07-20T10:41:22Z</time>
      </trkpt>
      <trkpt lat="43.12077" lon="6.25972">
        <ele>2.5</ele>
        <time>2021-07-20T10:41:23Z</time>
      </trkpt>
      <trkpt lat="43.12076" lon="6.25971">
        <ele>2.5</ele>
        <time>2021-07-20T10:41:24Z</time>
      </trkpt>
      <trkpt lat="43.12075" lon="6.25969">
        <ele>2.5</ele>
        <time>2021-07-20T10:41:25Z</time>
      </trkpt>
      <trkpt lat="43.12075" lon="6.25967">
        <ele>2.5</ele>
        <time>2021-07-20T10:41:26Z</time>
      </trkpt>
      <trkpt lat="43.12074" lon="6.25966">
        <ele>2.5</ele>
        <time>2021-07-20T10:41:27Z</time>
      </trkpt>
      <trkpt lat="43.12074" lon="6.25964">
        <ele>2.5</ele>
        <time>2021-07-20T10:41:28Z</time>
      </trkpt>
      <trkpt lat="43.12073" lon="6.25962">
        <ele>2.5</ele>
        <time>2021-07-20T10:41:30Z</time>
      </trkpt>
      <trkpt lat="43.12072" lon="6.2596">
        <ele>2.5</ele>
        <time>2021-07-20T10:41:31Z</time>
      </trkpt>
      <trkpt lat="43.12071" lon="6.25958">
        <ele>2.5</ele>
        <time>2021-07-20T10:41:32Z</time>
      </trkpt>
      <trkpt lat="43.12071" lon="6.25957">
        <ele>2.5</ele>
        <time>2021-07-20T10:41:33Z</time>
      </trkpt>
      <trkpt lat="43.1207" lon="6.25955">
        <ele>2.5</ele>
        <time>2021-07-20T10:41:35Z</time>
      </trkpt>
      <trkpt lat="43.1207" lon="6.25954">
        <ele>2.5</ele>
        <time>2021-07-20T10:41:36Z</time>
      </trkpt>
      <trkpt lat="43.12069" lon="6.25953">
        <ele>2.5</ele>
        <time>2021-07-20T10:41:37Z</time>
      </trkpt>
      <trkpt lat="43.12069" lon="6.25952">
        <ele>2.5</ele>
        <time>2021-07-20T10:41:38Z</time>
      </trkpt>
      <trkpt lat="43.12069" lon="6.25951">
        <ele>2.5</ele>
        <time>2021-07-20T10:41:39Z</time>
      </trkpt>
      <trkpt lat="43.12069" lon="6.2595">
        <ele>2.5</ele>
        <time>2021-07-20T10:41:40Z</time>
      </trkpt>
      <trkpt lat="43.1207" lon="6.25948">
        <ele>2.5</ele>
        <time>2021-07-20T10:41:41Z</time>
      </trkpt>
      <trkpt lat="43.1207" lon="6.25947">
        <ele>2.5</ele>
        <time>2021-07-20T10:41:42Z</time>
      </trkpt>
      <trkpt lat="43.12069" lon="6.25945">
        <ele>2.5</ele>
        <time>2021-07-20T10:41:44Z</time>
      </trkpt>
      <trkpt lat="43.12069" lon="6.25943">
        <ele>2.5</ele>
        <time>2021-07-20T10:41:45Z</time>
      </trkpt>
      <trkpt lat="43.12068" lon="6.25942">
        <ele>2.5</ele>
        <time>2021-07-20T10:41:46Z</time>
      </trkpt>
      <trkpt lat="43.12067" lon="6.2594">
        <ele>2.5</ele>
        <time>2021-07-20T10:41:47Z</time>
      </trkpt>
      <trkpt lat="43.12067" lon="6.25939">
        <ele>2.5</ele>
        <time>2021-07-20T10:41:48Z</time>
      </trkpt>
      <trkpt lat="43.12066" lon="6.25937">
        <ele>2.5</ele>
        <time>2021-07-20T10:41:50Z</time>
      </trkpt>
      <trkpt lat="43.12065" lon="6.25935">
        <ele>2.5</ele>
        <time>2021-07-20T10:41:51Z</time>
      </trkpt>
      <trkpt lat="43.12065" lon="6.25934">
        <ele>2.5</ele>
        <time>2021-07-20T10:41:53Z</time>
      </trkpt>
      <trkpt lat="43.12065" lon="6.25933">
        <ele>2.5</ele>
        <time>2021-07-20T10:41:54Z</time>
      </trkpt>
      <trkpt lat="43.12064" lon="6.25931">
        <ele>2.5</ele>
        <time>2021-07-20T10:41:55Z</time>
      </trkpt>
      <trkpt lat="43.12063" lon="6.2593">
        <ele>2.5</ele>
        <time>2021-07-20T10:41:56Z</time>
      </trkpt>
      <trkpt lat="43.12063" lon="6.25929">
        <ele>2.5</ele>
        <time>2021-07-20T10:41:57Z</time>
      </trkpt>
      <trkpt lat="43.12062" lon="6.25928">
        <ele>2.6</ele>
        <time>2021-07-20T10:41:58Z</time>
      </trkpt>
      <trkpt lat="43.12061" lon="6.25927">
        <ele>2.6</ele>
        <time>2021-07-20T10:41:59Z</time>
      </trkpt>
      <trkpt lat="43.1206" lon="6.25925">
        <ele>2.6</ele>
        <time>2021-07-20T10:42:00Z</time>
      </trkpt>
      <trkpt lat="43.1206" lon="6.25924">
        <ele>2.6</ele>
        <time>2021-07-20T10:42:01Z</time>
      </trkpt>
      <trkpt lat="43.12059" lon="6.25922">
        <ele>2.6</ele>
        <time>2021-07-20T10:42:03Z</time>
      </trkpt>
      <trkpt lat="43.12058" lon="6.25921">
        <ele>2.6</ele>
        <time>2021-07-20T10:42:04Z</time>
      </trkpt>
      <trkpt lat="43.12058" lon="6.25918">
        <ele>2.6</ele>
        <time>2021-07-20T10:42:06Z</time>
      </trkpt>
      <trkpt lat="43.12059" lon="6.25917">
        <ele>2.6</ele>
        <time>2021-07-20T10:42:07Z</time>
      </trkpt>
      <trkpt lat="43.12059" lon="6.25915">
        <ele>2.6</ele>
        <time>2021-07-20T10:42:08Z</time>
      </trkpt>
      <trkpt lat="43.1206" lon="6.25914">
        <ele>2.8</ele>
        <time>2021-07-20T10:42:09Z</time>
      </trkpt>
      <trkpt lat="43.12061" lon="6.25913">
        <ele>2.8</ele>
        <time>2021-07-20T10:42:11Z</time>
      </trkpt>
      <trkpt lat="43.12062" lon="6.25912">
        <ele>2.8</ele>
        <time>2021-07-20T10:42:12Z</time>
      </trkpt>
      <trkpt lat="43.12064" lon="6.25911">
        <ele>2.9</ele>
        <time>2021-07-20T10:42:13Z</time>
      </trkpt>
      <trkpt lat="43.12065" lon="6.25909">
        <ele>2.9</ele>
        <time>2021-07-20T10:42:14Z</time>
      </trkpt>
      <trkpt lat="43.12066" lon="6.25908">
        <ele>3</ele>
        <time>2021-07-20T10:42:15Z</time>
      </trkpt>
      <trkpt lat="43.12066" lon="6.25907">
        <ele>3</ele>
        <time>2021-07-20T10:42:17Z</time>
      </trkpt>
      <trkpt lat="43.12067" lon="6.25906">
        <ele>3</ele>
        <time>2021-07-20T10:42:18Z</time>
      </trkpt>
      <trkpt lat="43.12067" lon="6.25904">
        <ele>3</ele>
        <time>2021-07-20T10:42:19Z</time>
      </trkpt>
      <trkpt lat="43.12068" lon="6.25903">
        <ele>3</ele>
        <time>2021-07-20T10:42:21Z</time>
      </trkpt>
      <trkpt lat="43.12068" lon="6.25902">
        <ele>3</ele>
        <time>2021-07-20T10:42:23Z</time>
      </trkpt>
      <trkpt lat="43.12067" lon="6.25903">
        <ele>2.9</ele>
        <time>2021-07-20T10:42:24Z</time>
      </trkpt>
      <trkpt lat="43.12067" lon="6.25903">
        <ele>2.9</ele>
        <time>2021-07-20T10:42:26Z</time>
      </trkpt>
      <trkpt lat="43.12067" lon="6.25904">
        <ele>2.9</ele>
        <time>2021-07-20T10:42:27Z</time>
      </trkpt>
      <trkpt lat="43.12067" lon="6.25904">
        <ele>2.9</ele>
        <time>2021-07-20T10:42:28Z</time>
      </trkpt>
      <trkpt lat="43.12066" lon="6.25905">
        <ele>2.9</ele>
        <time>2021-07-20T10:42:30Z</time>
      </trkpt>
      <trkpt lat="43.12066" lon="6.25906">
        <ele>2.9</ele>
        <time>2021-07-20T10:42:31Z</time>
      </trkpt>
      <trkpt lat="43.12065" lon="6.25906">
        <ele>2.9</ele>
        <time>2021-07-20T10:42:32Z</time>
      </trkpt>
      <trkpt lat="43.12065" lon="6.25907">
        <ele>2.9</ele>
        <time>2021-07-20T10:42:33Z</time>
      </trkpt>
      <trkpt lat="43.12064" lon="6.25908">
        <ele>2.8</ele>
        <time>2021-07-20T10:42:34Z</time>
      </trkpt>
      <trkpt lat="43.12063" lon="6.25909">
        <ele>2.8</ele>
        <time>2021-07-20T10:42:35Z</time>
      </trkpt>
      <trkpt lat="43.12063" lon="6.2591">
        <ele>2.8</ele>
        <time>2021-07-20T10:42:36Z</time>
      </trkpt>
      <trkpt lat="43.12062" lon="6.25911">
        <ele>2.8</ele>
        <time>2021-07-20T10:42:38Z</time>
      </trkpt>
      <trkpt lat="43.12061" lon="6.25912">
        <ele>2.8</ele>
        <time>2021-07-20T10:42:39Z</time>
      </trkpt>
      <trkpt lat="43.1206" lon="6.25914">
        <ele>2.7</ele>
        <time>2021-07-20T10:42:41Z</time>
      </trkpt>
      <trkpt lat="43.1206" lon="6.25915">
        <ele>2.7</ele>
        <time>2021-07-20T10:42:42Z</time>
      </trkpt>
      <trkpt lat="43.12059" lon="6.25916">
        <ele>2.7</ele>
        <time>2021-07-20T10:42:43Z</time>
      </trkpt>
      <trkpt lat="43.12058" lon="6.25917">
        <ele>2.7</ele>
        <time>2021-07-20T10:42:44Z</time>
      </trkpt>
      <trkpt lat="43.12057" lon="6.25918">
        <ele>2.7</ele>
        <time>2021-07-20T10:42:45Z</time>
      </trkpt>
      <trkpt lat="43.12056" lon="6.25917">
        <ele>2.6</ele>
        <time>2021-07-20T10:42:47Z</time>
      </trkpt>
      <trkpt lat="43.12055" lon="6.25917">
        <ele>2.6</ele>
        <time>2021-07-20T10:42:48Z</time>
      </trkpt>
      <trkpt lat="43.12055" lon="6.25917">
        <ele>2.6</ele>
        <time>2021-07-20T10:42:49Z</time>
      </trkpt>
      <trkpt lat="43.12054" lon="6.25916">
        <ele>2.6</ele>
        <time>2021-07-20T10:42:50Z</time>
      </trkpt>
      <trkpt lat="43.12053" lon="6.25915">
        <ele>2.6</ele>
        <time>2021-07-20T10:42:51Z</time>
      </trkpt>
      <trkpt lat="43.12053" lon="6.25914">
        <ele>2.6</ele>
        <time>2021-07-20T10:42:52Z</time>
      </trkpt>
      <trkpt lat="43.12051" lon="6.25912">
        <ele>2.6</ele>
        <time>2021-07-20T10:42:54Z</time>
      </trkpt>
      <trkpt lat="43.1205" lon="6.25911">
        <ele>2.6</ele>
        <time>2021-07-20T10:42:55Z</time>
      </trkpt>
      <trkpt lat="43.12049" lon="6.2591">
        <ele>2.6</ele>
        <time>2021-07-20T10:42:56Z</time>
      </trkpt>
      <trkpt lat="43.12048" lon="6.25908">
        <ele>2.6</ele>
        <time>2021-07-20T10:42:57Z</time>
      </trkpt>
      <trkpt lat="43.12047" lon="6.25908">
        <ele>2.6</ele>
        <time>2021-07-20T10:42:58Z</time>
      </trkpt>
      <trkpt lat="43.12046" lon="6.25907">
        <ele>2.6</ele>
        <time>2021-07-20T10:42:59Z</time>
      </trkpt>
      <trkpt lat="43.12045" lon="6.25906">
        <ele>2.6</ele>
        <time>2021-07-20T10:43:01Z</time>
      </trkpt>
      <trkpt lat="43.12044" lon="6.25905">
        <ele>2.6</ele>
        <time>2021-07-20T10:43:02Z</time>
      </trkpt>
      <trkpt lat="43.12043" lon="6.25904">
        <ele>2.6</ele>
        <time>2021-07-20T10:43:03Z</time>
      </trkpt>
      <trkpt lat="43.12042" lon="6.25903">
        <ele>2.6</ele>
        <time>2021-07-20T10:43:04Z</time>
      </trkpt>
      <trkpt lat="43.12042" lon="6.25902">
        <ele>2.6</ele>
        <time>2021-07-20T10:43:05Z</time>
      </trkpt>
      <trkpt lat="43.12041" lon="6.259">
        <ele>2.6</ele>
        <time>2021-07-20T10:43:07Z</time>
      </trkpt>
      <trkpt lat="43.12041" lon="6.25899">
        <ele>2.6</ele>
        <time>2021-07-20T10:43:08Z</time>
      </trkpt>
      <trkpt lat="43.1204" lon="6.25898">
        <ele>2.6</ele>
        <time>2021-07-20T10:43:09Z</time>
      </trkpt>
      <trkpt lat="43.12039" lon="6.25897">
        <ele>2.6</ele>
        <time>2021-07-20T10:43:10Z</time>
      </trkpt>
      <trkpt lat="43.12038" lon="6.25896">
        <ele>2.6</ele>
        <time>2021-07-20T10:43:11Z</time>
      </trkpt>
      <trkpt lat="43.12037" lon="6.25896">
        <ele>2.6</ele>
        <time>2021-07-20T10:43:12Z</time>
      </trkpt>
      <trkpt lat="43.12035" lon="6.25894">
        <ele>2.6</ele>
        <time>2021-07-20T10:43:14Z</time>
      </trkpt>
      <trkpt lat="43.12033" lon="6.25894">
        <ele>2.6</ele>
        <time>2021-07-20T10:43:15Z</time>
      </trkpt>
      <trkpt lat="43.12032" lon="6.25893">
        <ele>2.6</ele>
        <time>2021-07-20T10:43:16Z</time>
      </trkpt>
      <trkpt lat="43.12031" lon="6.25892">
        <ele>2.6</ele>
        <time>2021-07-20T10:43:18Z</time>
      </trkpt>
      <trkpt lat="43.1203" lon="6.25891">
        <ele>2.6</ele>
        <time>2021-07-20T10:43:19Z</time>
      </trkpt>
      <trkpt lat="43.12029" lon="6.25889">
        <ele>2.6</ele>
        <time>2021-07-20T10:43:20Z</time>
      </trkpt>
      <trkpt lat="43.12029" lon="6.25887">
        <ele>2.5</ele>
        <time>2021-07-20T10:43:21Z</time>
      </trkpt>
      <trkpt lat="43.12029" lon="6.25885">
        <ele>2.5</ele>
        <time>2021-07-20T10:43:22Z</time>
      </trkpt>
      <trkpt lat="43.12028" lon="6.25883">
        <ele>2.5</ele>
        <time>2021-07-20T10:43:23Z</time>
      </trkpt>
      <trkpt lat="43.12028" lon="6.25882">
        <ele>2.5</ele>
        <time>2021-07-20T10:43:24Z</time>
      </trkpt>
      <trkpt lat="43.12027" lon="6.25879">
        <ele>2.5</ele>
        <time>2021-07-20T10:43:26Z</time>
      </trkpt>
      <trkpt lat="43.12026" lon="6.25878">
        <ele>2.5</ele>
        <time>2021-07-20T10:43:27Z</time>
      </trkpt>
      <trkpt lat="43.12025" lon="6.25876">
        <ele>2.5</ele>
        <time>2021-07-20T10:43:28Z</time>
      </trkpt>
      <trkpt lat="43.12024" lon="6.25875">
        <ele>2.5</ele>
        <time>2021-07-20T10:43:29Z</time>
      </trkpt>
      <trkpt lat="43.12023" lon="6.25873">
        <ele>2.5</ele>
        <time>2021-07-20T10:43:31Z</time>
      </trkpt>
      <trkpt lat="43.12022" lon="6.25871">
        <ele>2.5</ele>
        <time>2021-07-20T10:43:32Z</time>
      </trkpt>
      <trkpt lat="43.12021" lon="6.25869">
        <ele>2.5</ele>
        <time>2021-07-20T10:43:33Z</time>
      </trkpt>
      <trkpt lat="43.12021" lon="6.25868">
        <ele>2.5</ele>
        <time>2021-07-20T10:43:34Z</time>
      </trkpt>
      <trkpt lat="43.1202" lon="6.25867">
        <ele>2.5</ele>
        <time>2021-07-20T10:43:35Z</time>
      </trkpt>
      <trkpt lat="43.12019" lon="6.25865">
        <ele>2.5</ele>
        <time>2021-07-20T10:43:36Z</time>
      </trkpt>
      <trkpt lat="43.12018" lon="6.25864">
        <ele>2.5</ele>
        <time>2021-07-20T10:43:38Z</time>
      </trkpt>
      <trkpt lat="43.12017" lon="6.25863">
        <ele>2.5</ele>
        <time>2021-07-20T10:43:39Z</time>
      </trkpt>
      <trkpt lat="43.12017" lon="6.25862">
        <ele>2.5</ele>
        <time>2021-07-20T10:43:40Z</time>
      </trkpt>
      <trkpt lat="43.12015" lon="6.25861">
        <ele>2.5</ele>
        <time>2021-07-20T10:43:41Z</time>
      </trkpt>
      <trkpt lat="43.12014" lon="6.2586">
        <ele>2.5</ele>
        <time>2021-07-20T10:43:42Z</time>
      </trkpt>
      <trkpt lat="43.12013" lon="6.25859">
        <ele>2.5</ele>
        <time>2021-07-20T10:43:43Z</time>
      </trkpt>
      <trkpt lat="43.12013" lon="6.25857">
        <ele>2.5</ele>
        <time>2021-07-20T10:43:45Z</time>
      </trkpt>
      <trkpt lat="43.12013" lon="6.25856">
        <ele>2.5</ele>
        <time>2021-07-20T10:43:46Z</time>
      </trkpt>
      <trkpt lat="43.12012" lon="6.25854">
        <ele>2.5</ele>
        <time>2021-07-20T10:43:47Z</time>
      </trkpt>
      <trkpt lat="43.12011" lon="6.25853">
        <ele>2.5</ele>
        <time>2021-07-20T10:43:48Z</time>
      </trkpt>
      <trkpt lat="43.12011" lon="6.25852">
        <ele>2.5</ele>
        <time>2021-07-20T10:43:49Z</time>
      </trkpt>
      <trkpt lat="43.1201" lon="6.2585">
        <ele>2.5</ele>
        <time>2021-07-20T10:43:51Z</time>
      </trkpt>
      <trkpt lat="43.12009" lon="6.25849">
        <ele>2.5</ele>
        <time>2021-07-20T10:43:52Z</time>
      </trkpt>
      <trkpt lat="43.12009" lon="6.25848">
        <ele>2.5</ele>
        <time>2021-07-20T10:43:53Z</time>
      </trkpt>
      <trkpt lat="43.12008" lon="6.25847">
        <ele>2.5</ele>
        <time>2021-07-20T10:43:54Z</time>
      </trkpt>
      <trkpt lat="43.12008" lon="6.25846">
        <ele>2.5</ele>
        <time>2021-07-20T10:43:55Z</time>
      </trkpt>
      <trkpt lat="43.12008" lon="6.25845">
        <ele>2.5</ele>
        <time>2021-07-20T10:43:57Z</time>
      </trkpt>
      <trkpt lat="43.12008" lon="6.25844">
        <ele>2.5</ele>
        <time>2021-07-20T10:43:58Z</time>
      </trkpt>
      <trkpt lat="43.12007" lon="6.25842">
        <ele>2.5</ele>
        <time>2021-07-20T10:43:59Z</time>
      </trkpt>
      <trkpt lat="43.12007" lon="6.25841">
        <ele>2.5</ele>
        <time>2021-07-20T10:44:01Z</time>
      </trkpt>
      <trkpt lat="43.12006" lon="6.25839">
        <ele>2.5</ele>
        <time>2021-07-20T10:44:02Z</time>
      </trkpt>
      <trkpt lat="43.12005" lon="6.25838">
        <ele>2.5</ele>
        <time>2021-07-20T10:44:03Z</time>
      </trkpt>
      <trkpt lat="43.12005" lon="6.25837">
        <ele>2.5</ele>
        <time>2021-07-20T10:44:04Z</time>
      </trkpt>
      <trkpt lat="43.12004" lon="6.25835">
        <ele>2.5</ele>
        <time>2021-07-20T10:44:06Z</time>
      </trkpt>
      <trkpt lat="43.12003" lon="6.25834">
        <ele>2.5</ele>
        <time>2021-07-20T10:44:07Z</time>
      </trkpt>
      <trkpt lat="43.12002" lon="6.25833">
        <ele>2.5</ele>
        <time>2021-07-20T10:44:08Z</time>
      </trkpt>
      <trkpt lat="43.12001" lon="6.25831">
        <ele>2.5</ele>
        <time>2021-07-20T10:44:10Z</time>
      </trkpt>
      <trkpt lat="43.12001" lon="6.25829">
        <ele>2.5</ele>
        <time>2021-07-20T10:44:11Z</time>
      </trkpt>
      <trkpt lat="43.12" lon="6.25828">
        <ele>2.5</ele>
        <time>2021-07-20T10:44:12Z</time>
      </trkpt>
      <trkpt lat="43.11999" lon="6.25826">
        <ele>2.5</ele>
        <time>2021-07-20T10:44:14Z</time>
      </trkpt>
      <trkpt lat="43.11999" lon="6.25824">
        <ele>2.5</ele>
        <time>2021-07-20T10:44:15Z</time>
      </trkpt>
      <trkpt lat="43.11999" lon="6.25822">
        <ele>2.5</ele>
        <time>2021-07-20T10:44:16Z</time>
      </trkpt>
      <trkpt lat="43.11999" lon="6.2582">
        <ele>2.5</ele>
        <time>2021-07-20T10:44:18Z</time>
      </trkpt>
      <trkpt lat="43.11998" lon="6.25818">
        <ele>2.5</ele>
        <time>2021-07-20T10:44:19Z</time>
      </trkpt>
      <trkpt lat="43.11998" lon="6.25816">
        <ele>2.5</ele>
        <time>2021-07-20T10:44:20Z</time>
      </trkpt>
      <trkpt lat="43.11997" lon="6.25815">
        <ele>2.5</ele>
        <time>2021-07-20T10:44:21Z</time>
      </trkpt>
      <trkpt lat="43.11997" lon="6.25814">
        <ele>2.5</ele>
        <time>2021-07-20T10:44:22Z</time>
      </trkpt>
      <trkpt lat="43.11997" lon="6.25812">
        <ele>2.5</ele>
        <time>2021-07-20T10:44:23Z</time>
      </trkpt>
      <trkpt lat="43.11996" lon="6.2581">
        <ele>2.6</ele>
        <time>2021-07-20T10:44:25Z</time>
      </trkpt>
      <trkpt lat="43.11996" lon="6.25808">
        <ele>2.6</ele>
        <time>2021-07-20T10:44:26Z</time>
      </trkpt>
      <trkpt lat="43.11996" lon="6.25806">
        <ele>2.6</ele>
        <time>2021-07-20T10:44:27Z</time>
      </trkpt>
      <trkpt lat="43.11995" lon="6.25804">
        <ele>2.6</ele>
        <time>2021-07-20T10:44:29Z</time>
      </trkpt>
      <trkpt lat="43.11994" lon="6.25803">
        <ele>2.6</ele>
        <time>2021-07-20T10:44:30Z</time>
      </trkpt>
      <trkpt lat="43.11993" lon="6.25803">
        <ele>2.6</ele>
        <time>2021-07-20T10:44:31Z</time>
      </trkpt>
      <trkpt lat="43.11991" lon="6.25802">
        <ele>2.6</ele>
        <time>2021-07-20T10:44:33Z</time>
      </trkpt>
      <trkpt lat="43.1199" lon="6.25801">
        <ele>2.6</ele>
        <time>2021-07-20T10:44:34Z</time>
      </trkpt>
      <trkpt lat="43.1199" lon="6.25799">
        <ele>2.6</ele>
        <time>2021-07-20T10:44:35Z</time>
      </trkpt>
      <trkpt lat="43.11989" lon="6.25798">
        <ele>2.6</ele>
        <time>2021-07-20T10:44:36Z</time>
      </trkpt>
      <trkpt lat="43.11988" lon="6.25797">
        <ele>2.6</ele>
        <time>2021-07-20T10:44:38Z</time>
      </trkpt>
      <trkpt lat="43.11988" lon="6.25795">
        <ele>2.6</ele>
        <time>2021-07-20T10:44:39Z</time>
      </trkpt>
      <trkpt lat="43.11988" lon="6.25794">
        <ele>2.6</ele>
        <time>2021-07-20T10:44:40Z</time>
      </trkpt>
      <trkpt lat="43.11988" lon="6.25792">
        <ele>2.6</ele>
        <time>2021-07-20T10:44:41Z</time>
      </trkpt>
      <trkpt lat="43.11989" lon="6.25792">
        <ele>2.6</ele>
        <time>2021-07-20T10:44:42Z</time>
      </trkpt>
      <trkpt lat="43.11989" lon="6.25792">
        <ele>2.6</ele>
        <time>2021-07-20T10:44:44Z</time>
      </trkpt>
      <trkpt lat="43.11988" lon="6.25791">
        <ele>2.6</ele>
        <time>2021-07-20T10:44:45Z</time>
      </trkpt>
      <trkpt lat="43.11988" lon="6.25791">
        <ele>2.6</ele>
        <time>2021-07-20T10:44:46Z</time>
      </trkpt>
      <trkpt lat="43.11988" lon="6.25791">
        <ele>2.6</ele>
        <time>2021-07-20T10:44:47Z</time>
      </trkpt>
      <trkpt lat="43.11988" lon="6.25792">
        <ele>2.6</ele>
        <time>2021-07-20T10:44:48Z</time>
      </trkpt>
      <trkpt lat="43.11988" lon="6.25793">
        <ele>2.6</ele>
        <time>2021-07-20T10:44:50Z</time>
      </trkpt>
      <trkpt lat="43.11988" lon="6.25793">
        <ele>2.6</ele>
        <time>2021-07-20T10:44:51Z</time>
      </trkpt>
      <trkpt lat="43.11988" lon="6.25794">
        <ele>2.6</ele>
        <time>2021-07-20T10:44:52Z</time>
      </trkpt>
      <trkpt lat="43.11988" lon="6.25794">
        <ele>2.6</ele>
        <time>2021-07-20T10:44:53Z</time>
      </trkpt>
      <trkpt lat="43.11988" lon="6.25794">
        <ele>2.6</ele>
        <time>2021-07-20T10:44:54Z</time>
      </trkpt>
      <trkpt lat="43.11988" lon="6.25794">
        <ele>2.6</ele>
        <time>2021-07-20T10:44:56Z</time>
      </trkpt>
      <trkpt lat="43.11988" lon="6.25794">
        <ele>2.6</ele>
        <time>2021-07-20T10:44:57Z</time>
      </trkpt>
      <trkpt lat="43.11988" lon="6.25793">
        <ele>2.6</ele>
        <time>2021-07-20T10:44:59Z</time>
      </trkpt>
      <trkpt lat="43.11987" lon="6.25793">
        <ele>2.6</ele>
        <time>2021-07-20T10:45:00Z</time>
      </trkpt>
      <trkpt lat="43.11986" lon="6.25791">
        <ele>2.6</ele>
        <time>2021-07-20T10:45:02Z</time>
      </trkpt>
      <trkpt lat="43.11986" lon="6.2579">
        <ele>2.6</ele>
        <time>2021-07-20T10:45:03Z</time>
      </trkpt>
      <trkpt lat="43.11985" lon="6.25788">
        <ele>2.6</ele>
        <time>2021-07-20T10:45:04Z</time>
      </trkpt>
      <trkpt lat="43.11984" lon="6.25786">
        <ele>2.6</ele>
        <time>2021-07-20T10:45:05Z</time>
      </trkpt>
      <trkpt lat="43.11984" lon="6.25785">
        <ele>2.6</ele>
        <time>2021-07-20T10:45:06Z</time>
      </trkpt>
      <trkpt lat="43.11983" lon="6.25783">
        <ele>2.6</ele>
        <time>2021-07-20T10:45:08Z</time>
      </trkpt>
      <trkpt lat="43.11982" lon="6.25782">
        <ele>2.6</ele>
        <time>2021-07-20T10:45:09Z</time>
      </trkpt>
      <trkpt lat="43.11981" lon="6.2578">
        <ele>2.6</ele>
        <time>2021-07-20T10:45:10Z</time>
      </trkpt>
      <trkpt lat="43.1198" lon="6.25778">
        <ele>2.6</ele>
        <time>2021-07-20T10:45:11Z</time>
      </trkpt>
      <trkpt lat="43.1198" lon="6.25777">
        <ele>2.6</ele>
        <time>2021-07-20T10:45:12Z</time>
      </trkpt>
      <trkpt lat="43.11979" lon="6.25775">
        <ele>2.6</ele>
        <time>2021-07-20T10:45:13Z</time>
      </trkpt>
      <trkpt lat="43.11978" lon="6.25772">
        <ele>2.6</ele>
        <time>2021-07-20T10:45:15Z</time>
      </trkpt>
      <trkpt lat="43.11978" lon="6.2577">
        <ele>2.7</ele>
        <time>2021-07-20T10:45:16Z</time>
      </trkpt>
      <trkpt lat="43.11977" lon="6.25769">
        <ele>2.7</ele>
        <time>2021-07-20T10:45:17Z</time>
      </trkpt>
      <trkpt lat="43.11976" lon="6.25766">
        <ele>2.7</ele>
        <time>2021-07-20T10:45:18Z</time>
      </trkpt>
      <trkpt lat="43.11976" lon="6.25765">
        <ele>2.7</ele>
        <time>2021-07-20T10:45:20Z</time>
      </trkpt>
      <trkpt lat="43.11976" lon="6.25764">
        <ele>2.7</ele>
        <time>2021-07-20T10:45:21Z</time>
      </trkpt>
      <trkpt lat="43.11975" lon="6.25761">
        <ele>2.7</ele>
        <time>2021-07-20T10:45:22Z</time>
      </trkpt>
      <trkpt lat="43.11975" lon="6.2576">
        <ele>2.7</ele>
        <time>2021-07-20T10:45:23Z</time>
      </trkpt>
      <trkpt lat="43.11975" lon="6.25759">
        <ele>2.7</ele>
        <time>2021-07-20T10:45:24Z</time>
      </trkpt>
      <trkpt lat="43.11975" lon="6.25756">
        <ele>2.7</ele>
        <time>2021-07-20T10:45:26Z</time>
      </trkpt>
      <trkpt lat="43.11974" lon="6.25754">
        <ele>2.7</ele>
        <time>2021-07-20T10:45:27Z</time>
      </trkpt>
      <trkpt lat="43.11974" lon="6.25753">
        <ele>2.7</ele>
        <time>2021-07-20T10:45:28Z</time>
      </trkpt>
      <trkpt lat="43.11973" lon="6.25752">
        <ele>2.7</ele>
        <time>2021-07-20T10:45:29Z</time>
      </trkpt>
      <trkpt lat="43.11973" lon="6.2575">
        <ele>2.7</ele>
        <time>2021-07-20T10:45:30Z</time>
      </trkpt>
      <trkpt lat="43.11972" lon="6.25748">
        <ele>2.7</ele>
        <time>2021-07-20T10:45:32Z</time>
      </trkpt>
      <trkpt lat="43.11972" lon="6.25747">
        <ele>2.7</ele>
        <time>2021-07-20T10:45:33Z</time>
      </trkpt>
      <trkpt lat="43.11971" lon="6.25746">
        <ele>2.7</ele>
        <time>2021-07-20T10:45:34Z</time>
      </trkpt>
      <trkpt lat="43.1197" lon="6.25744">
        <ele>2.7</ele>
        <time>2021-07-20T10:45:35Z</time>
      </trkpt>
      <trkpt lat="43.1197" lon="6.25743">
        <ele>2.7</ele>
        <time>2021-07-20T10:45:36Z</time>
      </trkpt>
      <trkpt lat="43.11969" lon="6.25741">
        <ele>2.7</ele>
        <time>2021-07-20T10:45:38Z</time>
      </trkpt>
      <trkpt lat="43.11969" lon="6.2574">
        <ele>2.7</ele>
        <time>2021-07-20T10:45:39Z</time>
      </trkpt>
      <trkpt lat="43.11968" lon="6.25738">
        <ele>2.7</ele>
        <time>2021-07-20T10:45:40Z</time>
      </trkpt>
      <trkpt lat="43.11968" lon="6.25737">
        <ele>2.7</ele>
        <time>2021-07-20T10:45:41Z</time>
      </trkpt>
      <trkpt lat="43.11968" lon="6.25736">
        <ele>2.7</ele>
        <time>2021-07-20T10:45:42Z</time>
      </trkpt>
      <trkpt lat="43.11969" lon="6.25735">
        <ele>2.7</ele>
        <time>2021-07-20T10:45:44Z</time>
      </trkpt>
      <trkpt lat="43.11969" lon="6.25733">
        <ele>2.7</ele>
        <time>2021-07-20T10:45:45Z</time>
      </trkpt>
      <trkpt lat="43.1197" lon="6.25731">
        <ele>2.7</ele>
        <time>2021-07-20T10:45:46Z</time>
      </trkpt>
      <trkpt lat="43.11971" lon="6.25729">
        <ele>2.7</ele>
        <time>2021-07-20T10:45:47Z</time>
      </trkpt>
      <trkpt lat="43.11971" lon="6.25728">
        <ele>2.7</ele>
        <time>2021-07-20T10:45:48Z</time>
      </trkpt>
      <trkpt lat="43.11972" lon="6.25727">
        <ele>2.7</ele>
        <time>2021-07-20T10:45:50Z</time>
      </trkpt>
      <trkpt lat="43.11972" lon="6.25725">
        <ele>2.7</ele>
        <time>2021-07-20T10:45:51Z</time>
      </trkpt>
      <trkpt lat="43.11972" lon="6.25724">
        <ele>2.8</ele>
        <time>2021-07-20T10:45:52Z</time>
      </trkpt>
      <trkpt lat="43.11973" lon="6.25723">
        <ele>2.9</ele>
        <time>2021-07-20T10:45:53Z</time>
      </trkpt>
      <trkpt lat="43.11973" lon="6.25721">
        <ele>2.9</ele>
        <time>2021-07-20T10:45:54Z</time>
      </trkpt>
      <trkpt lat="43.11974" lon="6.2572">
        <ele>2.9</ele>
        <time>2021-07-20T10:45:56Z</time>
      </trkpt>
      <trkpt lat="43.11975" lon="6.25719">
        <ele>3</ele>
        <time>2021-07-20T10:45:57Z</time>
      </trkpt>
      <trkpt lat="43.11976" lon="6.25718">
        <ele>3</ele>
        <time>2021-07-20T10:45:58Z</time>
      </trkpt>
      <trkpt lat="43.11976" lon="6.25717">
        <ele>3.1</ele>
        <time>2021-07-20T10:45:59Z</time>
      </trkpt>
      <trkpt lat="43.11977" lon="6.25715">
        <ele>3.1</ele>
        <time>2021-07-20T10:46:01Z</time>
      </trkpt>
      <trkpt lat="43.11978" lon="6.25714">
        <ele>3.1</ele>
        <time>2021-07-20T10:46:02Z</time>
      </trkpt>
      <trkpt lat="43.11979" lon="6.25714">
        <ele>3.2</ele>
        <time>2021-07-20T10:46:03Z</time>
      </trkpt>
      <trkpt lat="43.1198" lon="6.25713">
        <ele>3.2</ele>
        <time>2021-07-20T10:46:04Z</time>
      </trkpt>
      <trkpt lat="43.11981" lon="6.25712">
        <ele>3.3</ele>
        <time>2021-07-20T10:46:06Z</time>
      </trkpt>
      <trkpt lat="43.11981" lon="6.25711">
        <ele>3.3</ele>
        <time>2021-07-20T10:46:07Z</time>
      </trkpt>
      <trkpt lat="43.11982" lon="6.25709">
        <ele>3.3</ele>
        <time>2021-07-20T10:46:09Z</time>
      </trkpt>
      <trkpt lat="43.11983" lon="6.25708">
        <ele>3.4</ele>
        <time>2021-07-20T10:46:10Z</time>
      </trkpt>
      <trkpt lat="43.11983" lon="6.25707">
        <ele>3.5</ele>
        <time>2021-07-20T10:46:11Z</time>
      </trkpt>
      <trkpt lat="43.11984" lon="6.25706">
        <ele>3.5</ele>
        <time>2021-07-20T10:46:12Z</time>
      </trkpt>
      <trkpt lat="43.11984" lon="6.25705">
        <ele>3.5</ele>
        <time>2021-07-20T10:46:13Z</time>
      </trkpt>
      <trkpt lat="43.11985" lon="6.25704">
        <ele>3.5</ele>
        <time>2021-07-20T10:46:14Z</time>
      </trkpt>
      <trkpt lat="43.11985" lon="6.25703">
        <ele>3.5</ele>
        <time>2021-07-20T10:46:15Z</time>
      </trkpt>
      <trkpt lat="43.11986" lon="6.25703">
        <ele>3.5</ele>
        <time>2021-07-20T10:46:16Z</time>
      </trkpt>
      <trkpt lat="43.11987" lon="6.25702">
        <ele>3.5</ele>
        <time>2021-07-20T10:46:17Z</time>
      </trkpt>
      <trkpt lat="43.11987" lon="6.25702">
        <ele>3.6</ele>
        <time>2021-07-20T10:46:18Z</time>
      </trkpt>
      <trkpt lat="43.11989" lon="6.25703">
        <ele>3.6</ele>
        <time>2021-07-20T10:46:20Z</time>
      </trkpt>
      <trkpt lat="43.1199" lon="6.25703">
        <ele>3.6</ele>
        <time>2021-07-20T10:46:21Z</time>
      </trkpt>
      <trkpt lat="43.11991" lon="6.25703">
        <ele>3.6</ele>
        <time>2021-07-20T10:46:22Z</time>
      </trkpt>
      <trkpt lat="43.11992" lon="6.25704">
        <ele>3.6</ele>
        <time>2021-07-20T10:46:23Z</time>
      </trkpt>
      <trkpt lat="43.11993" lon="6.25704">
        <ele>3.7</ele>
        <time>2021-07-20T10:46:25Z</time>
      </trkpt>
      <trkpt lat="43.11994" lon="6.25704">
        <ele>3.7</ele>
        <time>2021-07-20T10:46:26Z</time>
      </trkpt>
      <trkpt lat="43.11995" lon="6.25704">
        <ele>3.7</ele>
        <time>2021-07-20T10:46:27Z</time>
      </trkpt>
      <trkpt lat="43.11996" lon="6.25703">
        <ele>3.7</ele>
        <time>2021-07-20T10:46:28Z</time>
      </trkpt>
      <trkpt lat="43.11997" lon="6.25703">
        <ele>3.7</ele>
        <time>2021-07-20T10:46:29Z</time>
      </trkpt>
      <trkpt lat="43.11998" lon="6.25703">
        <ele>3.7</ele>
        <time>2021-07-20T10:46:30Z</time>
      </trkpt>
      <trkpt lat="43.12" lon="6.25703">
        <ele>3.8</ele>
        <time>2021-07-20T10:46:31Z</time>
      </trkpt>
      <trkpt lat="43.12001" lon="6.25703">
        <ele>3.8</ele>
        <time>2021-07-20T10:46:32Z</time>
      </trkpt>
      <trkpt lat="43.12003" lon="6.25702">
        <ele>3.8</ele>
        <time>2021-07-20T10:46:34Z</time>
      </trkpt>
      <trkpt lat="43.12005" lon="6.257">
        <ele>3.9</ele>
        <time>2021-07-20T10:46:35Z</time>
      </trkpt>
      <trkpt lat="43.12006" lon="6.257">
        <ele>3.9</ele>
        <time>2021-07-20T10:46:36Z</time>
      </trkpt>
      <trkpt lat="43.12007" lon="6.257">
        <ele>3.9</ele>
        <time>2021-07-20T10:46:37Z</time>
      </trkpt>
      <trkpt lat="43.12009" lon="6.257">
        <ele>3.9</ele>
        <time>2021-07-20T10:46:39Z</time>
      </trkpt>
      <trkpt lat="43.1201" lon="6.257">
        <ele>3.9</ele>
        <time>2021-07-20T10:46:40Z</time>
      </trkpt>
      <trkpt lat="43.12011" lon="6.25701">
        <ele>3.9</ele>
        <time>2021-07-20T10:46:41Z</time>
      </trkpt>
      <trkpt lat="43.12012" lon="6.25701">
        <ele>4</ele>
        <time>2021-07-20T10:46:42Z</time>
      </trkpt>
      <trkpt lat="43.12014" lon="6.25703">
        <ele>4</ele>
        <time>2021-07-20T10:46:44Z</time>
      </trkpt>
      <trkpt lat="43.12015" lon="6.25703">
        <ele>4</ele>
        <time>2021-07-20T10:46:45Z</time>
      </trkpt>
      <trkpt lat="43.12016" lon="6.25704">
        <ele>4</ele>
        <time>2021-07-20T10:46:46Z</time>
      </trkpt>
      <trkpt lat="43.12017" lon="6.25705">
        <ele>4</ele>
        <time>2021-07-20T10:46:47Z</time>
      </trkpt>
      <trkpt lat="43.12018" lon="6.25706">
        <ele>4</ele>
        <time>2021-07-20T10:46:49Z</time>
      </trkpt>
      <trkpt lat="43.12019" lon="6.25707">
        <ele>4</ele>
        <time>2021-07-20T10:46:50Z</time>
      </trkpt>
      <trkpt lat="43.1202" lon="6.25708">
        <ele>4</ele>
        <time>2021-07-20T10:46:51Z</time>
      </trkpt>
      <trkpt lat="43.12022" lon="6.25709">
        <ele>4</ele>
        <time>2021-07-20T10:46:52Z</time>
      </trkpt>
      <trkpt lat="43.12024" lon="6.2571">
        <ele>4.1</ele>
        <time>2021-07-20T10:46:53Z</time>
      </trkpt>
      <trkpt lat="43.12024" lon="6.25711">
        <ele>4.1</ele>
        <time>2021-07-20T10:46:54Z</time>
      </trkpt>
      <trkpt lat="43.12025" lon="6.25712">
        <ele>4.1</ele>
        <time>2021-07-20T10:46:55Z</time>
      </trkpt>
      <trkpt lat="43.12026" lon="6.25712">
        <ele>4.1</ele>
        <time>2021-07-20T10:46:56Z</time>
      </trkpt>
      <trkpt lat="43.12029" lon="6.25712">
        <ele>4.1</ele>
        <time>2021-07-20T10:46:58Z</time>
      </trkpt>
      <trkpt lat="43.12031" lon="6.25714">
        <ele>4.1</ele>
        <time>2021-07-20T10:47:00Z</time>
      </trkpt>
      <trkpt lat="43.12031" lon="6.25714">
        <ele>4.1</ele>
        <time>2021-07-20T10:47:01Z</time>
      </trkpt>
      <trkpt lat="43.12032" lon="6.25715">
        <ele>4.1</ele>
        <time>2021-07-20T10:47:02Z</time>
      </trkpt>
      <trkpt lat="43.12033" lon="6.25716">
        <ele>4.1</ele>
        <time>2021-07-20T10:47:03Z</time>
      </trkpt>
      <trkpt lat="43.12034" lon="6.25717">
        <ele>4.1</ele>
        <time>2021-07-20T10:47:04Z</time>
      </trkpt>
      <trkpt lat="43.12035" lon="6.25718">
        <ele>4.2</ele>
        <time>2021-07-20T10:47:05Z</time>
      </trkpt>
      <trkpt lat="43.12036" lon="6.25718">
        <ele>4.2</ele>
        <time>2021-07-20T10:47:06Z</time>
      </trkpt>
      <trkpt lat="43.12037" lon="6.25718">
        <ele>4.2</ele>
        <time>2021-07-20T10:47:08Z</time>
      </trkpt>
      <trkpt lat="43.12037" lon="6.25719">
        <ele>4.2</ele>
        <time>2021-07-20T10:47:09Z</time>
      </trkpt>
      <trkpt lat="43.12038" lon="6.2572">
        <ele>4.2</ele>
        <time>2021-07-20T10:47:10Z</time>
      </trkpt>
      <trkpt lat="43.12039" lon="6.25721">
        <ele>4.2</ele>
        <time>2021-07-20T10:47:11Z</time>
      </trkpt>
      <trkpt lat="43.1204" lon="6.25721">
        <ele>4.2</ele>
        <time>2021-07-20T10:47:12Z</time>
      </trkpt>
      <trkpt lat="43.12042" lon="6.25723">
        <ele>4.2</ele>
        <time>2021-07-20T10:47:13Z</time>
      </trkpt>
      <trkpt lat="43.12042" lon="6.25724">
        <ele>4.2</ele>
        <time>2021-07-20T10:47:14Z</time>
      </trkpt>
      <trkpt lat="43.12043" lon="6.25724">
        <ele>4.2</ele>
        <time>2021-07-20T10:47:15Z</time>
      </trkpt>
      <trkpt lat="43.12044" lon="6.25725">
        <ele>4.2</ele>
        <time>2021-07-20T10:47:16Z</time>
      </trkpt>
      <trkpt lat="43.12045" lon="6.25725">
        <ele>4.3</ele>
        <time>2021-07-20T10:47:18Z</time>
      </trkpt>
      <trkpt lat="43.12046" lon="6.25724">
        <ele>4.3</ele>
        <time>2021-07-20T10:47:19Z</time>
      </trkpt>
      <trkpt lat="43.12048" lon="6.25723">
        <ele>4.3</ele>
        <time>2021-07-20T10:47:20Z</time>
      </trkpt>
      <trkpt lat="43.12049" lon="6.25723">
        <ele>4.3</ele>
        <time>2021-07-20T10:47:21Z</time>
      </trkpt>
      <trkpt lat="43.1205" lon="6.25722">
        <ele>4.3</ele>
        <time>2021-07-20T10:47:22Z</time>
      </trkpt>
      <trkpt lat="43.12051" lon="6.25722">
        <ele>4.3</ele>
        <time>2021-07-20T10:47:23Z</time>
      </trkpt>
      <trkpt lat="43.12052" lon="6.25721">
        <ele>4.3</ele>
        <time>2021-07-20T10:47:24Z</time>
      </trkpt>
      <trkpt lat="43.12054" lon="6.2572">
        <ele>4.3</ele>
        <time>2021-07-20T10:47:26Z</time>
      </trkpt>
      <trkpt lat="43.12055" lon="6.25719">
        <ele>4.3</ele>
        <time>2021-07-20T10:47:27Z</time>
      </trkpt>
      <trkpt lat="43.12056" lon="6.25719">
        <ele>4.3</ele>
        <time>2021-07-20T10:47:28Z</time>
      </trkpt>
      <trkpt lat="43.12057" lon="6.25718">
        <ele>4.3</ele>
        <time>2021-07-20T10:47:29Z</time>
      </trkpt>
      <trkpt lat="43.12058" lon="6.25718">
        <ele>4.3</ele>
        <time>2021-07-20T10:47:30Z</time>
      </trkpt>
      <trkpt lat="43.12059" lon="6.25717">
        <ele>4.3</ele>
        <time>2021-07-20T10:47:32Z</time>
      </trkpt>
      <trkpt lat="43.12061" lon="6.25716">
        <ele>4.4</ele>
        <time>2021-07-20T10:47:33Z</time>
      </trkpt>
      <trkpt lat="43.12062" lon="6.25716">
        <ele>4.4</ele>
        <time>2021-07-20T10:47:34Z</time>
      </trkpt>
      <trkpt lat="43.12064" lon="6.25716">
        <ele>4.4</ele>
        <time>2021-07-20T10:47:35Z</time>
      </trkpt>
      <trkpt lat="43.12065" lon="6.25717">
        <ele>4.4</ele>
        <time>2021-07-20T10:47:36Z</time>
      </trkpt>
      <trkpt lat="43.12066" lon="6.25717">
        <ele>4.4</ele>
        <time>2021-07-20T10:47:37Z</time>
      </trkpt>
      <trkpt lat="43.12066" lon="6.25718">
        <ele>4.4</ele>
        <time>2021-07-20T10:47:38Z</time>
      </trkpt>
      <trkpt lat="43.12067" lon="6.2572">
        <ele>4.4</ele>
        <time>2021-07-20T10:47:40Z</time>
      </trkpt>
      <trkpt lat="43.12068" lon="6.25721">
        <ele>4.4</ele>
        <time>2021-07-20T10:47:41Z</time>
      </trkpt>
      <trkpt lat="43.12068" lon="6.25722">
        <ele>4.4</ele>
        <time>2021-07-20T10:47:42Z</time>
      </trkpt>
      <trkpt lat="43.12069" lon="6.25723">
        <ele>4.4</ele>
        <time>2021-07-20T10:47:44Z</time>
      </trkpt>
      <trkpt lat="43.1207" lon="6.25724">
        <ele>4.4</ele>
        <time>2021-07-20T10:47:45Z</time>
      </trkpt>
      <trkpt lat="43.12071" lon="6.25725">
        <ele>4.4</ele>
        <time>2021-07-20T10:47:46Z</time>
      </trkpt>
      <trkpt lat="43.12072" lon="6.25726">
        <ele>4.5</ele>
        <time>2021-07-20T10:47:48Z</time>
      </trkpt>
      <trkpt lat="43.12072" lon="6.25726">
        <ele>4.5</ele>
        <time>2021-07-20T10:47:49Z</time>
      </trkpt>
      <trkpt lat="43.12074" lon="6.25727">
        <ele>4.5</ele>
        <time>2021-07-20T10:47:50Z</time>
      </trkpt>
      <trkpt lat="43.12075" lon="6.25729">
        <ele>4.5</ele>
        <time>2021-07-20T10:47:51Z</time>
      </trkpt>
      <trkpt lat="43.12077" lon="6.2573">
        <ele>4.5</ele>
        <time>2021-07-20T10:47:52Z</time>
      </trkpt>
      <trkpt lat="43.12078" lon="6.25731">
        <ele>4.5</ele>
        <time>2021-07-20T10:47:53Z</time>
      </trkpt>
      <trkpt lat="43.12079" lon="6.25731">
        <ele>4.5</ele>
        <time>2021-07-20T10:47:55Z</time>
      </trkpt>
      <trkpt lat="43.12079" lon="6.25732">
        <ele>4.5</ele>
        <time>2021-07-20T10:47:56Z</time>
      </trkpt>
      <trkpt lat="43.1208" lon="6.25733">
        <ele>4.5</ele>
        <time>2021-07-20T10:47:57Z</time>
      </trkpt>
      <trkpt lat="43.12081" lon="6.25733">
        <ele>4.5</ele>
        <time>2021-07-20T10:47:58Z</time>
      </trkpt>
      <trkpt lat="43.12082" lon="6.25734">
        <ele>4.5</ele>
        <time>2021-07-20T10:47:59Z</time>
      </trkpt>
      <trkpt lat="43.12083" lon="6.25736">
        <ele>4.5</ele>
        <time>2021-07-20T10:48:00Z</time>
      </trkpt>
      <trkpt lat="43.12083" lon="6.25736">
        <ele>4.5</ele>
        <time>2021-07-20T10:48:01Z</time>
      </trkpt>
      <trkpt lat="43.12084" lon="6.25736">
        <ele>4.5</ele>
        <time>2021-07-20T10:48:02Z</time>
      </trkpt>
      <trkpt lat="43.12086" lon="6.25737">
        <ele>4.6</ele>
        <time>2021-07-20T10:48:04Z</time>
      </trkpt>
      <trkpt lat="43.12087" lon="6.25737">
        <ele>4.6</ele>
        <time>2021-07-20T10:48:05Z</time>
      </trkpt>
      <trkpt lat="43.12088" lon="6.25738">
        <ele>4.6</ele>
        <time>2021-07-20T10:48:06Z</time>
      </trkpt>
      <trkpt lat="43.12089" lon="6.25739">
        <ele>4.6</ele>
        <time>2021-07-20T10:48:07Z</time>
      </trkpt>
      <trkpt lat="43.1209" lon="6.25739">
        <ele>4.6</ele>
        <time>2021-07-20T10:48:08Z</time>
      </trkpt>
      <trkpt lat="43.12092" lon="6.25741">
        <ele>4.6</ele>
        <time>2021-07-20T10:48:10Z</time>
      </trkpt>
      <trkpt lat="43.12093" lon="6.25742">
        <ele>4.6</ele>
        <time>2021-07-20T10:48:11Z</time>
      </trkpt>
      <trkpt lat="43.12094" lon="6.25743">
        <ele>4.6</ele>
        <time>2021-07-20T10:48:12Z</time>
      </trkpt>
      <trkpt lat="43.12095" lon="6.25744">
        <ele>4.6</ele>
        <time>2021-07-20T10:48:13Z</time>
      </trkpt>
      <trkpt lat="43.12096" lon="6.25747">
        <ele>4.6</ele>
        <time>2021-07-20T10:48:15Z</time>
      </trkpt>
      <trkpt lat="43.12097" lon="6.25748">
        <ele>4.6</ele>
        <time>2021-07-20T10:48:16Z</time>
      </trkpt>
      <trkpt lat="43.12098" lon="6.25749">
        <ele>4.6</ele>
        <time>2021-07-20T10:48:17Z</time>
      </trkpt>
      <trkpt lat="43.12098" lon="6.2575">
        <ele>4.6</ele>
        <time>2021-07-20T10:48:18Z</time>
      </trkpt>
      <trkpt lat="43.12099" lon="6.25752">
        <ele>4.6</ele>
        <time>2021-07-20T10:48:20Z</time>
      </trkpt>
      <trkpt lat="43.121" lon="6.25754">
        <ele>4.6</ele>
        <time>2021-07-20T10:48:21Z</time>
      </trkpt>
      <trkpt lat="43.12102" lon="6.25756">
        <ele>4.6</ele>
        <time>2021-07-20T10:48:23Z</time>
      </trkpt>
      <trkpt lat="43.12103" lon="6.25758">
        <ele>4.6</ele>
        <time>2021-07-20T10:48:24Z</time>
      </trkpt>
      <trkpt lat="43.12104" lon="6.25759">
        <ele>4.6</ele>
        <time>2021-07-20T10:48:25Z</time>
      </trkpt>
      <trkpt lat="43.12105" lon="6.2576">
        <ele>4.6</ele>
        <time>2021-07-20T10:48:26Z</time>
      </trkpt>
      <trkpt lat="43.12107" lon="6.25763">
        <ele>4.6</ele>
        <time>2021-07-20T10:48:28Z</time>
      </trkpt>
      <trkpt lat="43.12108" lon="6.25764">
        <ele>4.6</ele>
        <time>2021-07-20T10:48:29Z</time>
      </trkpt>
      <trkpt lat="43.12109" lon="6.25765">
        <ele>4.6</ele>
        <time>2021-07-20T10:48:30Z</time>
      </trkpt>
      <trkpt lat="43.1211" lon="6.25767">
        <ele>4.7</ele>
        <time>2021-07-20T10:48:31Z</time>
      </trkpt>
      <trkpt lat="43.12111" lon="6.25768">
        <ele>4.7</ele>
        <time>2021-07-20T10:48:32Z</time>
      </trkpt>
      <trkpt lat="43.12112" lon="6.25769">
        <ele>4.7</ele>
        <time>2021-07-20T10:48:33Z</time>
      </trkpt>
      <trkpt lat="43.12114" lon="6.25771">
        <ele>4.7</ele>
        <time>2021-07-20T10:48:35Z</time>
      </trkpt>
      <trkpt lat="43.12115" lon="6.25771">
        <ele>4.7</ele>
        <time>2021-07-20T10:48:36Z</time>
      </trkpt>
      <trkpt lat="43.12115" lon="6.25771">
        <ele>4.7</ele>
        <time>2021-07-20T10:48:38Z</time>
      </trkpt>
      <trkpt lat="43.12114" lon="6.25771">
        <ele>4.7</ele>
        <time>2021-07-20T10:48:39Z</time>
      </trkpt>
      <trkpt lat="43.12114" lon="6.25772">
        <ele>4.7</ele>
        <time>2021-07-20T10:48:40Z</time>
      </trkpt>
      <trkpt lat="43.12113" lon="6.25774">
        <ele>4.7</ele>
        <time>2021-07-20T10:48:41Z</time>
      </trkpt>
      <trkpt lat="43.12113" lon="6.25775">
        <ele>4.7</ele>
        <time>2021-07-20T10:48:42Z</time>
      </trkpt>
      <trkpt lat="43.12112" lon="6.25776">
        <ele>4.7</ele>
        <time>2021-07-20T10:48:44Z</time>
      </trkpt>
      <trkpt lat="43.12112" lon="6.25776">
        <ele>4.7</ele>
        <time>2021-07-20T10:48:45Z</time>
      </trkpt>
      <trkpt lat="43.12112" lon="6.25777">
        <ele>4.7</ele>
        <time>2021-07-20T10:48:46Z</time>
      </trkpt>
      <trkpt lat="43.12111" lon="6.25777">
        <ele>4.7</ele>
        <time>2021-07-20T10:48:47Z</time>
      </trkpt>
      <trkpt lat="43.12111" lon="6.25777">
        <ele>4.7</ele>
        <time>2021-07-20T10:48:48Z</time>
      </trkpt>
      <trkpt lat="43.12111" lon="6.25777">
        <ele>4.7</ele>
        <time>2021-07-20T10:48:50Z</time>
      </trkpt>
      <trkpt lat="43.12111" lon="6.25777">
        <ele>4.7</ele>
        <time>2021-07-20T10:48:51Z</time>
      </trkpt>
      <trkpt lat="43.12111" lon="6.25777">
        <ele>4.7</ele>
        <time>2021-07-20T10:48:53Z</time>
      </trkpt>
      <trkpt lat="43.12111" lon="6.25777">
        <ele>4.7</ele>
        <time>2021-07-20T10:48:54Z</time>
      </trkpt>
      <trkpt lat="43.12111" lon="6.25777">
        <ele>4.7</ele>
        <time>2021-07-20T10:48:56Z</time>
      </trkpt>
      <trkpt lat="43.12111" lon="6.25777">
        <ele>4.7</ele>
        <time>2021-07-20T10:48:57Z</time>
      </trkpt>
      <trkpt lat="43.12111" lon="6.25777">
        <ele>4.7</ele>
        <time>2021-07-20T10:48:58Z</time>
      </trkpt>
      <trkpt lat="43.12112" lon="6.25777">
        <ele>4.7</ele>
        <time>2021-07-20T10:49:00Z</time>
      </trkpt>
      <trkpt lat="43.12112" lon="6.25777">
        <ele>4.7</ele>
        <time>2021-07-20T10:49:02Z</time>
      </trkpt>
      <trkpt lat="43.12112" lon="6.25777">
        <ele>4.7</ele>
        <time>2021-07-20T10:49:03Z</time>
      </trkpt>
      <trkpt lat="43.12112" lon="6.25776">
        <ele>4.7</ele>
        <time>2021-07-20T10:49:05Z</time>
      </trkpt>
      <trkpt lat="43.12112" lon="6.25776">
        <ele>4.7</ele>
        <time>2021-07-20T10:49:06Z</time>
      </trkpt>
      <trkpt lat="43.12112" lon="6.25776">
        <ele>4.7</ele>
        <time>2021-07-20T10:49:08Z</time>
      </trkpt>
      <trkpt lat="43.12112" lon="6.25776">
        <ele>4.7</ele>
        <time>2021-07-20T10:49:10Z</time>
      </trkpt>
      <trkpt lat="43.12112" lon="6.25776">
        <ele>4.7</ele>
        <time>2021-07-20T10:49:11Z</time>
      </trkpt>
      <trkpt lat="43.12112" lon="6.25776">
        <ele>4.7</ele>
        <time>2021-07-20T10:49:12Z</time>
      </trkpt>
      <trkpt lat="43.12112" lon="6.25776">
        <ele>4.7</ele>
        <time>2021-07-20T10:49:14Z</time>
      </trkpt>
      <trkpt lat="43.12112" lon="6.25776">
        <ele>4.7</ele>
        <time>2021-07-20T10:49:15Z</time>
      </trkpt>
      <trkpt lat="43.12112" lon="6.25776">
        <ele>4.7</ele>
        <time>2021-07-20T10:49:16Z</time>
      </trkpt>
      <trkpt lat="43.12112" lon="6.25776">
        <ele>4.7</ele>
        <time>2021-07-20T10:49:17Z</time>
      </trkpt>
      <trkpt lat="43.12112" lon="6.25776">
        <ele>4.7</ele>
        <time>2021-07-20T10:49:18Z</time>
      </trkpt>
      <trkpt lat="43.12112" lon="6.25776">
        <ele>4.7</ele>
        <time>2021-07-20T10:49:20Z</time>
      </trkpt>
      <trkpt lat="43.12113" lon="6.25776">
        <ele>4.7</ele>
        <time>2021-07-20T10:49:21Z</time>
      </trkpt>
      <trkpt lat="43.12115" lon="6.25779">
        <ele>4.7</ele>
        <time>2021-07-20T10:49:23Z</time>
      </trkpt>
      <trkpt lat="43.12117" lon="6.2578">
        <ele>4.8</ele>
        <time>2021-07-20T10:49:24Z</time>
      </trkpt>
      <trkpt lat="43.12117" lon="6.2578">
        <ele>4.8</ele>
        <time>2021-07-20T10:49:26Z</time>
      </trkpt>
      <trkpt lat="43.12118" lon="6.25781">
        <ele>4.8</ele>
        <time>2021-07-20T10:49:27Z</time>
      </trkpt>
      <trkpt lat="43.12118" lon="6.25781">
        <ele>4.8</ele>
        <time>2021-07-20T10:49:28Z</time>
      </trkpt>
      <trkpt lat="43.12121" lon="6.25784">
        <ele>4.8</ele>
        <time>2021-07-20T10:49:30Z</time>
      </trkpt>
      <trkpt lat="43.12121" lon="6.25785">
        <ele>4.8</ele>
        <time>2021-07-20T10:49:31Z</time>
      </trkpt>
      <trkpt lat="43.12122" lon="6.25787">
        <ele>4.9</ele>
        <time>2021-07-20T10:49:33Z</time>
      </trkpt>
      <trkpt lat="43.12123" lon="6.25789">
        <ele>4.9</ele>
        <time>2021-07-20T10:49:34Z</time>
      </trkpt>
      <trkpt lat="43.12124" lon="6.25791">
        <ele>4.9</ele>
        <time>2021-07-20T10:49:35Z</time>
      </trkpt>
      <trkpt lat="43.12124" lon="6.25792">
        <ele>4.9</ele>
        <time>2021-07-20T10:49:36Z</time>
      </trkpt>
      <trkpt lat="43.12125" lon="6.25794">
        <ele>4.9</ele>
        <time>2021-07-20T10:49:37Z</time>
      </trkpt>
      <trkpt lat="43.12126" lon="6.25795">
        <ele>4.9</ele>
        <time>2021-07-20T10:49:38Z</time>
      </trkpt>
      <trkpt lat="43.12127" lon="6.25797">
        <ele>4.9</ele>
        <time>2021-07-20T10:49:39Z</time>
      </trkpt>
      <trkpt lat="43.12127" lon="6.25798">
        <ele>4.9</ele>
        <time>2021-07-20T10:49:40Z</time>
      </trkpt>
      <trkpt lat="43.12128" lon="6.25799">
        <ele>4.9</ele>
        <time>2021-07-20T10:49:41Z</time>
      </trkpt>
      <trkpt lat="43.12128" lon="6.258">
        <ele>4.9</ele>
        <time>2021-07-20T10:49:42Z</time>
      </trkpt>
      <trkpt lat="43.12129" lon="6.25802">
        <ele>5</ele>
        <time>2021-07-20T10:49:44Z</time>
      </trkpt>
      <trkpt lat="43.1213" lon="6.25803">
        <ele>5</ele>
        <time>2021-07-20T10:49:45Z</time>
      </trkpt>
      <trkpt lat="43.12131" lon="6.25803">
        <ele>5</ele>
        <time>2021-07-20T10:49:46Z</time>
      </trkpt>
      <trkpt lat="43.12132" lon="6.25803">
        <ele>5</ele>
        <time>2021-07-20T10:49:47Z</time>
      </trkpt>
      <trkpt lat="43.12133" lon="6.25803">
        <ele>5</ele>
        <time>2021-07-20T10:49:48Z</time>
      </trkpt>
      <trkpt lat="43.12134" lon="6.25805">
        <ele>5</ele>
        <time>2021-07-20T10:49:50Z</time>
      </trkpt>
      <trkpt lat="43.12135" lon="6.25806">
        <ele>5</ele>
        <time>2021-07-20T10:49:51Z</time>
      </trkpt>
      <trkpt lat="43.12137" lon="6.25806">
        <ele>5</ele>
        <time>2021-07-20T10:49:53Z</time>
      </trkpt>
      <trkpt lat="43.12137" lon="6.25806">
        <ele>5</ele>
        <time>2021-07-20T10:49:54Z</time>
      </trkpt>
      <trkpt lat="43.12137" lon="6.25809">
        <ele>5</ele>
        <time>2021-07-20T10:49:56Z</time>
      </trkpt>
      <trkpt lat="43.12137" lon="6.2581">
        <ele>5</ele>
        <time>2021-07-20T10:49:57Z</time>
      </trkpt>
      <trkpt lat="43.12138" lon="6.25812">
        <ele>5</ele>
        <time>2021-07-20T10:49:59Z</time>
      </trkpt>
      <trkpt lat="43.12138" lon="6.25814">
        <ele>5.1</ele>
        <time>2021-07-20T10:50:00Z</time>
      </trkpt>
      <trkpt lat="43.12139" lon="6.25816">
        <ele>5.1</ele>
        <time>2021-07-20T10:50:01Z</time>
      </trkpt>
      <trkpt lat="43.12139" lon="6.25817">
        <ele>5.1</ele>
        <time>2021-07-20T10:50:02Z</time>
      </trkpt>
      <trkpt lat="43.1214" lon="6.25818">
        <ele>5.1</ele>
        <time>2021-07-20T10:50:04Z</time>
      </trkpt>
      <trkpt lat="43.12141" lon="6.2582">
        <ele>5.1</ele>
        <time>2021-07-20T10:50:05Z</time>
      </trkpt>
      <trkpt lat="43.12142" lon="6.25821">
        <ele>5.1</ele>
        <time>2021-07-20T10:50:06Z</time>
      </trkpt>
      <trkpt lat="43.12143" lon="6.25823">
        <ele>5.1</ele>
        <time>2021-07-20T10:50:07Z</time>
      </trkpt>
      <trkpt lat="43.12144" lon="6.25824">
        <ele>5.1</ele>
        <time>2021-07-20T10:50:08Z</time>
      </trkpt>
      <trkpt lat="43.12145" lon="6.25826">
        <ele>5.2</ele>
        <time>2021-07-20T10:50:09Z</time>
      </trkpt>
      <trkpt lat="43.12146" lon="6.25827">
        <ele>5.2</ele>
        <time>2021-07-20T10:50:10Z</time>
      </trkpt>
      <trkpt lat="43.12146" lon="6.25828">
        <ele>5.2</ele>
        <time>2021-07-20T10:50:11Z</time>
      </trkpt>
      <trkpt lat="43.12147" lon="6.25829">
        <ele>5.2</ele>
        <time>2021-07-20T10:50:12Z</time>
      </trkpt>
      <trkpt lat="43.12148" lon="6.2583">
        <ele>5.2</ele>
        <time>2021-07-20T10:50:13Z</time>
      </trkpt>
      <trkpt lat="43.12149" lon="6.25831">
        <ele>5.2</ele>
        <time>2021-07-20T10:50:14Z</time>
      </trkpt>
      <trkpt lat="43.1215" lon="6.25831">
        <ele>5.2</ele>
        <time>2021-07-20T10:50:16Z</time>
      </trkpt>
      <trkpt lat="43.12151" lon="6.25832">
        <ele>5.3</ele>
        <time>2021-07-20T10:50:17Z</time>
      </trkpt>
      <trkpt lat="43.12152" lon="6.25833">
        <ele>5.3</ele>
        <time>2021-07-20T10:50:18Z</time>
      </trkpt>
      <trkpt lat="43.12152" lon="6.25834">
        <ele>5.3</ele>
        <time>2021-07-20T10:50:19Z</time>
      </trkpt>
      <trkpt lat="43.12153" lon="6.25834">
        <ele>5.3</ele>
        <time>2021-07-20T10:50:20Z</time>
      </trkpt>
      <trkpt lat="43.12155" lon="6.25836">
        <ele>5.3</ele>
        <time>2021-07-20T10:50:22Z</time>
      </trkpt>
      <trkpt lat="43.12155" lon="6.25836">
        <ele>5.3</ele>
        <time>2021-07-20T10:50:23Z</time>
      </trkpt>
      <trkpt lat="43.12156" lon="6.25837">
        <ele>5.3</ele>
        <time>2021-07-20T10:50:24Z</time>
      </trkpt>
      <trkpt lat="43.12157" lon="6.25838">
        <ele>5.4</ele>
        <time>2021-07-20T10:50:25Z</time>
      </trkpt>
      <trkpt lat="43.12158" lon="6.25839">
        <ele>5.4</ele>
        <time>2021-07-20T10:50:26Z</time>
      </trkpt>
      <trkpt lat="43.12159" lon="6.2584">
        <ele>5.4</ele>
        <time>2021-07-20T10:50:28Z</time>
      </trkpt>
      <trkpt lat="43.1216" lon="6.25841">
        <ele>5.4</ele>
        <time>2021-07-20T10:50:29Z</time>
      </trkpt>
      <trkpt lat="43.12161" lon="6.25843">
        <ele>5.4</ele>
        <time>2021-07-20T10:50:30Z</time>
      </trkpt>
      <trkpt lat="43.12162" lon="6.25844">
        <ele>5.5</ele>
        <time>2021-07-20T10:50:31Z</time>
      </trkpt>
      <trkpt lat="43.12164" lon="6.25845">
        <ele>5.5</ele>
        <time>2021-07-20T10:50:33Z</time>
      </trkpt>
      <trkpt lat="43.12165" lon="6.25847">
        <ele>5.5</ele>
        <time>2021-07-20T10:50:35Z</time>
      </trkpt>
      <trkpt lat="43.12166" lon="6.2585">
        <ele>5.6</ele>
        <time>2021-07-20T10:50:36Z</time>
      </trkpt>
      <trkpt lat="43.12166" lon="6.25851">
        <ele>5.6</ele>
        <time>2021-07-20T10:50:37Z</time>
      </trkpt>
      <trkpt lat="43.12167" lon="6.25852">
        <ele>5.6</ele>
        <time>2021-07-20T10:50:38Z</time>
      </trkpt>
      <trkpt lat="43.12168" lon="6.25853">
        <ele>5.6</ele>
        <time>2021-07-20T10:50:39Z</time>
      </trkpt>
      <trkpt lat="43.12169" lon="6.25856">
        <ele>5.7</ele>
        <time>2021-07-20T10:50:41Z</time>
      </trkpt>
      <trkpt lat="43.12171" lon="6.25858">
        <ele>5.7</ele>
        <time>2021-07-20T10:50:42Z</time>
      </trkpt>
      <trkpt lat="43.12171" lon="6.25859">
        <ele>5.7</ele>
        <time>2021-07-20T10:50:44Z</time>
      </trkpt>
      <trkpt lat="43.12172" lon="6.2586">
        <ele>5.7</ele>
        <time>2021-07-20T10:50:45Z</time>
      </trkpt>
      <trkpt lat="43.12174" lon="6.25862">
        <ele>5.8</ele>
        <time>2021-07-20T10:50:46Z</time>
      </trkpt>
      <trkpt lat="43.12174" lon="6.25863">
        <ele>5.8</ele>
        <time>2021-07-20T10:50:47Z</time>
      </trkpt>
      <trkpt lat="43.12175" lon="6.25863">
        <ele>5.8</ele>
        <time>2021-07-20T10:50:48Z</time>
      </trkpt>
      <trkpt lat="43.12176" lon="6.25864">
        <ele>5.8</ele>
        <time>2021-07-20T10:50:49Z</time>
      </trkpt>
      <trkpt lat="43.12177" lon="6.25866">
        <ele>5.9</ele>
        <time>2021-07-20T10:50:50Z</time>
      </trkpt>
      <trkpt lat="43.12178" lon="6.25868">
        <ele>5.9</ele>
        <time>2021-07-20T10:50:52Z</time>
      </trkpt>
      <trkpt lat="43.12179" lon="6.25868">
        <ele>5.9</ele>
        <time>2021-07-20T10:50:53Z</time>
      </trkpt>
      <trkpt lat="43.12179" lon="6.25869">
        <ele>6</ele>
        <time>2021-07-20T10:50:54Z</time>
      </trkpt>
      <trkpt lat="43.1218" lon="6.2587">
        <ele>6</ele>
        <time>2021-07-20T10:50:55Z</time>
      </trkpt>
      <trkpt lat="43.12182" lon="6.25871">
        <ele>6</ele>
        <time>2021-07-20T10:50:56Z</time>
      </trkpt>
      <trkpt lat="43.12182" lon="6.25871">
        <ele>6</ele>
        <time>2021-07-20T10:50:58Z</time>
      </trkpt>
      <trkpt lat="43.12183" lon="6.25871">
        <ele>6</ele>
        <time>2021-07-20T10:50:59Z</time>
      </trkpt>
      <trkpt lat="43.12184" lon="6.25871">
        <ele>6</ele>
        <time>2021-07-20T10:51:00Z</time>
      </trkpt>
      <trkpt lat="43.12184" lon="6.25871">
        <ele>6</ele>
        <time>2021-07-20T10:51:02Z</time>
      </trkpt>
      <trkpt lat="43.12183" lon="6.25872">
        <ele>6</ele>
        <time>2021-07-20T10:51:04Z</time>
      </trkpt>
      <trkpt lat="43.12182" lon="6.25873">
        <ele>6</ele>
        <time>2021-07-20T10:51:05Z</time>
      </trkpt>
      <trkpt lat="43.12181" lon="6.25874">
        <ele>6</ele>
        <time>2021-07-20T10:51:06Z</time>
      </trkpt>
      <trkpt lat="43.1218" lon="6.25876">
        <ele>6</ele>
        <time>2021-07-20T10:51:08Z</time>
      </trkpt>
      <trkpt lat="43.1218" lon="6.25879">
        <ele>6.1</ele>
        <time>2021-07-20T10:51:10Z</time>
      </trkpt>
      <trkpt lat="43.12179" lon="6.2588">
        <ele>6.1</ele>
        <time>2021-07-20T10:51:11Z</time>
      </trkpt>
      <trkpt lat="43.12179" lon="6.25881">
        <ele>6.1</ele>
        <time>2021-07-20T10:51:12Z</time>
      </trkpt>
      <trkpt lat="43.12179" lon="6.25884">
        <ele>6.1</ele>
        <time>2021-07-20T10:51:13Z</time>
      </trkpt>
      <trkpt lat="43.12179" lon="6.25885">
        <ele>6.1</ele>
        <time>2021-07-20T10:51:14Z</time>
      </trkpt>
      <trkpt lat="43.12179" lon="6.25886">
        <ele>6.2</ele>
        <time>2021-07-20T10:51:15Z</time>
      </trkpt>
      <trkpt lat="43.12179" lon="6.25888">
        <ele>6.2</ele>
        <time>2021-07-20T10:51:16Z</time>
      </trkpt>
      <trkpt lat="43.12179" lon="6.25889">
        <ele>6.2</ele>
        <time>2021-07-20T10:51:17Z</time>
      </trkpt>
      <trkpt lat="43.12178" lon="6.25891">
        <ele>6.2</ele>
        <time>2021-07-20T10:51:18Z</time>
      </trkpt>
      <trkpt lat="43.12178" lon="6.25893">
        <ele>6.2</ele>
        <time>2021-07-20T10:51:20Z</time>
      </trkpt>
      <trkpt lat="43.12178" lon="6.25896">
        <ele>6.3</ele>
        <time>2021-07-20T10:51:22Z</time>
      </trkpt>
      <trkpt lat="43.12179" lon="6.25897">
        <ele>6.3</ele>
        <time>2021-07-20T10:51:23Z</time>
      </trkpt>
      <trkpt lat="43.1218" lon="6.25897">
        <ele>6.3</ele>
        <time>2021-07-20T10:51:24Z</time>
      </trkpt>
      <trkpt lat="43.12181" lon="6.25896">
        <ele>6.3</ele>
        <time>2021-07-20T10:51:25Z</time>
      </trkpt>
      <trkpt lat="43.12183" lon="6.25896">
        <ele>6.3</ele>
        <time>2021-07-20T10:51:26Z</time>
      </trkpt>
      <trkpt lat="43.12183" lon="6.25896">
        <ele>6.3</ele>
        <time>2021-07-20T10:51:27Z</time>
      </trkpt>
      <trkpt lat="43.12184" lon="6.25895">
        <ele>6.3</ele>
        <time>2021-07-20T10:51:28Z</time>
      </trkpt>
      <trkpt lat="43.12185" lon="6.25895">
        <ele>6.3</ele>
        <time>2021-07-20T10:51:30Z</time>
      </trkpt>
      <trkpt lat="43.12186" lon="6.25895">
        <ele>6.3</ele>
        <time>2021-07-20T10:51:31Z</time>
      </trkpt>
      <trkpt lat="43.12187" lon="6.25895">
        <ele>6.3</ele>
        <time>2021-07-20T10:51:32Z</time>
      </trkpt>
      <trkpt lat="43.12188" lon="6.25895">
        <ele>6.4</ele>
        <time>2021-07-20T10:51:33Z</time>
      </trkpt>
      <trkpt lat="43.1219" lon="6.25896">
        <ele>6.4</ele>
        <time>2021-07-20T10:51:34Z</time>
      </trkpt>
      <trkpt lat="43.12191" lon="6.25896">
        <ele>6.4</ele>
        <time>2021-07-20T10:51:35Z</time>
      </trkpt>
      <trkpt lat="43.12192" lon="6.25897">
        <ele>6.4</ele>
        <time>2021-07-20T10:51:36Z</time>
      </trkpt>
      <trkpt lat="43.12194" lon="6.25897">
        <ele>6.4</ele>
        <time>2021-07-20T10:51:38Z</time>
      </trkpt>
      <trkpt lat="43.12195" lon="6.25898">
        <ele>6.4</ele>
        <time>2021-07-20T10:51:39Z</time>
      </trkpt>
      <trkpt lat="43.12196" lon="6.25899">
        <ele>6.4</ele>
        <time>2021-07-20T10:51:40Z</time>
      </trkpt>
      <trkpt lat="43.12197" lon="6.25899">
        <ele>6.4</ele>
        <time>2021-07-20T10:51:41Z</time>
      </trkpt>
      <trkpt lat="43.12198" lon="6.259">
        <ele>6.4</ele>
        <time>2021-07-20T10:51:42Z</time>
      </trkpt>
      <trkpt lat="43.12199" lon="6.25899">
        <ele>6.3</ele>
        <time>2021-07-20T10:51:43Z</time>
      </trkpt>
      <trkpt lat="43.12201" lon="6.25897">
        <ele>6.3</ele>
        <time>2021-07-20T10:51:44Z</time>
      </trkpt>
      <trkpt lat="43.12202" lon="6.25896">
        <ele>6.3</ele>
        <time>2021-07-20T10:51:46Z</time>
      </trkpt>
      <trkpt lat="43.12203" lon="6.25895">
        <ele>6.3</ele>
        <time>2021-07-20T10:51:47Z</time>
      </trkpt>
      <trkpt lat="43.12203" lon="6.25894">
        <ele>6.3</ele>
        <time>2021-07-20T10:51:48Z</time>
      </trkpt>
      <trkpt lat="43.12204" lon="6.25892">
        <ele>6.2</ele>
        <time>2021-07-20T10:51:49Z</time>
      </trkpt>
      <trkpt lat="43.12205" lon="6.25891">
        <ele>6.2</ele>
        <time>2021-07-20T10:51:50Z</time>
      </trkpt>
      <trkpt lat="43.12207" lon="6.2589">
        <ele>6.2</ele>
        <time>2021-07-20T10:51:51Z</time>
      </trkpt>
      <trkpt lat="43.12208" lon="6.25889">
        <ele>6.2</ele>
        <time>2021-07-20T10:51:52Z</time>
      </trkpt>
      <trkpt lat="43.12209" lon="6.25888">
        <ele>6.2</ele>
        <time>2021-07-20T10:51:54Z</time>
      </trkpt>
      <trkpt lat="43.1221" lon="6.25887">
        <ele>6.2</ele>
        <time>2021-07-20T10:51:55Z</time>
      </trkpt>
      <trkpt lat="43.12211" lon="6.25884">
        <ele>6.2</ele>
        <time>2021-07-20T10:51:56Z</time>
      </trkpt>
      <trkpt lat="43.12211" lon="6.25883">
        <ele>6.2</ele>
        <time>2021-07-20T10:51:57Z</time>
      </trkpt>
      <trkpt lat="43.12212" lon="6.25882">
        <ele>6.2</ele>
        <time>2021-07-20T10:51:58Z</time>
      </trkpt>
      <trkpt lat="43.12212" lon="6.25881">
        <ele>6.2</ele>
        <time>2021-07-20T10:51:59Z</time>
      </trkpt>
      <trkpt lat="43.12212" lon="6.2588">
        <ele>6.2</ele>
        <time>2021-07-20T10:52:00Z</time>
      </trkpt>
      <trkpt lat="43.12213" lon="6.25879">
        <ele>6.2</ele>
        <time>2021-07-20T10:52:02Z</time>
      </trkpt>
      <trkpt lat="43.12214" lon="6.25879">
        <ele>6.2</ele>
        <time>2021-07-20T10:52:03Z</time>
      </trkpt>
      <trkpt lat="43.12215" lon="6.25879">
        <ele>6.2</ele>
        <time>2021-07-20T10:52:04Z</time>
      </trkpt>
      <trkpt lat="43.12216" lon="6.25878">
        <ele>6.2</ele>
        <time>2021-07-20T10:52:05Z</time>
      </trkpt>
      <trkpt lat="43.12216" lon="6.25878">
        <ele>6.2</ele>
        <time>2021-07-20T10:52:06Z</time>
      </trkpt>
      <trkpt lat="43.12218" lon="6.25877">
        <ele>6.2</ele>
        <time>2021-07-20T10:52:08Z</time>
      </trkpt>
      <trkpt lat="43.12219" lon="6.25876">
        <ele>6.2</ele>
        <time>2021-07-20T10:52:09Z</time>
      </trkpt>
      <trkpt lat="43.1222" lon="6.25876">
        <ele>6.2</ele>
        <time>2021-07-20T10:52:10Z</time>
      </trkpt>
      <trkpt lat="43.12222" lon="6.25876">
        <ele>6.2</ele>
        <time>2021-07-20T10:52:11Z</time>
      </trkpt>
      <trkpt lat="43.12223" lon="6.25876">
        <ele>6.2</ele>
        <time>2021-07-20T10:52:12Z</time>
      </trkpt>
      <trkpt lat="43.12224" lon="6.25875">
        <ele>6.2</ele>
        <time>2021-07-20T10:52:13Z</time>
      </trkpt>
      <trkpt lat="43.12225" lon="6.25875">
        <ele>6.2</ele>
        <time>2021-07-20T10:52:14Z</time>
      </trkpt>
      <trkpt lat="43.12226" lon="6.25875">
        <ele>6.2</ele>
        <time>2021-07-20T10:52:15Z</time>
      </trkpt>
      <trkpt lat="43.12227" lon="6.25875">
        <ele>6.2</ele>
        <time>2021-07-20T10:52:16Z</time>
      </trkpt>
      <trkpt lat="43.12228" lon="6.25875">
        <ele>6.2</ele>
        <time>2021-07-20T10:52:17Z</time>
      </trkpt>
      <trkpt lat="43.12229" lon="6.25875">
        <ele>6.2</ele>
        <time>2021-07-20T10:52:18Z</time>
      </trkpt>
      <trkpt lat="43.1223" lon="6.25876">
        <ele>6.2</ele>
        <time>2021-07-20T10:52:20Z</time>
      </trkpt>
      <trkpt lat="43.12231" lon="6.25875">
        <ele>6.2</ele>
        <time>2021-07-20T10:52:21Z</time>
      </trkpt>
      <trkpt lat="43.12231" lon="6.25873">
        <ele>6.1</ele>
        <time>2021-07-20T10:52:22Z</time>
      </trkpt>
      <trkpt lat="43.12232" lon="6.25871">
        <ele>6.1</ele>
        <time>2021-07-20T10:52:24Z</time>
      </trkpt>
      <trkpt lat="43.12233" lon="6.25869">
        <ele>6.1</ele>
        <time>2021-07-20T10:52:25Z</time>
      </trkpt>
      <trkpt lat="43.12234" lon="6.25868">
        <ele>6.1</ele>
        <time>2021-07-20T10:52:26Z</time>
      </trkpt>
      <trkpt lat="43.12235" lon="6.25867">
        <ele>6.1</ele>
        <time>2021-07-20T10:52:27Z</time>
      </trkpt>
      <trkpt lat="43.12236" lon="6.25864">
        <ele>6.1</ele>
        <time>2021-07-20T10:52:29Z</time>
      </trkpt>
      <trkpt lat="43.12237" lon="6.25862">
        <ele>6.1</ele>
        <time>2021-07-20T10:52:31Z</time>
      </trkpt>
      <trkpt lat="43.12237" lon="6.2586">
        <ele>6.1</ele>
        <time>2021-07-20T10:52:32Z</time>
      </trkpt>
      <trkpt lat="43.12238" lon="6.25858">
        <ele>6.1</ele>
        <time>2021-07-20T10:52:33Z</time>
      </trkpt>
      <trkpt lat="43.12238" lon="6.25856">
        <ele>6.1</ele>
        <time>2021-07-20T10:52:34Z</time>
      </trkpt>
      <trkpt lat="43.12239" lon="6.25854">
        <ele>6.1</ele>
        <time>2021-07-20T10:52:35Z</time>
      </trkpt>
      <trkpt lat="43.1224" lon="6.25853">
        <ele>6</ele>
        <time>2021-07-20T10:52:36Z</time>
      </trkpt>
      <trkpt lat="43.12241" lon="6.25852">
        <ele>6</ele>
        <time>2021-07-20T10:52:37Z</time>
      </trkpt>
      <trkpt lat="43.12242" lon="6.25849">
        <ele>6</ele>
        <time>2021-07-20T10:52:38Z</time>
      </trkpt>
      <trkpt lat="43.12243" lon="6.25848">
        <ele>6</ele>
        <time>2021-07-20T10:52:39Z</time>
      </trkpt>
      <trkpt lat="43.12243" lon="6.25847">
        <ele>6</ele>
        <time>2021-07-20T10:52:40Z</time>
      </trkpt>
      <trkpt lat="43.12244" lon="6.25846">
        <ele>6</ele>
        <time>2021-07-20T10:52:41Z</time>
      </trkpt>
      <trkpt lat="43.12244" lon="6.25844">
        <ele>6</ele>
        <time>2021-07-20T10:52:43Z</time>
      </trkpt>
      <trkpt lat="43.12245" lon="6.25842">
        <ele>6</ele>
        <time>2021-07-20T10:52:44Z</time>
      </trkpt>
      <trkpt lat="43.12246" lon="6.2584">
        <ele>6</ele>
        <time>2021-07-20T10:52:45Z</time>
      </trkpt>
      <trkpt lat="43.12247" lon="6.25839">
        <ele>6</ele>
        <time>2021-07-20T10:52:46Z</time>
      </trkpt>
      <trkpt lat="43.12248" lon="6.25837">
        <ele>6</ele>
        <time>2021-07-20T10:52:47Z</time>
      </trkpt>
      <trkpt lat="43.1225" lon="6.25837">
        <ele>6</ele>
        <time>2021-07-20T10:52:48Z</time>
      </trkpt>
      <trkpt lat="43.12251" lon="6.25836">
        <ele>6</ele>
        <time>2021-07-20T10:52:49Z</time>
      </trkpt>
      <trkpt lat="43.12252" lon="6.25834">
        <ele>6</ele>
        <time>2021-07-20T10:52:50Z</time>
      </trkpt>
      <trkpt lat="43.12253" lon="6.25833">
        <ele>6</ele>
        <time>2021-07-20T10:52:51Z</time>
      </trkpt>
      <trkpt lat="43.12253" lon="6.25831">
        <ele>6</ele>
        <time>2021-07-20T10:52:52Z</time>
      </trkpt>
      <trkpt lat="43.12253" lon="6.2583">
        <ele>6</ele>
        <time>2021-07-20T10:52:54Z</time>
      </trkpt>
      <trkpt lat="43.12254" lon="6.25828">
        <ele>6</ele>
        <time>2021-07-20T10:52:55Z</time>
      </trkpt>
      <trkpt lat="43.12255" lon="6.25826">
        <ele>6</ele>
        <time>2021-07-20T10:52:56Z</time>
      </trkpt>
      <trkpt lat="43.12256" lon="6.25824">
        <ele>6</ele>
        <time>2021-07-20T10:52:57Z</time>
      </trkpt>
      <trkpt lat="43.12256" lon="6.25822">
        <ele>6</ele>
        <time>2021-07-20T10:52:58Z</time>
      </trkpt>
      <trkpt lat="43.12257" lon="6.2582">
        <ele>6.1</ele>
        <time>2021-07-20T10:53:00Z</time>
      </trkpt>
      <trkpt lat="43.12258" lon="6.25818">
        <ele>6.1</ele>
        <time>2021-07-20T10:53:01Z</time>
      </trkpt>
      <trkpt lat="43.12259" lon="6.25816">
        <ele>6.1</ele>
        <time>2021-07-20T10:53:03Z</time>
      </trkpt>
      <trkpt lat="43.12259" lon="6.25813">
        <ele>6.1</ele>
        <time>2021-07-20T10:53:04Z</time>
      </trkpt>
      <trkpt lat="43.1226" lon="6.2581">
        <ele>6.1</ele>
        <time>2021-07-20T10:53:06Z</time>
      </trkpt>
      <trkpt lat="43.12261" lon="6.25809">
        <ele>6.1</ele>
        <time>2021-07-20T10:53:07Z</time>
      </trkpt>
      <trkpt lat="43.12261" lon="6.25807">
        <ele>6.1</ele>
        <time>2021-07-20T10:53:08Z</time>
      </trkpt>
      <trkpt lat="43.12262" lon="6.25806">
        <ele>6.1</ele>
        <time>2021-07-20T10:53:09Z</time>
      </trkpt>
      <trkpt lat="43.12262" lon="6.25803">
        <ele>6.1</ele>
        <time>2021-07-20T10:53:10Z</time>
      </trkpt>
      <trkpt lat="43.12263" lon="6.25802">
        <ele>6.1</ele>
        <time>2021-07-20T10:53:11Z</time>
      </trkpt>
      <trkpt lat="43.12263" lon="6.25801">
        <ele>6.1</ele>
        <time>2021-07-20T10:53:12Z</time>
      </trkpt>
      <trkpt lat="43.12263" lon="6.25798">
        <ele>6.1</ele>
        <time>2021-07-20T10:53:14Z</time>
      </trkpt>
      <trkpt lat="43.12263" lon="6.25797">
        <ele>6.1</ele>
        <time>2021-07-20T10:53:15Z</time>
      </trkpt>
      <trkpt lat="43.12264" lon="6.25795">
        <ele>6.1</ele>
        <time>2021-07-20T10:53:16Z</time>
      </trkpt>
      <trkpt lat="43.12264" lon="6.25793">
        <ele>6.1</ele>
        <time>2021-07-20T10:53:17Z</time>
      </trkpt>
      <trkpt lat="43.12264" lon="6.2579">
        <ele>6.2</ele>
        <time>2021-07-20T10:53:18Z</time>
      </trkpt>
      <trkpt lat="43.12264" lon="6.25789">
        <ele>6.2</ele>
        <time>2021-07-20T10:53:19Z</time>
      </trkpt>
      <trkpt lat="43.12265" lon="6.25788">
        <ele>6.2</ele>
        <time>2021-07-20T10:53:20Z</time>
      </trkpt>
      <trkpt lat="43.12265" lon="6.25785">
        <ele>6.2</ele>
        <time>2021-07-20T10:53:21Z</time>
      </trkpt>
      <trkpt lat="43.12266" lon="6.25784">
        <ele>6.2</ele>
        <time>2021-07-20T10:53:22Z</time>
      </trkpt>
      <trkpt lat="43.12266" lon="6.25783">
        <ele>6.2</ele>
        <time>2021-07-20T10:53:23Z</time>
      </trkpt>
      <trkpt lat="43.12268" lon="6.2578">
        <ele>6.2</ele>
        <time>2021-07-20T10:53:24Z</time>
      </trkpt>
      <trkpt lat="43.12268" lon="6.25779">
        <ele>6.2</ele>
        <time>2021-07-20T10:53:26Z</time>
      </trkpt>
      <trkpt lat="43.12269" lon="6.25778">
        <ele>6.2</ele>
        <time>2021-07-20T10:53:27Z</time>
      </trkpt>
      <trkpt lat="43.1227" lon="6.25776">
        <ele>6.2</ele>
        <time>2021-07-20T10:53:28Z</time>
      </trkpt>
      <trkpt lat="43.1227" lon="6.25775">
        <ele>6.2</ele>
        <time>2021-07-20T10:53:29Z</time>
      </trkpt>
      <trkpt lat="43.12271" lon="6.25774">
        <ele>6.2</ele>
        <time>2021-07-20T10:53:30Z</time>
      </trkpt>
      <trkpt lat="43.12271" lon="6.25773">
        <ele>6.2</ele>
        <time>2021-07-20T10:53:31Z</time>
      </trkpt>
      <trkpt lat="43.12272" lon="6.25772">
        <ele>6.2</ele>
        <time>2021-07-20T10:53:32Z</time>
      </trkpt>
      <trkpt lat="43.12273" lon="6.25769">
        <ele>6.2</ele>
        <time>2021-07-20T10:53:34Z</time>
      </trkpt>
      <trkpt lat="43.12273" lon="6.25767">
        <ele>6.2</ele>
        <time>2021-07-20T10:53:35Z</time>
      </trkpt>
      <trkpt lat="43.12274" lon="6.25766">
        <ele>6.2</ele>
        <time>2021-07-20T10:53:36Z</time>
      </trkpt>
      <trkpt lat="43.12274" lon="6.25764">
        <ele>6.3</ele>
        <time>2021-07-20T10:53:37Z</time>
      </trkpt>
      <trkpt lat="43.12275" lon="6.25763">
        <ele>6.3</ele>
        <time>2021-07-20T10:53:38Z</time>
      </trkpt>
      <trkpt lat="43.12276" lon="6.25762">
        <ele>6.3</ele>
        <time>2021-07-20T10:53:39Z</time>
      </trkpt>
      <trkpt lat="43.12277" lon="6.2576">
        <ele>6.3</ele>
        <time>2021-07-20T10:53:41Z</time>
      </trkpt>
      <trkpt lat="43.12277" lon="6.25758">
        <ele>6.3</ele>
        <time>2021-07-20T10:53:42Z</time>
      </trkpt>
      <trkpt lat="43.12278" lon="6.25756">
        <ele>6.3</ele>
        <time>2021-07-20T10:53:43Z</time>
      </trkpt>
      <trkpt lat="43.12278" lon="6.25755">
        <ele>6.3</ele>
        <time>2021-07-20T10:53:44Z</time>
      </trkpt>
      <trkpt lat="43.12278" lon="6.25751">
        <ele>6.3</ele>
        <time>2021-07-20T10:53:46Z</time>
      </trkpt>
      <trkpt lat="43.12278" lon="6.2575">
        <ele>6.3</ele>
        <time>2021-07-20T10:53:47Z</time>
      </trkpt>
      <trkpt lat="43.12278" lon="6.25749">
        <ele>6.3</ele>
        <time>2021-07-20T10:53:48Z</time>
      </trkpt>
      <trkpt lat="43.12278" lon="6.25747">
        <ele>6.3</ele>
        <time>2021-07-20T10:53:49Z</time>
      </trkpt>
      <trkpt lat="43.12278" lon="6.25746">
        <ele>6.3</ele>
        <time>2021-07-20T10:53:50Z</time>
      </trkpt>
      <trkpt lat="43.12279" lon="6.25744">
        <ele>6.3</ele>
        <time>2021-07-20T10:53:51Z</time>
      </trkpt>
      <trkpt lat="43.12279" lon="6.25742">
        <ele>6.3</ele>
        <time>2021-07-20T10:53:52Z</time>
      </trkpt>
      <trkpt lat="43.1228" lon="6.2574">
        <ele>6.3</ele>
        <time>2021-07-20T10:53:54Z</time>
      </trkpt>
      <trkpt lat="43.1228" lon="6.25739">
        <ele>6.3</ele>
        <time>2021-07-20T10:53:55Z</time>
      </trkpt>
      <trkpt lat="43.12281" lon="6.25737">
        <ele>6.3</ele>
        <time>2021-07-20T10:53:56Z</time>
      </trkpt>
      <trkpt lat="43.12281" lon="6.25736">
        <ele>6.3</ele>
        <time>2021-07-20T10:53:57Z</time>
      </trkpt>
      <trkpt lat="43.12281" lon="6.25734">
        <ele>6.3</ele>
        <time>2021-07-20T10:53:58Z</time>
      </trkpt>
      <trkpt lat="43.12282" lon="6.25732">
        <ele>6.3</ele>
        <time>2021-07-20T10:54:00Z</time>
      </trkpt>
      <trkpt lat="43.12283" lon="6.2573">
        <ele>6.4</ele>
        <time>2021-07-20T10:54:01Z</time>
      </trkpt>
      <trkpt lat="43.12283" lon="6.25728">
        <ele>6.4</ele>
        <time>2021-07-20T10:54:02Z</time>
      </trkpt>
      <trkpt lat="43.12284" lon="6.25726">
        <ele>6.4</ele>
        <time>2021-07-20T10:54:04Z</time>
      </trkpt>
      <trkpt lat="43.12284" lon="6.25724">
        <ele>6.4</ele>
        <time>2021-07-20T10:54:05Z</time>
      </trkpt>
      <trkpt lat="43.12284" lon="6.25723">
        <ele>6.4</ele>
        <time>2021-07-20T10:54:06Z</time>
      </trkpt>
      <trkpt lat="43.12286" lon="6.2572">
        <ele>6.4</ele>
        <time>2021-07-20T10:54:08Z</time>
      </trkpt>
      <trkpt lat="43.12286" lon="6.25719">
        <ele>6.4</ele>
        <time>2021-07-20T10:54:09Z</time>
      </trkpt>
      <trkpt lat="43.12287" lon="6.25717">
        <ele>6.4</ele>
        <time>2021-07-20T10:54:10Z</time>
      </trkpt>
      <trkpt lat="43.12287" lon="6.25716">
        <ele>6.4</ele>
        <time>2021-07-20T10:54:11Z</time>
      </trkpt>
      <trkpt lat="43.12288" lon="6.25714">
        <ele>6.4</ele>
        <time>2021-07-20T10:54:12Z</time>
      </trkpt>
      <trkpt lat="43.12288" lon="6.25713">
        <ele>6.5</ele>
        <time>2021-07-20T10:54:13Z</time>
      </trkpt>
      <trkpt lat="43.12289" lon="6.25711">
        <ele>6.5</ele>
        <time>2021-07-20T10:54:14Z</time>
      </trkpt>
      <trkpt lat="43.12289" lon="6.25709">
        <ele>6.5</ele>
        <time>2021-07-20T10:54:16Z</time>
      </trkpt>
      <trkpt lat="43.1229" lon="6.25708">
        <ele>6.5</ele>
        <time>2021-07-20T10:54:17Z</time>
      </trkpt>
      <trkpt lat="43.12291" lon="6.25705">
        <ele>6.5</ele>
        <time>2021-07-20T10:54:18Z</time>
      </trkpt>
      <trkpt lat="43.12291" lon="6.25704">
        <ele>6.5</ele>
        <time>2021-07-20T10:54:19Z</time>
      </trkpt>
      <trkpt lat="43.12291" lon="6.25703">
        <ele>6.5</ele>
        <time>2021-07-20T10:54:20Z</time>
      </trkpt>
      <trkpt lat="43.12292" lon="6.25701">
        <ele>6.5</ele>
        <time>2021-07-20T10:54:21Z</time>
      </trkpt>
      <trkpt lat="43.12292" lon="6.25699">
        <ele>6.5</ele>
        <time>2021-07-20T10:54:22Z</time>
      </trkpt>
      <trkpt lat="43.12293" lon="6.25696">
        <ele>6.5</ele>
        <time>2021-07-20T10:54:23Z</time>
      </trkpt>
      <trkpt lat="43.12293" lon="6.25695">
        <ele>6.5</ele>
        <time>2021-07-20T10:54:25Z</time>
      </trkpt>
      <trkpt lat="43.12294" lon="6.25693">
        <ele>6.5</ele>
        <time>2021-07-20T10:54:26Z</time>
      </trkpt>
      <trkpt lat="43.12294" lon="6.25692">
        <ele>6.6</ele>
        <time>2021-07-20T10:54:27Z</time>
      </trkpt>
      <trkpt lat="43.12294" lon="6.2569">
        <ele>6.6</ele>
        <time>2021-07-20T10:54:28Z</time>
      </trkpt>
      <trkpt lat="43.12294" lon="6.25689">
        <ele>6.6</ele>
        <time>2021-07-20T10:54:29Z</time>
      </trkpt>
      <trkpt lat="43.12295" lon="6.25687">
        <ele>6.6</ele>
        <time>2021-07-20T10:54:30Z</time>
      </trkpt>
      <trkpt lat="43.12295" lon="6.25685">
        <ele>6.6</ele>
        <time>2021-07-20T10:54:32Z</time>
      </trkpt>
      <trkpt lat="43.12296" lon="6.25683">
        <ele>6.6</ele>
        <time>2021-07-20T10:54:33Z</time>
      </trkpt>
      <trkpt lat="43.12296" lon="6.25682">
        <ele>6.6</ele>
        <time>2021-07-20T10:54:34Z</time>
      </trkpt>
      <trkpt lat="43.12297" lon="6.25679">
        <ele>6.6</ele>
        <time>2021-07-20T10:54:35Z</time>
      </trkpt>
      <trkpt lat="43.12297" lon="6.25678">
        <ele>6.6</ele>
        <time>2021-07-20T10:54:36Z</time>
      </trkpt>
      <trkpt lat="43.12297" lon="6.25677">
        <ele>6.6</ele>
        <time>2021-07-20T10:54:37Z</time>
      </trkpt>
      <trkpt lat="43.12298" lon="6.25676">
        <ele>6.6</ele>
        <time>2021-07-20T10:54:38Z</time>
      </trkpt>
      <trkpt lat="43.12298" lon="6.25674">
        <ele>6.6</ele>
        <time>2021-07-20T10:54:39Z</time>
      </trkpt>
      <trkpt lat="43.12299" lon="6.25672">
        <ele>6.6</ele>
        <time>2021-07-20T10:54:41Z</time>
      </trkpt>
      <trkpt lat="43.12299" lon="6.25669">
        <ele>6.6</ele>
        <time>2021-07-20T10:54:42Z</time>
      </trkpt>
      <trkpt lat="43.123" lon="6.25668">
        <ele>6.6</ele>
        <time>2021-07-20T10:54:43Z</time>
      </trkpt>
      <trkpt lat="43.123" lon="6.25667">
        <ele>6.6</ele>
        <time>2021-07-20T10:54:44Z</time>
      </trkpt>
      <trkpt lat="43.12301" lon="6.25663">
        <ele>6.5</ele>
        <time>2021-07-20T10:54:46Z</time>
      </trkpt>
      <trkpt lat="43.12301" lon="6.25662">
        <ele>6.5</ele>
        <time>2021-07-20T10:54:47Z</time>
      </trkpt>
      <trkpt lat="43.12302" lon="6.25659">
        <ele>6.5</ele>
        <time>2021-07-20T10:54:48Z</time>
      </trkpt>
      <trkpt lat="43.12302" lon="6.25658">
        <ele>6.5</ele>
        <time>2021-07-20T10:54:50Z</time>
      </trkpt>
      <trkpt lat="43.12303" lon="6.25657">
        <ele>6.5</ele>
        <time>2021-07-20T10:54:51Z</time>
      </trkpt>
      <trkpt lat="43.12303" lon="6.25655">
        <ele>6.5</ele>
        <time>2021-07-20T10:54:52Z</time>
      </trkpt>
      <trkpt lat="43.12304" lon="6.25654">
        <ele>6.5</ele>
        <time>2021-07-20T10:54:53Z</time>
      </trkpt>
      <trkpt lat="43.12304" lon="6.25653">
        <ele>6.5</ele>
        <time>2021-07-20T10:54:54Z</time>
      </trkpt>
      <trkpt lat="43.12305" lon="6.25652">
        <ele>6.5</ele>
        <time>2021-07-20T10:54:55Z</time>
      </trkpt>
      <trkpt lat="43.12306" lon="6.25651">
        <ele>6.5</ele>
        <time>2021-07-20T10:54:56Z</time>
      </trkpt>
      <trkpt lat="43.12307" lon="6.25649">
        <ele>6.5</ele>
        <time>2021-07-20T10:54:58Z</time>
      </trkpt>
      <trkpt lat="43.12307" lon="6.25648">
        <ele>6.5</ele>
        <time>2021-07-20T10:54:59Z</time>
      </trkpt>
      <trkpt lat="43.12308" lon="6.25647">
        <ele>6.5</ele>
        <time>2021-07-20T10:55:00Z</time>
      </trkpt>
      <trkpt lat="43.12308" lon="6.25645">
        <ele>6.5</ele>
        <time>2021-07-20T10:55:01Z</time>
      </trkpt>
      <trkpt lat="43.12309" lon="6.25644">
        <ele>6.5</ele>
        <time>2021-07-20T10:55:02Z</time>
      </trkpt>
      <trkpt lat="43.12309" lon="6.25642">
        <ele>6.5</ele>
        <time>2021-07-20T10:55:03Z</time>
      </trkpt>
      <trkpt lat="43.1231" lon="6.25641">
        <ele>6.5</ele>
        <time>2021-07-20T10:55:04Z</time>
      </trkpt>
      <trkpt lat="43.1231" lon="6.25639">
        <ele>6.5</ele>
        <time>2021-07-20T10:55:06Z</time>
      </trkpt>
      <trkpt lat="43.1231" lon="6.25637">
        <ele>6.5</ele>
        <time>2021-07-20T10:55:07Z</time>
      </trkpt>
      <trkpt lat="43.1231" lon="6.25636">
        <ele>6.5</ele>
        <time>2021-07-20T10:55:08Z</time>
      </trkpt>
      <trkpt lat="43.1231" lon="6.25634">
        <ele>6.5</ele>
        <time>2021-07-20T10:55:09Z</time>
      </trkpt>
      <trkpt lat="43.1231" lon="6.25632">
        <ele>6.5</ele>
        <time>2021-07-20T10:55:11Z</time>
      </trkpt>
      <trkpt lat="43.12311" lon="6.2563">
        <ele>6.5</ele>
        <time>2021-07-20T10:55:12Z</time>
      </trkpt>
      <trkpt lat="43.12311" lon="6.25629">
        <ele>6.5</ele>
        <time>2021-07-20T10:55:13Z</time>
      </trkpt>
      <trkpt lat="43.12311" lon="6.25628">
        <ele>6.4</ele>
        <time>2021-07-20T10:55:14Z</time>
      </trkpt>
      <trkpt lat="43.12311" lon="6.25627">
        <ele>6.4</ele>
        <time>2021-07-20T10:55:15Z</time>
      </trkpt>
      <trkpt lat="43.12311" lon="6.25625">
        <ele>6.4</ele>
        <time>2021-07-20T10:55:16Z</time>
      </trkpt>
      <trkpt lat="43.12312" lon="6.25622">
        <ele>6.5</ele>
        <time>2021-07-20T10:55:17Z</time>
      </trkpt>
      <trkpt lat="43.12312" lon="6.25621">
        <ele>6.5</ele>
        <time>2021-07-20T10:55:18Z</time>
      </trkpt>
      <trkpt lat="43.12312" lon="6.2562">
        <ele>6.5</ele>
        <time>2021-07-20T10:55:20Z</time>
      </trkpt>
      <trkpt lat="43.12312" lon="6.25618">
        <ele>6.5</ele>
        <time>2021-07-20T10:55:21Z</time>
      </trkpt>
      <trkpt lat="43.12312" lon="6.25617">
        <ele>6.5</ele>
        <time>2021-07-20T10:55:22Z</time>
      </trkpt>
      <trkpt lat="43.12312" lon="6.25615">
        <ele>6.5</ele>
        <time>2021-07-20T10:55:23Z</time>
      </trkpt>
      <trkpt lat="43.12313" lon="6.25613">
        <ele>6.6</ele>
        <time>2021-07-20T10:55:24Z</time>
      </trkpt>
      <trkpt lat="43.12313" lon="6.25612">
        <ele>6.6</ele>
        <time>2021-07-20T10:55:25Z</time>
      </trkpt>
      <trkpt lat="43.12313" lon="6.25611">
        <ele>6.6</ele>
        <time>2021-07-20T10:55:26Z</time>
      </trkpt>
      <trkpt lat="43.12314" lon="6.25608">
        <ele>6.6</ele>
        <time>2021-07-20T10:55:27Z</time>
      </trkpt>
      <trkpt lat="43.12315" lon="6.25607">
        <ele>6.6</ele>
        <time>2021-07-20T10:55:28Z</time>
      </trkpt>
      <trkpt lat="43.12315" lon="6.25606">
        <ele>6.6</ele>
        <time>2021-07-20T10:55:29Z</time>
      </trkpt>
      <trkpt lat="43.12316" lon="6.25604">
        <ele>6.7</ele>
        <time>2021-07-20T10:55:30Z</time>
      </trkpt>
      <trkpt lat="43.12317" lon="6.25603">
        <ele>6.7</ele>
        <time>2021-07-20T10:55:31Z</time>
      </trkpt>
      <trkpt lat="43.12317" lon="6.25601">
        <ele>6.7</ele>
        <time>2021-07-20T10:55:33Z</time>
      </trkpt>
      <trkpt lat="43.12318" lon="6.25599">
        <ele>6.7</ele>
        <time>2021-07-20T10:55:34Z</time>
      </trkpt>
      <trkpt lat="43.12319" lon="6.25598">
        <ele>6.7</ele>
        <time>2021-07-20T10:55:35Z</time>
      </trkpt>
      <trkpt lat="43.12319" lon="6.25596">
        <ele>6.8</ele>
        <time>2021-07-20T10:55:36Z</time>
      </trkpt>
      <trkpt lat="43.1232" lon="6.25594">
        <ele>6.8</ele>
        <time>2021-07-20T10:55:37Z</time>
      </trkpt>
      <trkpt lat="43.1232" lon="6.25592">
        <ele>6.8</ele>
        <time>2021-07-20T10:55:38Z</time>
      </trkpt>
      <trkpt lat="43.12321" lon="6.2559">
        <ele>6.8</ele>
        <time>2021-07-20T10:55:39Z</time>
      </trkpt>
      <trkpt lat="43.12322" lon="6.25589">
        <ele>6.8</ele>
        <time>2021-07-20T10:55:40Z</time>
      </trkpt>
      <trkpt lat="43.12322" lon="6.25588">
        <ele>6.8</ele>
        <time>2021-07-20T10:55:41Z</time>
      </trkpt>
      <trkpt lat="43.12323" lon="6.25586">
        <ele>6.9</ele>
        <time>2021-07-20T10:55:42Z</time>
      </trkpt>
      <trkpt lat="43.12324" lon="6.25585">
        <ele>6.9</ele>
        <time>2021-07-20T10:55:43Z</time>
      </trkpt>
      <trkpt lat="43.12324" lon="6.25583">
        <ele>6.9</ele>
        <time>2021-07-20T10:55:45Z</time>
      </trkpt>
      <trkpt lat="43.12325" lon="6.2558">
        <ele>6.9</ele>
        <time>2021-07-20T10:55:46Z</time>
      </trkpt>
      <trkpt lat="43.12326" lon="6.25579">
        <ele>7</ele>
        <time>2021-07-20T10:55:47Z</time>
      </trkpt>
      <trkpt lat="43.12326" lon="6.25578">
        <ele>7</ele>
        <time>2021-07-20T10:55:48Z</time>
      </trkpt>
      <trkpt lat="43.12328" lon="6.25576">
        <ele>7</ele>
        <time>2021-07-20T10:55:49Z</time>
      </trkpt>
      <trkpt lat="43.12329" lon="6.25575">
        <ele>7</ele>
        <time>2021-07-20T10:55:51Z</time>
      </trkpt>
      <trkpt lat="43.1233" lon="6.25573">
        <ele>7</ele>
        <time>2021-07-20T10:55:52Z</time>
      </trkpt>
      <trkpt lat="43.12331" lon="6.25571">
        <ele>7.1</ele>
        <time>2021-07-20T10:55:53Z</time>
      </trkpt>
      <trkpt lat="43.12331" lon="6.25569">
        <ele>7.1</ele>
        <time>2021-07-20T10:55:54Z</time>
      </trkpt>
      <trkpt lat="43.12332" lon="6.25568">
        <ele>7.1</ele>
        <time>2021-07-20T10:55:55Z</time>
      </trkpt>
      <trkpt lat="43.12332" lon="6.25566">
        <ele>7.1</ele>
        <time>2021-07-20T10:55:57Z</time>
      </trkpt>
      <trkpt lat="43.12332" lon="6.25564">
        <ele>7.1</ele>
        <time>2021-07-20T10:55:58Z</time>
      </trkpt>
      <trkpt lat="43.12332" lon="6.25563">
        <ele>7.2</ele>
        <time>2021-07-20T10:55:59Z</time>
      </trkpt>
      <trkpt lat="43.12331" lon="6.25563">
        <ele>7.2</ele>
        <time>2021-07-20T10:56:00Z</time>
      </trkpt>
      <trkpt lat="43.12331" lon="6.25562">
        <ele>7.2</ele>
        <time>2021-07-20T10:56:02Z</time>
      </trkpt>
      <trkpt lat="43.12331" lon="6.25562">
        <ele>7.2</ele>
        <time>2021-07-20T10:56:03Z</time>
      </trkpt>
      <trkpt lat="43.12331" lon="6.25561">
        <ele>7.2</ele>
        <time>2021-07-20T10:56:05Z</time>
      </trkpt>
      <trkpt lat="43.12331" lon="6.2556">
        <ele>7.2</ele>
        <time>2021-07-20T10:56:06Z</time>
      </trkpt>
      <trkpt lat="43.12332" lon="6.2556">
        <ele>7.2</ele>
        <time>2021-07-20T10:56:07Z</time>
      </trkpt>
      <trkpt lat="43.12333" lon="6.25559">
        <ele>7.2</ele>
        <time>2021-07-20T10:56:08Z</time>
      </trkpt>
      <trkpt lat="43.12334" lon="6.25558">
        <ele>7.2</ele>
        <time>2021-07-20T10:56:09Z</time>
      </trkpt>
      <trkpt lat="43.12334" lon="6.25557">
        <ele>7.3</ele>
        <time>2021-07-20T10:56:10Z</time>
      </trkpt>
      <trkpt lat="43.12336" lon="6.25555">
        <ele>7.3</ele>
        <time>2021-07-20T10:56:11Z</time>
      </trkpt>
      <trkpt lat="43.12337" lon="6.25554">
        <ele>7.3</ele>
        <time>2021-07-20T10:56:12Z</time>
      </trkpt>
      <trkpt lat="43.12338" lon="6.25551">
        <ele>7.3</ele>
        <time>2021-07-20T10:56:14Z</time>
      </trkpt>
      <trkpt lat="43.12339" lon="6.25549">
        <ele>7.3</ele>
        <time>2021-07-20T10:56:15Z</time>
      </trkpt>
      <trkpt lat="43.12339" lon="6.25547">
        <ele>7.4</ele>
        <time>2021-07-20T10:56:16Z</time>
      </trkpt>
      <trkpt lat="43.1234" lon="6.25543">
        <ele>7.4</ele>
        <time>2021-07-20T10:56:18Z</time>
      </trkpt>
      <trkpt lat="43.1234" lon="6.25542">
        <ele>7.4</ele>
        <time>2021-07-20T10:56:19Z</time>
      </trkpt>
      <trkpt lat="43.1234" lon="6.25539">
        <ele>7.4</ele>
        <time>2021-07-20T10:56:20Z</time>
      </trkpt>
      <trkpt lat="43.12341" lon="6.25537">
        <ele>7.5</ele>
        <time>2021-07-20T10:56:21Z</time>
      </trkpt>
      <trkpt lat="43.12341" lon="6.25535">
        <ele>7.5</ele>
        <time>2021-07-20T10:56:22Z</time>
      </trkpt>
      <trkpt lat="43.1234" lon="6.25533">
        <ele>7.5</ele>
        <time>2021-07-20T10:56:23Z</time>
      </trkpt>
      <trkpt lat="43.1234" lon="6.2553">
        <ele>7.5</ele>
        <time>2021-07-20T10:56:24Z</time>
      </trkpt>
      <trkpt lat="43.1234" lon="6.25527">
        <ele>7.6</ele>
        <time>2021-07-20T10:56:26Z</time>
      </trkpt>
      <trkpt lat="43.1234" lon="6.25526">
        <ele>7.6</ele>
        <time>2021-07-20T10:56:27Z</time>
      </trkpt>
      <trkpt lat="43.1234" lon="6.25524">
        <ele>7.6</ele>
        <time>2021-07-20T10:56:28Z</time>
      </trkpt>
      <trkpt lat="43.1234" lon="6.25522">
        <ele>7.6</ele>
        <time>2021-07-20T10:56:29Z</time>
      </trkpt>
      <trkpt lat="43.1234" lon="6.25521">
        <ele>7.6</ele>
        <time>2021-07-20T10:56:30Z</time>
      </trkpt>
      <trkpt lat="43.12342" lon="6.25518">
        <ele>7.7</ele>
        <time>2021-07-20T10:56:32Z</time>
      </trkpt>
      <trkpt lat="43.12343" lon="6.25516">
        <ele>7.7</ele>
        <time>2021-07-20T10:56:33Z</time>
      </trkpt>
      <trkpt lat="43.12343" lon="6.25515">
        <ele>7.7</ele>
        <time>2021-07-20T10:56:34Z</time>
      </trkpt>
      <trkpt lat="43.12344" lon="6.25513">
        <ele>7.7</ele>
        <time>2021-07-20T10:56:35Z</time>
      </trkpt>
      <trkpt lat="43.12346" lon="6.25511">
        <ele>7.8</ele>
        <time>2021-07-20T10:56:36Z</time>
      </trkpt>
      <trkpt lat="43.12346" lon="6.25509">
        <ele>7.8</ele>
        <time>2021-07-20T10:56:38Z</time>
      </trkpt>
      <trkpt lat="43.12347" lon="6.25508">
        <ele>7.8</ele>
        <time>2021-07-20T10:56:39Z</time>
      </trkpt>
      <trkpt lat="43.12347" lon="6.25506">
        <ele>7.8</ele>
        <time>2021-07-20T10:56:40Z</time>
      </trkpt>
      <trkpt lat="43.12348" lon="6.25505">
        <ele>7.8</ele>
        <time>2021-07-20T10:56:41Z</time>
      </trkpt>
      <trkpt lat="43.12349" lon="6.25503">
        <ele>7.9</ele>
        <time>2021-07-20T10:56:43Z</time>
      </trkpt>
      <trkpt lat="43.12349" lon="6.25501">
        <ele>7.9</ele>
        <time>2021-07-20T10:56:44Z</time>
      </trkpt>
      <trkpt lat="43.12351" lon="6.25499">
        <ele>7.9</ele>
        <time>2021-07-20T10:56:45Z</time>
      </trkpt>
      <trkpt lat="43.12351" lon="6.25498">
        <ele>7.9</ele>
        <time>2021-07-20T10:56:46Z</time>
      </trkpt>
      <trkpt lat="43.12352" lon="6.25497">
        <ele>8</ele>
        <time>2021-07-20T10:56:47Z</time>
      </trkpt>
      <trkpt lat="43.12352" lon="6.25494">
        <ele>8</ele>
        <time>2021-07-20T10:56:48Z</time>
      </trkpt>
      <trkpt lat="43.12353" lon="6.25493">
        <ele>8</ele>
        <time>2021-07-20T10:56:50Z</time>
      </trkpt>
      <trkpt lat="43.12353" lon="6.25491">
        <ele>8</ele>
        <time>2021-07-20T10:56:51Z</time>
      </trkpt>
      <trkpt lat="43.12354" lon="6.2549">
        <ele>8.1</ele>
        <time>2021-07-20T10:56:52Z</time>
      </trkpt>
      <trkpt lat="43.12354" lon="6.25488">
        <ele>8.1</ele>
        <time>2021-07-20T10:56:53Z</time>
      </trkpt>
      <trkpt lat="43.12355" lon="6.25487">
        <ele>8.1</ele>
        <time>2021-07-20T10:56:54Z</time>
      </trkpt>
      <trkpt lat="43.12356" lon="6.25485">
        <ele>8.1</ele>
        <time>2021-07-20T10:56:56Z</time>
      </trkpt>
      <trkpt lat="43.12356" lon="6.25483">
        <ele>8.2</ele>
        <time>2021-07-20T10:56:58Z</time>
      </trkpt>
      <trkpt lat="43.12356" lon="6.25482">
        <ele>8.2</ele>
        <time>2021-07-20T10:56:59Z</time>
      </trkpt>
      <trkpt lat="43.12356" lon="6.2548">
        <ele>8.2</ele>
        <time>2021-07-20T10:57:00Z</time>
      </trkpt>
      <trkpt lat="43.12357" lon="6.25479">
        <ele>8.2</ele>
        <time>2021-07-20T10:57:01Z</time>
      </trkpt>
      <trkpt lat="43.12358" lon="6.25478">
        <ele>8.3</ele>
        <time>2021-07-20T10:57:02Z</time>
      </trkpt>
      <trkpt lat="43.12358" lon="6.25476">
        <ele>8.3</ele>
        <time>2021-07-20T10:57:03Z</time>
      </trkpt>
      <trkpt lat="43.12357" lon="6.25475">
        <ele>8.3</ele>
        <time>2021-07-20T10:57:04Z</time>
      </trkpt>
      <trkpt lat="43.12358" lon="6.25473">
        <ele>8.3</ele>
        <time>2021-07-20T10:57:05Z</time>
      </trkpt>
      <trkpt lat="43.12359" lon="6.25473">
        <ele>8.3</ele>
        <time>2021-07-20T10:57:06Z</time>
      </trkpt>
      <trkpt lat="43.12362" lon="6.25473">
        <ele>8.4</ele>
        <time>2021-07-20T10:57:08Z</time>
      </trkpt>
      <trkpt lat="43.12364" lon="6.25474">
        <ele>8.4</ele>
        <time>2021-07-20T10:57:09Z</time>
      </trkpt>
      <trkpt lat="43.12364" lon="6.25474">
        <ele>8.4</ele>
        <time>2021-07-20T10:57:10Z</time>
      </trkpt>
      <trkpt lat="43.12365" lon="6.25474">
        <ele>8.5</ele>
        <time>2021-07-20T10:57:11Z</time>
      </trkpt>
      <trkpt lat="43.12367" lon="6.25475">
        <ele>8.5</ele>
        <time>2021-07-20T10:57:12Z</time>
      </trkpt>
      <trkpt lat="43.12369" lon="6.25477">
        <ele>8.5</ele>
        <time>2021-07-20T10:57:14Z</time>
      </trkpt>
      <trkpt lat="43.1237" lon="6.25478">
        <ele>8.6</ele>
        <time>2021-07-20T10:57:15Z</time>
      </trkpt>
      <trkpt lat="43.12371" lon="6.25478">
        <ele>8.6</ele>
        <time>2021-07-20T10:57:17Z</time>
      </trkpt>
      <trkpt lat="43.12372" lon="6.25478">
        <ele>8.6</ele>
        <time>2021-07-20T10:57:18Z</time>
      </trkpt>
      <trkpt lat="43.12373" lon="6.25478">
        <ele>8.6</ele>
        <time>2021-07-20T10:57:19Z</time>
      </trkpt>
      <trkpt lat="43.12374" lon="6.25478">
        <ele>8.6</ele>
        <time>2021-07-20T10:57:20Z</time>
      </trkpt>
      <trkpt lat="43.12375" lon="6.25478">
        <ele>8.7</ele>
        <time>2021-07-20T10:57:21Z</time>
      </trkpt>
      <trkpt lat="43.12376" lon="6.25478">
        <ele>8.7</ele>
        <time>2021-07-20T10:57:22Z</time>
      </trkpt>
      <trkpt lat="43.12377" lon="6.25477">
        <ele>8.7</ele>
        <time>2021-07-20T10:57:23Z</time>
      </trkpt>
      <trkpt lat="43.12378" lon="6.25477">
        <ele>8.7</ele>
        <time>2021-07-20T10:57:24Z</time>
      </trkpt>
      <trkpt lat="43.1238" lon="6.25476">
        <ele>8.7</ele>
        <time>2021-07-20T10:57:26Z</time>
      </trkpt>
      <trkpt lat="43.12381" lon="6.25476">
        <ele>8.8</ele>
        <time>2021-07-20T10:57:27Z</time>
      </trkpt>
      <trkpt lat="43.12382" lon="6.25475">
        <ele>8.8</ele>
        <time>2021-07-20T10:57:28Z</time>
      </trkpt>
      <trkpt lat="43.12384" lon="6.25475">
        <ele>8.8</ele>
        <time>2021-07-20T10:57:29Z</time>
      </trkpt>
      <trkpt lat="43.12385" lon="6.25475">
        <ele>8.8</ele>
        <time>2021-07-20T10:57:30Z</time>
      </trkpt>
      <trkpt lat="43.12387" lon="6.25475">
        <ele>8.9</ele>
        <time>2021-07-20T10:57:32Z</time>
      </trkpt>
      <trkpt lat="43.12389" lon="6.25475">
        <ele>8.9</ele>
        <time>2021-07-20T10:57:33Z</time>
      </trkpt>
      <trkpt lat="43.1239" lon="6.25475">
        <ele>8.9</ele>
        <time>2021-07-20T10:57:34Z</time>
      </trkpt>
      <trkpt lat="43.12392" lon="6.25474">
        <ele>8.9</ele>
        <time>2021-07-20T10:57:36Z</time>
      </trkpt>
      <trkpt lat="43.12393" lon="6.25474">
        <ele>9</ele>
        <time>2021-07-20T10:57:37Z</time>
      </trkpt>
      <trkpt lat="43.12395" lon="6.25474">
        <ele>9</ele>
        <time>2021-07-20T10:57:38Z</time>
      </trkpt>
      <trkpt lat="43.12396" lon="6.25474">
        <ele>9</ele>
        <time>2021-07-20T10:57:39Z</time>
      </trkpt>
      <trkpt lat="43.12397" lon="6.25474">
        <ele>9</ele>
        <time>2021-07-20T10:57:40Z</time>
      </trkpt>
      <trkpt lat="43.124" lon="6.25474">
        <ele>9.1</ele>
        <time>2021-07-20T10:57:42Z</time>
      </trkpt>
      <trkpt lat="43.12401" lon="6.25474">
        <ele>9.1</ele>
        <time>2021-07-20T10:57:43Z</time>
      </trkpt>
      <trkpt lat="43.12402" lon="6.25473">
        <ele>9.1</ele>
        <time>2021-07-20T10:57:45Z</time>
      </trkpt>
      <trkpt lat="43.12404" lon="6.25473">
        <ele>9.1</ele>
        <time>2021-07-20T10:57:46Z</time>
      </trkpt>
      <trkpt lat="43.12405" lon="6.25473">
        <ele>9.1</ele>
        <time>2021-07-20T10:57:47Z</time>
      </trkpt>
      <trkpt lat="43.12407" lon="6.25472">
        <ele>9.2</ele>
        <time>2021-07-20T10:57:48Z</time>
      </trkpt>
      <trkpt lat="43.12408" lon="6.25472">
        <ele>9.2</ele>
        <time>2021-07-20T10:57:49Z</time>
      </trkpt>
      <trkpt lat="43.12409" lon="6.25472">
        <ele>9.2</ele>
        <time>2021-07-20T10:57:50Z</time>
      </trkpt>
      <trkpt lat="43.1241" lon="6.25472">
        <ele>9.2</ele>
        <time>2021-07-20T10:57:51Z</time>
      </trkpt>
      <trkpt lat="43.12411" lon="6.25472">
        <ele>9.2</ele>
        <time>2021-07-20T10:57:52Z</time>
      </trkpt>
      <trkpt lat="43.12413" lon="6.25472">
        <ele>9.2</ele>
        <time>2021-07-20T10:57:53Z</time>
      </trkpt>
      <trkpt lat="43.12415" lon="6.25472">
        <ele>9.3</ele>
        <time>2021-07-20T10:57:54Z</time>
      </trkpt>
      <trkpt lat="43.12416" lon="6.25472">
        <ele>9.3</ele>
        <time>2021-07-20T10:57:56Z</time>
      </trkpt>
      <trkpt lat="43.12418" lon="6.25472">
        <ele>9.3</ele>
        <time>2021-07-20T10:57:57Z</time>
      </trkpt>
      <trkpt lat="43.12419" lon="6.25471">
        <ele>9.3</ele>
        <time>2021-07-20T10:57:58Z</time>
      </trkpt>
      <trkpt lat="43.1242" lon="6.25471">
        <ele>9.3</ele>
        <time>2021-07-20T10:57:59Z</time>
      </trkpt>
      <trkpt lat="43.12421" lon="6.25472">
        <ele>9.4</ele>
        <time>2021-07-20T10:58:00Z</time>
      </trkpt>
      <trkpt lat="43.12423" lon="6.25472">
        <ele>9.4</ele>
        <time>2021-07-20T10:58:02Z</time>
      </trkpt>
      <trkpt lat="43.12424" lon="6.25473">
        <ele>9.4</ele>
        <time>2021-07-20T10:58:03Z</time>
      </trkpt>
      <trkpt lat="43.12425" lon="6.25474">
        <ele>9.4</ele>
        <time>2021-07-20T10:58:04Z</time>
      </trkpt>
      <trkpt lat="43.12427" lon="6.25475">
        <ele>9.5</ele>
        <time>2021-07-20T10:58:05Z</time>
      </trkpt>
      <trkpt lat="43.12428" lon="6.25474">
        <ele>9.5</ele>
        <time>2021-07-20T10:58:06Z</time>
      </trkpt>
      <trkpt lat="43.1243" lon="6.25474">
        <ele>9.5</ele>
        <time>2021-07-20T10:58:08Z</time>
      </trkpt>
      <trkpt lat="43.12431" lon="6.25474">
        <ele>9.5</ele>
        <time>2021-07-20T10:58:09Z</time>
      </trkpt>
      <trkpt lat="43.12432" lon="6.25474">
        <ele>9.5</ele>
        <time>2021-07-20T10:58:10Z</time>
      </trkpt>
      <trkpt lat="43.12434" lon="6.25473">
        <ele>9.6</ele>
        <time>2021-07-20T10:58:12Z</time>
      </trkpt>
      <trkpt lat="43.12435" lon="6.25473">
        <ele>9.6</ele>
        <time>2021-07-20T10:58:13Z</time>
      </trkpt>
      <trkpt lat="43.12436" lon="6.25473">
        <ele>9.6</ele>
        <time>2021-07-20T10:58:14Z</time>
      </trkpt>
      <trkpt lat="43.12437" lon="6.25473">
        <ele>9.6</ele>
        <time>2021-07-20T10:58:15Z</time>
      </trkpt>
      <trkpt lat="43.1244" lon="6.25473">
        <ele>9.7</ele>
        <time>2021-07-20T10:58:16Z</time>
      </trkpt>
      <trkpt lat="43.12441" lon="6.25472">
        <ele>9.7</ele>
        <time>2021-07-20T10:58:18Z</time>
      </trkpt>
      <trkpt lat="43.12442" lon="6.25472">
        <ele>9.7</ele>
        <time>2021-07-20T10:58:19Z</time>
      </trkpt>
      <trkpt lat="43.12443" lon="6.25472">
        <ele>9.7</ele>
        <time>2021-07-20T10:58:21Z</time>
      </trkpt>
      <trkpt lat="43.12444" lon="6.25472">
        <ele>9.7</ele>
        <time>2021-07-20T10:58:22Z</time>
      </trkpt>
      <trkpt lat="43.12445" lon="6.25471">
        <ele>9.7</ele>
        <time>2021-07-20T10:58:23Z</time>
      </trkpt>
      <trkpt lat="43.12447" lon="6.2547">
        <ele>9.8</ele>
        <time>2021-07-20T10:58:24Z</time>
      </trkpt>
      <trkpt lat="43.12448" lon="6.2547">
        <ele>9.8</ele>
        <time>2021-07-20T10:58:25Z</time>
      </trkpt>
      <trkpt lat="43.12449" lon="6.25469">
        <ele>9.8</ele>
        <time>2021-07-20T10:58:26Z</time>
      </trkpt>
      <trkpt lat="43.12449" lon="6.25469">
        <ele>9.8</ele>
        <time>2021-07-20T10:58:27Z</time>
      </trkpt>
      <trkpt lat="43.12451" lon="6.2547">
        <ele>9.8</ele>
        <time>2021-07-20T10:58:28Z</time>
      </trkpt>
      <trkpt lat="43.12452" lon="6.25473">
        <ele>9.9</ele>
        <time>2021-07-20T10:58:30Z</time>
      </trkpt>
      <trkpt lat="43.12454" lon="6.25473">
        <ele>9.9</ele>
        <time>2021-07-20T10:58:31Z</time>
      </trkpt>
      <trkpt lat="43.12455" lon="6.25472">
        <ele>9.9</ele>
        <time>2021-07-20T10:58:32Z</time>
      </trkpt>
      <trkpt lat="43.12456" lon="6.25474">
        <ele>10</ele>
        <time>2021-07-20T10:58:34Z</time>
      </trkpt>
      <trkpt lat="43.12456" lon="6.25476">
        <ele>10</ele>
        <time>2021-07-20T10:58:35Z</time>
      </trkpt>
      <trkpt lat="43.12457" lon="6.25477">
        <ele>10</ele>
        <time>2021-07-20T10:58:36Z</time>
      </trkpt>
      <trkpt lat="43.12457" lon="6.25478">
        <ele>10</ele>
        <time>2021-07-20T10:58:37Z</time>
      </trkpt>
      <trkpt lat="43.12457" lon="6.2548">
        <ele>10.1</ele>
        <time>2021-07-20T10:58:38Z</time>
      </trkpt>
      <trkpt lat="43.12457" lon="6.25481">
        <ele>10.1</ele>
        <time>2021-07-20T10:58:40Z</time>
      </trkpt>
      <trkpt lat="43.12457" lon="6.25482">
        <ele>10.1</ele>
        <time>2021-07-20T10:58:41Z</time>
      </trkpt>
      <trkpt lat="43.12458" lon="6.25483">
        <ele>10.1</ele>
        <time>2021-07-20T10:58:42Z</time>
      </trkpt>
      <trkpt lat="43.12458" lon="6.25484">
        <ele>10.1</ele>
        <time>2021-07-20T10:58:43Z</time>
      </trkpt>
      <trkpt lat="43.12459" lon="6.25484">
        <ele>10.1</ele>
        <time>2021-07-20T10:58:44Z</time>
      </trkpt>
      <trkpt lat="43.1246" lon="6.25485">
        <ele>10.2</ele>
        <time>2021-07-20T10:58:46Z</time>
      </trkpt>
      <trkpt lat="43.12461" lon="6.25485">
        <ele>10.2</ele>
        <time>2021-07-20T10:58:47Z</time>
      </trkpt>
      <trkpt lat="43.12463" lon="6.25486">
        <ele>10.2</ele>
        <time>2021-07-20T10:58:48Z</time>
      </trkpt>
      <trkpt lat="43.12465" lon="6.25486">
        <ele>10.3</ele>
        <time>2021-07-20T10:58:50Z</time>
      </trkpt>
      <trkpt lat="43.12466" lon="6.25486">
        <ele>10.3</ele>
        <time>2021-07-20T10:58:51Z</time>
      </trkpt>
      <trkpt lat="43.12468" lon="6.25486">
        <ele>10.3</ele>
        <time>2021-07-20T10:58:52Z</time>
      </trkpt>
      <trkpt lat="43.12469" lon="6.25485">
        <ele>10.3</ele>
        <time>2021-07-20T10:58:53Z</time>
      </trkpt>
      <trkpt lat="43.12471" lon="6.25485">
        <ele>10.4</ele>
        <time>2021-07-20T10:58:54Z</time>
      </trkpt>
      <trkpt lat="43.12472" lon="6.25485">
        <ele>10.4</ele>
        <time>2021-07-20T10:58:56Z</time>
      </trkpt>
      <trkpt lat="43.12474" lon="6.25485">
        <ele>10.4</ele>
        <time>2021-07-20T10:58:57Z</time>
      </trkpt>
      <trkpt lat="43.12475" lon="6.25484">
        <ele>10.5</ele>
        <time>2021-07-20T10:58:58Z</time>
      </trkpt>
      <trkpt lat="43.12476" lon="6.25484">
        <ele>10.5</ele>
        <time>2021-07-20T10:58:59Z</time>
      </trkpt>
      <trkpt lat="43.12478" lon="6.25483">
        <ele>10.5</ele>
        <time>2021-07-20T10:59:00Z</time>
      </trkpt>
      <trkpt lat="43.1248" lon="6.25483">
        <ele>10.6</ele>
        <time>2021-07-20T10:59:02Z</time>
      </trkpt>
      <trkpt lat="43.12481" lon="6.25483">
        <ele>10.6</ele>
        <time>2021-07-20T10:59:03Z</time>
      </trkpt>
      <trkpt lat="43.12482" lon="6.25483">
        <ele>10.6</ele>
        <time>2021-07-20T10:59:05Z</time>
      </trkpt>
      <trkpt lat="43.12483" lon="6.25482">
        <ele>10.7</ele>
        <time>2021-07-20T10:59:06Z</time>
      </trkpt>
      <trkpt lat="43.12485" lon="6.25482">
        <ele>10.7</ele>
        <time>2021-07-20T10:59:07Z</time>
      </trkpt>
      <trkpt lat="43.12486" lon="6.25482">
        <ele>10.7</ele>
        <time>2021-07-20T10:59:08Z</time>
      </trkpt>
      <trkpt lat="43.12488" lon="6.25482">
        <ele>10.8</ele>
        <time>2021-07-20T10:59:10Z</time>
      </trkpt>
      <trkpt lat="43.12489" lon="6.25482">
        <ele>10.8</ele>
        <time>2021-07-20T10:59:11Z</time>
      </trkpt>
      <trkpt lat="43.12489" lon="6.25482">
        <ele>11</ele>
        <time>2021-07-20T10:59:12Z</time>
      </trkpt>
      <trkpt lat="43.12491" lon="6.25483">
        <ele>11.1</ele>
        <time>2021-07-20T10:59:13Z</time>
      </trkpt>
      <trkpt lat="43.12492" lon="6.25484">
        <ele>11.3</ele>
        <time>2021-07-20T10:59:14Z</time>
      </trkpt>
      <trkpt lat="43.12493" lon="6.25486">
        <ele>11.3</ele>
        <time>2021-07-20T10:59:16Z</time>
      </trkpt>
      <trkpt lat="43.12493" lon="6.25487">
        <ele>11.5</ele>
        <time>2021-07-20T10:59:17Z</time>
      </trkpt>
      <trkpt lat="43.12493" lon="6.25489">
        <ele>11.5</ele>
        <time>2021-07-20T10:59:18Z</time>
      </trkpt>
      <trkpt lat="43.12494" lon="6.25491">
        <ele>11.5</ele>
        <time>2021-07-20T10:59:20Z</time>
      </trkpt>
      <trkpt lat="43.12494" lon="6.25492">
        <ele>11.7</ele>
        <time>2021-07-20T10:59:21Z</time>
      </trkpt>
      <trkpt lat="43.12494" lon="6.25493">
        <ele>11.7</ele>
        <time>2021-07-20T10:59:22Z</time>
      </trkpt>
      <trkpt lat="43.12495" lon="6.25494">
        <ele>11.7</ele>
        <time>2021-07-20T10:59:24Z</time>
      </trkpt>
      <trkpt lat="43.12495" lon="6.25495">
        <ele>11.9</ele>
        <time>2021-07-20T10:59:25Z</time>
      </trkpt>
      <trkpt lat="43.12495" lon="6.25497">
        <ele>11.9</ele>
        <time>2021-07-20T10:59:26Z</time>
      </trkpt>
      <trkpt lat="43.12494" lon="6.25498">
        <ele>11.9</ele>
        <time>2021-07-20T10:59:28Z</time>
      </trkpt>
      <trkpt lat="43.12495" lon="6.25498">
        <ele>11.9</ele>
        <time>2021-07-20T10:59:29Z</time>
      </trkpt>
      <trkpt lat="43.12494" lon="6.25499">
        <ele>11.9</ele>
        <time>2021-07-20T10:59:30Z</time>
      </trkpt>
      <trkpt lat="43.12494" lon="6.255">
        <ele>12.1</ele>
        <time>2021-07-20T10:59:31Z</time>
      </trkpt>
      <trkpt lat="43.12493" lon="6.25502">
        <ele>12.1</ele>
        <time>2021-07-20T10:59:32Z</time>
      </trkpt>
      <trkpt lat="43.12493" lon="6.25504">
        <ele>12.1</ele>
        <time>2021-07-20T10:59:34Z</time>
      </trkpt>
      <trkpt lat="43.12493" lon="6.25505">
        <ele>12.3</ele>
        <time>2021-07-20T10:59:35Z</time>
      </trkpt>
      <trkpt lat="43.12492" lon="6.25507">
        <ele>12.3</ele>
        <time>2021-07-20T10:59:36Z</time>
      </trkpt>
      <trkpt lat="43.12491" lon="6.2551">
        <ele>12.4</ele>
        <time>2021-07-20T10:59:37Z</time>
      </trkpt>
      <trkpt lat="43.12491" lon="6.25511">
        <ele>12.4</ele>
        <time>2021-07-20T10:59:38Z</time>
      </trkpt>
      <trkpt lat="43.1249" lon="6.25512">
        <ele>12.4</ele>
        <time>2021-07-20T10:59:39Z</time>
      </trkpt>
      <trkpt lat="43.12489" lon="6.25513">
        <ele>12.6</ele>
        <time>2021-07-20T10:59:41Z</time>
      </trkpt>
      <trkpt lat="43.12489" lon="6.25515">
        <ele>12.6</ele>
        <time>2021-07-20T10:59:42Z</time>
      </trkpt>
      <trkpt lat="43.12489" lon="6.25517">
        <ele>12.5</ele>
        <time>2021-07-20T10:59:43Z</time>
      </trkpt>
      <trkpt lat="43.12488" lon="6.25518">
        <ele>12.7</ele>
        <time>2021-07-20T10:59:44Z</time>
      </trkpt>
      <trkpt lat="43.12487" lon="6.25519">
        <ele>12.7</ele>
        <time>2021-07-20T10:59:45Z</time>
      </trkpt>
      <trkpt lat="43.12487" lon="6.2552">
        <ele>12.7</ele>
        <time>2021-07-20T10:59:46Z</time>
      </trkpt>
      <trkpt lat="43.12486" lon="6.25521">
        <ele>12.7</ele>
        <time>2021-07-20T10:59:47Z</time>
      </trkpt>
      <trkpt lat="43.12485" lon="6.25523">
        <ele>12.7</ele>
        <time>2021-07-20T10:59:49Z</time>
      </trkpt>
      <trkpt lat="43.12485" lon="6.25525">
        <ele>12.8</ele>
        <time>2021-07-20T10:59:50Z</time>
      </trkpt>
      <trkpt lat="43.12484" lon="6.25527">
        <ele>12.9</ele>
        <time>2021-07-20T10:59:51Z</time>
      </trkpt>
      <trkpt lat="43.12484" lon="6.25528">
        <ele>13</ele>
        <time>2021-07-20T10:59:53Z</time>
      </trkpt>
      <trkpt lat="43.12483" lon="6.2553">
        <ele>13</ele>
        <time>2021-07-20T10:59:54Z</time>
      </trkpt>
      <trkpt lat="43.12483" lon="6.25531">
        <ele>13.1</ele>
        <time>2021-07-20T10:59:55Z</time>
      </trkpt>
      <trkpt lat="43.12483" lon="6.25533">
        <ele>13.2</ele>
        <time>2021-07-20T10:59:56Z</time>
      </trkpt>
      <trkpt lat="43.12482" lon="6.25535">
        <ele>13.2</ele>
        <time>2021-07-20T10:59:57Z</time>
      </trkpt>
      <trkpt lat="43.12482" lon="6.25537">
        <ele>13.2</ele>
        <time>2021-07-20T10:59:59Z</time>
      </trkpt>
      <trkpt lat="43.12482" lon="6.2554">
        <ele>13.4</ele>
        <time>2021-07-20T11:00:00Z</time>
      </trkpt>
      <trkpt lat="43.12482" lon="6.25542">
        <ele>13.4</ele>
        <time>2021-07-20T11:00:01Z</time>
      </trkpt>
      <trkpt lat="43.12482" lon="6.25543">
        <ele>13.6</ele>
        <time>2021-07-20T11:00:02Z</time>
      </trkpt>
      <trkpt lat="43.12482" lon="6.25546">
        <ele>13.6</ele>
        <time>2021-07-20T11:00:03Z</time>
      </trkpt>
      <trkpt lat="43.12482" lon="6.25547">
        <ele>13.8</ele>
        <time>2021-07-20T11:00:05Z</time>
      </trkpt>
      <trkpt lat="43.12482" lon="6.25549">
        <ele>13.8</ele>
        <time>2021-07-20T11:00:06Z</time>
      </trkpt>
      <trkpt lat="43.12482" lon="6.2555">
        <ele>13.8</ele>
        <time>2021-07-20T11:00:07Z</time>
      </trkpt>
      <trkpt lat="43.12482" lon="6.25551">
        <ele>14.1</ele>
        <time>2021-07-20T11:00:08Z</time>
      </trkpt>
      <trkpt lat="43.12483" lon="6.25554">
        <ele>14.2</ele>
        <time>2021-07-20T11:00:10Z</time>
      </trkpt>
      <trkpt lat="43.12484" lon="6.25555">
        <ele>14.2</ele>
        <time>2021-07-20T11:00:11Z</time>
      </trkpt>
      <trkpt lat="43.12484" lon="6.25557">
        <ele>14.3</ele>
        <time>2021-07-20T11:00:13Z</time>
      </trkpt>
      <trkpt lat="43.12484" lon="6.25557">
        <ele>14.4</ele>
        <time>2021-07-20T11:00:14Z</time>
      </trkpt>
      <trkpt lat="43.12483" lon="6.25559">
        <ele>14.4</ele>
        <time>2021-07-20T11:00:15Z</time>
      </trkpt>
      <trkpt lat="43.12483" lon="6.2556">
        <ele>14.5</ele>
        <time>2021-07-20T11:00:16Z</time>
      </trkpt>
      <trkpt lat="43.12483" lon="6.25561">
        <ele>14.6</ele>
        <time>2021-07-20T11:00:18Z</time>
      </trkpt>
      <trkpt lat="43.12483" lon="6.25562">
        <ele>14.6</ele>
        <time>2021-07-20T11:00:19Z</time>
      </trkpt>
      <trkpt lat="43.12484" lon="6.25563">
        <ele>14.6</ele>
        <time>2021-07-20T11:00:20Z</time>
      </trkpt>
      <trkpt lat="43.12484" lon="6.25563">
        <ele>14.6</ele>
        <time>2021-07-20T11:00:21Z</time>
      </trkpt>
      <trkpt lat="43.12485" lon="6.25564">
        <ele>14.6</ele>
        <time>2021-07-20T11:00:22Z</time>
      </trkpt>
      <trkpt lat="43.12486" lon="6.25565">
        <ele>14.9</ele>
        <time>2021-07-20T11:00:23Z</time>
      </trkpt>
      <trkpt lat="43.12487" lon="6.25565">
        <ele>14.9</ele>
        <time>2021-07-20T11:00:24Z</time>
      </trkpt>
      <trkpt lat="43.12488" lon="6.25566">
        <ele>14.9</ele>
        <time>2021-07-20T11:00:26Z</time>
      </trkpt>
      <trkpt lat="43.12489" lon="6.25566">
        <ele>15.1</ele>
        <time>2021-07-20T11:00:27Z</time>
      </trkpt>
      <trkpt lat="43.1249" lon="6.25566">
        <ele>15.1</ele>
        <time>2021-07-20T11:00:29Z</time>
      </trkpt>
      <trkpt lat="43.12491" lon="6.25567">
        <ele>15.1</ele>
        <time>2021-07-20T11:00:30Z</time>
      </trkpt>
      <trkpt lat="43.12492" lon="6.25568">
        <ele>15.1</ele>
        <time>2021-07-20T11:00:31Z</time>
      </trkpt>
      <trkpt lat="43.12492" lon="6.25569">
        <ele>15.3</ele>
        <time>2021-07-20T11:00:32Z</time>
      </trkpt>
      <trkpt lat="43.12491" lon="6.2557">
        <ele>15.3</ele>
        <time>2021-07-20T11:00:33Z</time>
      </trkpt>
      <trkpt lat="43.12491" lon="6.25571">
        <ele>15.4</ele>
        <time>2021-07-20T11:00:35Z</time>
      </trkpt>
      <trkpt lat="43.12491" lon="6.25573">
        <ele>15.4</ele>
        <time>2021-07-20T11:00:36Z</time>
      </trkpt>
      <trkpt lat="43.12491" lon="6.25575">
        <ele>15.6</ele>
        <time>2021-07-20T11:00:37Z</time>
      </trkpt>
      <trkpt lat="43.1249" lon="6.25577">
        <ele>15.6</ele>
        <time>2021-07-20T11:00:38Z</time>
      </trkpt>
      <trkpt lat="43.1249" lon="6.25578">
        <ele>15.8</ele>
        <time>2021-07-20T11:00:39Z</time>
      </trkpt>
      <trkpt lat="43.1249" lon="6.2558">
        <ele>15.8</ele>
        <time>2021-07-20T11:00:40Z</time>
      </trkpt>
      <trkpt lat="43.1249" lon="6.25582">
        <ele>16</ele>
        <time>2021-07-20T11:00:41Z</time>
      </trkpt>
      <trkpt lat="43.12491" lon="6.25584">
        <ele>16</ele>
        <time>2021-07-20T11:00:42Z</time>
      </trkpt>
      <trkpt lat="43.12491" lon="6.25586">
        <ele>16</ele>
        <time>2021-07-20T11:00:43Z</time>
      </trkpt>
      <trkpt lat="43.1249" lon="6.25587">
        <ele>16.2</ele>
        <time>2021-07-20T11:00:44Z</time>
      </trkpt>
      <trkpt lat="43.1249" lon="6.25589">
        <ele>16.2</ele>
        <time>2021-07-20T11:00:45Z</time>
      </trkpt>
      <trkpt lat="43.1249" lon="6.25591">
        <ele>16.4</ele>
        <time>2021-07-20T11:00:47Z</time>
      </trkpt>
      <trkpt lat="43.1249" lon="6.25593">
        <ele>16.4</ele>
        <time>2021-07-20T11:00:48Z</time>
      </trkpt>
      <trkpt lat="43.12491" lon="6.25595">
        <ele>16.6</ele>
        <time>2021-07-20T11:00:49Z</time>
      </trkpt>
      <trkpt lat="43.12491" lon="6.25597">
        <ele>16.6</ele>
        <time>2021-07-20T11:00:50Z</time>
      </trkpt>
      <trkpt lat="43.12491" lon="6.25599">
        <ele>16.7</ele>
        <time>2021-07-20T11:00:51Z</time>
      </trkpt>
      <trkpt lat="43.1249" lon="6.256">
        <ele>16.7</ele>
        <time>2021-07-20T11:00:52Z</time>
      </trkpt>
      <trkpt lat="43.12491" lon="6.25601">
        <ele>16.7</ele>
        <time>2021-07-20T11:00:53Z</time>
      </trkpt>
      <trkpt lat="43.12491" lon="6.256">
        <ele>16.8</ele>
        <time>2021-07-20T11:00:55Z</time>
      </trkpt>
      <trkpt lat="43.12492" lon="6.25601">
        <ele>17</ele>
        <time>2021-07-20T11:00:56Z</time>
      </trkpt>
      <trkpt lat="43.12492" lon="6.25602">
        <ele>17</ele>
        <time>2021-07-20T11:00:57Z</time>
      </trkpt>
      <trkpt lat="43.12492" lon="6.25602">
        <ele>17</ele>
        <time>2021-07-20T11:00:59Z</time>
      </trkpt>
      <trkpt lat="43.12492" lon="6.25602">
        <ele>17</ele>
        <time>2021-07-20T11:01:00Z</time>
      </trkpt>
      <trkpt lat="43.12492" lon="6.25603">
        <ele>16.8</ele>
        <time>2021-07-20T11:01:01Z</time>
      </trkpt>
      <trkpt lat="43.12491" lon="6.25603">
        <ele>16.9</ele>
        <time>2021-07-20T11:01:02Z</time>
      </trkpt>
      <trkpt lat="43.12487" lon="6.25607">
        <ele>16.8</ele>
        <time>2021-07-20T11:01:04Z</time>
      </trkpt>
      <trkpt lat="43.12486" lon="6.25618">
        <ele>17</ele>
        <time>2021-07-20T11:01:06Z</time>
      </trkpt>
      <trkpt lat="43.12485" lon="6.25628">
        <ele>16.8</ele>
        <time>2021-07-20T11:01:08Z</time>
      </trkpt>
      <trkpt lat="43.12485" lon="6.25639">
        <ele>17</ele>
        <time>2021-07-20T11:01:09Z</time>
      </trkpt>
      <trkpt lat="43.12485" lon="6.25649">
        <ele>16.6</ele>
        <time>2021-07-20T11:01:11Z</time>
      </trkpt>
      <trkpt lat="43.12483" lon="6.25679">
        <ele>15.4</ele>
        <time>2021-07-20T11:01:12Z</time>
      </trkpt>
      <trkpt lat="43.12445" lon="6.2567">
        <ele>13.4</ele>
        <time>2021-07-20T11:01:14Z</time>
      </trkpt>
      <trkpt lat="43.1244" lon="6.25665">
        <ele>13.1</ele>
        <time>2021-07-20T11:01:15Z</time>
      </trkpt>
      <trkpt lat="43.12437" lon="6.25661">
        <ele>12.9</ele>
        <time>2021-07-20T11:01:16Z</time>
      </trkpt>
      <trkpt lat="43.12436" lon="6.25661">
        <ele>13</ele>
        <time>2021-07-20T11:01:18Z</time>
      </trkpt>
      <trkpt lat="43.12435" lon="6.25664">
        <ele>13.1</ele>
        <time>2021-07-20T11:01:19Z</time>
      </trkpt>
      <trkpt lat="43.12433" lon="6.2567">
        <ele>13.3</ele>
        <time>2021-07-20T11:01:20Z</time>
      </trkpt>
      <trkpt lat="43.12435" lon="6.25673">
        <ele>13.4</ele>
        <time>2021-07-20T11:01:21Z</time>
      </trkpt>
      <trkpt lat="43.12437" lon="6.25673">
        <ele>13.4</ele>
        <time>2021-07-20T11:01:23Z</time>
      </trkpt>
      <trkpt lat="43.12438" lon="6.25673">
        <ele>13.5</ele>
        <time>2021-07-20T11:01:24Z</time>
      </trkpt>
      <trkpt lat="43.12439" lon="6.25673">
        <ele>13.5</ele>
        <time>2021-07-20T11:01:25Z</time>
      </trkpt>
      <trkpt lat="43.12442" lon="6.2567">
        <ele>13.7</ele>
        <time>2021-07-20T11:01:26Z</time>
      </trkpt>
      <trkpt lat="43.12444" lon="6.25668">
        <ele>13.8</ele>
        <time>2021-07-20T11:01:28Z</time>
      </trkpt>
      <trkpt lat="43.12447" lon="6.25665">
        <ele>13.9</ele>
        <time>2021-07-20T11:01:29Z</time>
      </trkpt>
      <trkpt lat="43.12452" lon="6.25659">
        <ele>14.2</ele>
        <time>2021-07-20T11:01:30Z</time>
      </trkpt>
      <trkpt lat="43.12456" lon="6.25653">
        <ele>14.5</ele>
        <time>2021-07-20T11:01:32Z</time>
      </trkpt>
      <trkpt lat="43.1246" lon="6.25649">
        <ele>14.7</ele>
        <time>2021-07-20T11:01:33Z</time>
      </trkpt>
      <trkpt lat="43.12462" lon="6.25646">
        <ele>14.8</ele>
        <time>2021-07-20T11:01:34Z</time>
      </trkpt>
      <trkpt lat="43.12464" lon="6.25642">
        <ele>14.9</ele>
        <time>2021-07-20T11:01:36Z</time>
      </trkpt>
      <trkpt lat="43.12465" lon="6.25639">
        <ele>15</ele>
        <time>2021-07-20T11:01:37Z</time>
      </trkpt>
      <trkpt lat="43.12466" lon="6.25635">
        <ele>15.1</ele>
        <time>2021-07-20T11:01:38Z</time>
      </trkpt>
      <trkpt lat="43.12466" lon="6.25632">
        <ele>15.2</ele>
        <time>2021-07-20T11:01:40Z</time>
      </trkpt>
      <trkpt lat="43.12467" lon="6.2563">
        <ele>15.3</ele>
        <time>2021-07-20T11:01:42Z</time>
      </trkpt>
      <trkpt lat="43.12467" lon="6.25628">
        <ele>15.4</ele>
        <time>2021-07-20T11:01:44Z</time>
      </trkpt>
      <trkpt lat="43.12468" lon="6.25627">
        <ele>15.4</ele>
        <time>2021-07-20T11:01:45Z</time>
      </trkpt>
      <trkpt lat="43.12468" lon="6.25627">
        <ele>15.4</ele>
        <time>2021-07-20T11:01:46Z</time>
      </trkpt>
      <trkpt lat="43.12468" lon="6.25626">
        <ele>15.4</ele>
        <time>2021-07-20T11:01:47Z</time>
      </trkpt>
      <trkpt lat="43.12469" lon="6.25626">
        <ele>15.4</ele>
        <time>2021-07-20T11:01:48Z</time>
      </trkpt>
      <trkpt lat="43.12469" lon="6.25626">
        <ele>15.5</ele>
        <time>2021-07-20T11:01:50Z</time>
      </trkpt>
      <trkpt lat="43.12469" lon="6.25626">
        <ele>15.5</ele>
        <time>2021-07-20T11:01:51Z</time>
      </trkpt>
      <trkpt lat="43.1247" lon="6.25625">
        <ele>15.5</ele>
        <time>2021-07-20T11:01:53Z</time>
      </trkpt>
      <trkpt lat="43.1247" lon="6.25625">
        <ele>15.5</ele>
        <time>2021-07-20T11:01:54Z</time>
      </trkpt>
      <trkpt lat="43.12471" lon="6.25625">
        <ele>15.5</ele>
        <time>2021-07-20T11:01:56Z</time>
      </trkpt>
      <trkpt lat="43.12472" lon="6.25625">
        <ele>15.6</ele>
        <time>2021-07-20T11:01:57Z</time>
      </trkpt>
      <trkpt lat="43.12472" lon="6.25625">
        <ele>15.6</ele>
        <time>2021-07-20T11:01:58Z</time>
      </trkpt>
      <trkpt lat="43.12472" lon="6.25624">
        <ele>15.6</ele>
        <time>2021-07-20T11:01:59Z</time>
      </trkpt>
      <trkpt lat="43.12472" lon="6.25624">
        <ele>15.6</ele>
        <time>2021-07-20T11:02:00Z</time>
      </trkpt>
      <trkpt lat="43.12472" lon="6.25624">
        <ele>15.6</ele>
        <time>2021-07-20T11:02:02Z</time>
      </trkpt>
      <trkpt lat="43.12472" lon="6.25624">
        <ele>15.6</ele>
        <time>2021-07-20T11:02:03Z</time>
      </trkpt>
      <trkpt lat="43.12472" lon="6.25624">
        <ele>15.6</ele>
        <time>2021-07-20T11:02:04Z</time>
      </trkpt>
      <trkpt lat="43.12472" lon="6.25624">
        <ele>15.6</ele>
        <time>2021-07-20T11:02:06Z</time>
      </trkpt>
      <trkpt lat="43.12472" lon="6.25624">
        <ele>15.6</ele>
        <time>2021-07-20T11:02:08Z</time>
      </trkpt>
      <trkpt lat="43.12472" lon="6.25624">
        <ele>15.6</ele>
        <time>2021-07-20T11:02:09Z</time>
      </trkpt>
      <trkpt lat="43.12472" lon="6.25624">
        <ele>15.6</ele>
        <time>2021-07-20T11:02:10Z</time>
      </trkpt>
      <trkpt lat="43.12472" lon="6.25624">
        <ele>15.6</ele>
        <time>2021-07-20T11:02:11Z</time>
      </trkpt>
      <trkpt lat="43.12472" lon="6.25624">
        <ele>15.6</ele>
        <time>2021-07-20T11:02:12Z</time>
      </trkpt>
      <trkpt lat="43.12472" lon="6.25624">
        <ele>15.6</ele>
        <time>2021-07-20T11:02:14Z</time>
      </trkpt>
      <trkpt lat="43.12472" lon="6.25624">
        <ele>15.6</ele>
        <time>2021-07-20T11:02:15Z</time>
      </trkpt>
      <trkpt lat="43.12472" lon="6.25624">
        <ele>15.6</ele>
        <time>2021-07-20T11:02:16Z</time>
      </trkpt>
      <trkpt lat="43.12472" lon="6.25624">
        <ele>15.6</ele>
        <time>2021-07-20T11:02:18Z</time>
      </trkpt>
      <trkpt lat="43.12472" lon="6.25624">
        <ele>15.6</ele>
        <time>2021-07-20T11:02:19Z</time>
      </trkpt>
      <trkpt lat="43.12472" lon="6.25624">
        <ele>15.6</ele>
        <time>2021-07-20T11:02:20Z</time>
      </trkpt>
      <trkpt lat="43.12472" lon="6.25624">
        <ele>15.6</ele>
        <time>2021-07-20T11:02:22Z</time>
      </trkpt>
      <trkpt lat="43.12472" lon="6.25624">
        <ele>15.6</ele>
        <time>2021-07-20T11:02:24Z</time>
      </trkpt>
      <trkpt lat="43.12472" lon="6.25624">
        <ele>15.6</ele>
        <time>2021-07-20T11:02:26Z</time>
      </trkpt>
      <trkpt lat="43.12472" lon="6.25624">
        <ele>15.6</ele>
        <time>2021-07-20T11:02:27Z</time>
      </trkpt>
      <trkpt lat="43.12472" lon="6.25624">
        <ele>15.6</ele>
        <time>2021-07-20T11:02:29Z</time>
      </trkpt>
      <trkpt lat="43.12472" lon="6.25624">
        <ele>15.6</ele>
        <time>2021-07-20T11:02:30Z</time>
      </trkpt>
      <trkpt lat="43.12472" lon="6.25624">
        <ele>15.6</ele>
        <time>2021-07-20T11:02:32Z</time>
      </trkpt>
      <trkpt lat="43.12472" lon="6.25624">
        <ele>15.6</ele>
        <time>2021-07-20T11:02:34Z</time>
      </trkpt>
      <trkpt lat="43.12472" lon="6.25624">
        <ele>15.6</ele>
        <time>2021-07-20T11:02:36Z</time>
      </trkpt>
      <trkpt lat="43.12472" lon="6.25624">
        <ele>15.6</ele>
        <time>2021-07-20T11:02:38Z</time>
      </trkpt>
      <trkpt lat="43.12472" lon="6.25624">
        <ele>15.6</ele>
        <time>2021-07-20T11:02:39Z</time>
      </trkpt>
      <trkpt lat="43.12472" lon="6.25624">
        <ele>15.6</ele>
        <time>2021-07-20T11:02:41Z</time>
      </trkpt>
      <trkpt lat="43.12472" lon="6.25624">
        <ele>15.6</ele>
        <time>2021-07-20T11:02:42Z</time>
      </trkpt>
      <trkpt lat="43.12472" lon="6.25624">
        <ele>15.6</ele>
        <time>2021-07-20T11:02:44Z</time>
      </trkpt>
      <trkpt lat="43.12472" lon="6.25624">
        <ele>15.6</ele>
        <time>2021-07-20T11:02:45Z</time>
      </trkpt>
      <trkpt lat="43.12472" lon="6.25624">
        <ele>15.6</ele>
        <time>2021-07-20T11:02:46Z</time>
      </trkpt>
      <trkpt lat="43.12472" lon="6.25624">
        <ele>15.6</ele>
        <time>2021-07-20T11:02:48Z</time>
      </trkpt>
      <trkpt lat="43.12472" lon="6.25624">
        <ele>15.6</ele>
        <time>2021-07-20T11:02:49Z</time>
      </trkpt>
      <trkpt lat="43.12472" lon="6.25624">
        <ele>15.6</ele>
        <time>2021-07-20T11:02:50Z</time>
      </trkpt>
      <trkpt lat="43.12472" lon="6.25624">
        <ele>15.6</ele>
        <time>2021-07-20T11:02:51Z</time>
      </trkpt>
      <trkpt lat="43.12476" lon="6.25621">
        <ele>15.8</ele>
        <time>2021-07-20T11:02:53Z</time>
      </trkpt>
      <trkpt lat="43.12479" lon="6.2562">
        <ele>15.9</ele>
        <time>2021-07-20T11:02:54Z</time>
      </trkpt>
      <trkpt lat="43.12479" lon="6.2562">
        <ele>15.9</ele>
        <time>2021-07-20T11:02:56Z</time>
      </trkpt>
      <trkpt lat="43.1248" lon="6.2562">
        <ele>16</ele>
        <time>2021-07-20T11:02:58Z</time>
      </trkpt>
      <trkpt lat="43.1248" lon="6.2562">
        <ele>16</ele>
        <time>2021-07-20T11:02:59Z</time>
      </trkpt>
      <trkpt lat="43.12481" lon="6.25621">
        <ele>16</ele>
        <time>2021-07-20T11:03:00Z</time>
      </trkpt>
      <trkpt lat="43.12482" lon="6.25621">
        <ele>16.1</ele>
        <time>2021-07-20T11:03:02Z</time>
      </trkpt>
      <trkpt lat="43.12483" lon="6.25621">
        <ele>16.1</ele>
        <time>2021-07-20T11:03:03Z</time>
      </trkpt>
      <trkpt lat="43.12484" lon="6.2562">
        <ele>16.2</ele>
        <time>2021-07-20T11:03:04Z</time>
      </trkpt>
      <trkpt lat="43.12485" lon="6.2562">
        <ele>16.2</ele>
        <time>2021-07-20T11:03:05Z</time>
      </trkpt>
      <trkpt lat="43.12486" lon="6.2562">
        <ele>16.2</ele>
        <time>2021-07-20T11:03:06Z</time>
      </trkpt>
      <trkpt lat="43.1249" lon="6.25619">
        <ele>16.4</ele>
        <time>2021-07-20T11:03:08Z</time>
      </trkpt>
      <trkpt lat="43.12491" lon="6.25618">
        <ele>16.5</ele>
        <time>2021-07-20T11:03:09Z</time>
      </trkpt>
      <trkpt lat="43.12493" lon="6.25618">
        <ele>16.5</ele>
        <time>2021-07-20T11:03:10Z</time>
      </trkpt>
      <trkpt lat="43.12495" lon="6.25617">
        <ele>16.7</ele>
        <time>2021-07-20T11:03:12Z</time>
      </trkpt>
      <trkpt lat="43.12496" lon="6.25617">
        <ele>16.7</ele>
        <time>2021-07-20T11:03:13Z</time>
      </trkpt>
      <trkpt lat="43.12499" lon="6.25616">
        <ele>16.8</ele>
        <time>2021-07-20T11:03:15Z</time>
      </trkpt>
      <trkpt lat="43.125" lon="6.25615">
        <ele>16.9</ele>
        <time>2021-07-20T11:03:16Z</time>
      </trkpt>
      <trkpt lat="43.12502" lon="6.25615">
        <ele>17</ele>
        <time>2021-07-20T11:03:17Z</time>
      </trkpt>
      <trkpt lat="43.12503" lon="6.25615">
        <ele>17</ele>
        <time>2021-07-20T11:03:18Z</time>
      </trkpt>
      <trkpt lat="43.12505" lon="6.25615">
        <ele>17.1</ele>
        <time>2021-07-20T11:03:20Z</time>
      </trkpt>
      <trkpt lat="43.12507" lon="6.25615">
        <ele>17.2</ele>
        <time>2021-07-20T11:03:21Z</time>
      </trkpt>
      <trkpt lat="43.12508" lon="6.25615">
        <ele>17.2</ele>
        <time>2021-07-20T11:03:22Z</time>
      </trkpt>
      <trkpt lat="43.12509" lon="6.25615">
        <ele>17.3</ele>
        <time>2021-07-20T11:03:23Z</time>
      </trkpt>
      <trkpt lat="43.1251" lon="6.25614">
        <ele>17.3</ele>
        <time>2021-07-20T11:03:25Z</time>
      </trkpt>
      <trkpt lat="43.12511" lon="6.25614">
        <ele>17.4</ele>
        <time>2021-07-20T11:03:26Z</time>
      </trkpt>
      <trkpt lat="43.12512" lon="6.25613">
        <ele>17.4</ele>
        <time>2021-07-20T11:03:27Z</time>
      </trkpt>
      <trkpt lat="43.12514" lon="6.25613">
        <ele>17.5</ele>
        <time>2021-07-20T11:03:29Z</time>
      </trkpt>
      <trkpt lat="43.12514" lon="6.25612">
        <ele>17.5</ele>
        <time>2021-07-20T11:03:30Z</time>
      </trkpt>
      <trkpt lat="43.12516" lon="6.25612">
        <ele>17.6</ele>
        <time>2021-07-20T11:03:32Z</time>
      </trkpt>
      <trkpt lat="43.12517" lon="6.25613">
        <ele>17.6</ele>
        <time>2021-07-20T11:03:33Z</time>
      </trkpt>
      <trkpt lat="43.12518" lon="6.25613">
        <ele>17.7</ele>
        <time>2021-07-20T11:03:34Z</time>
      </trkpt>
      <trkpt lat="43.12519" lon="6.25613">
        <ele>17.7</ele>
        <time>2021-07-20T11:03:35Z</time>
      </trkpt>
      <trkpt lat="43.1252" lon="6.25614">
        <ele>17.8</ele>
        <time>2021-07-20T11:03:37Z</time>
      </trkpt>
      <trkpt lat="43.12522" lon="6.25615">
        <ele>17.9</ele>
        <time>2021-07-20T11:03:38Z</time>
      </trkpt>
      <trkpt lat="43.12523" lon="6.25616">
        <ele>17.9</ele>
        <time>2021-07-20T11:03:39Z</time>
      </trkpt>
      <trkpt lat="43.12525" lon="6.25616">
        <ele>18</ele>
        <time>2021-07-20T11:03:40Z</time>
      </trkpt>
      <trkpt lat="43.12526" lon="6.25617">
        <ele>18.1</ele>
        <time>2021-07-20T11:03:41Z</time>
      </trkpt>
      <trkpt lat="43.12528" lon="6.25617">
        <ele>18.2</ele>
        <time>2021-07-20T11:03:43Z</time>
      </trkpt>
      <trkpt lat="43.1253" lon="6.25617">
        <ele>18.2</ele>
        <time>2021-07-20T11:03:44Z</time>
      </trkpt>
      <trkpt lat="43.12531" lon="6.25617">
        <ele>18.3</ele>
        <time>2021-07-20T11:03:45Z</time>
      </trkpt>
      <trkpt lat="43.12532" lon="6.25617">
        <ele>18.3</ele>
        <time>2021-07-20T11:03:46Z</time>
      </trkpt>
      <trkpt lat="43.12533" lon="6.25617">
        <ele>18.4</ele>
        <time>2021-07-20T11:03:48Z</time>
      </trkpt>
      <trkpt lat="43.12534" lon="6.25617">
        <ele>18.4</ele>
        <time>2021-07-20T11:03:49Z</time>
      </trkpt>
      <trkpt lat="43.12535" lon="6.25616">
        <ele>18.5</ele>
        <time>2021-07-20T11:03:51Z</time>
      </trkpt>
      <trkpt lat="43.12537" lon="6.25615">
        <ele>18.5</ele>
        <time>2021-07-20T11:03:52Z</time>
      </trkpt>
      <trkpt lat="43.12537" lon="6.25614">
        <ele>18.6</ele>
        <time>2021-07-20T11:03:53Z</time>
      </trkpt>
      <trkpt lat="43.12538" lon="6.25612">
        <ele>18.6</ele>
        <time>2021-07-20T11:03:55Z</time>
      </trkpt>
      <trkpt lat="43.12538" lon="6.25611">
        <ele>18.7</ele>
        <time>2021-07-20T11:03:56Z</time>
      </trkpt>
      <trkpt lat="43.12537" lon="6.2561">
        <ele>18.7</ele>
        <time>2021-07-20T11:03:57Z</time>
      </trkpt>
      <trkpt lat="43.12536" lon="6.25609">
        <ele>18.8</ele>
        <time>2021-07-20T11:03:58Z</time>
      </trkpt>
      <trkpt lat="43.12536" lon="6.25608">
        <ele>18.8</ele>
        <time>2021-07-20T11:04:00Z</time>
      </trkpt>
      <trkpt lat="43.12536" lon="6.25607">
        <ele>18.8</ele>
        <time>2021-07-20T11:04:01Z</time>
      </trkpt>
      <trkpt lat="43.12536" lon="6.25604">
        <ele>18.9</ele>
        <time>2021-07-20T11:04:02Z</time>
      </trkpt>
      <trkpt lat="43.12536" lon="6.25602">
        <ele>19</ele>
        <time>2021-07-20T11:04:03Z</time>
      </trkpt>
      <trkpt lat="43.12537" lon="6.25601">
        <ele>19</ele>
        <time>2021-07-20T11:04:04Z</time>
      </trkpt>
      <trkpt lat="43.12537" lon="6.25599">
        <ele>19.1</ele>
        <time>2021-07-20T11:04:06Z</time>
      </trkpt>
      <trkpt lat="43.12537" lon="6.25598">
        <ele>19.1</ele>
        <time>2021-07-20T11:04:07Z</time>
      </trkpt>
      <trkpt lat="43.12537" lon="6.25596">
        <ele>19.2</ele>
        <time>2021-07-20T11:04:08Z</time>
      </trkpt>
      <trkpt lat="43.12538" lon="6.25593">
        <ele>19.3</ele>
        <time>2021-07-20T11:04:09Z</time>
      </trkpt>
      <trkpt lat="43.12539" lon="6.25592">
        <ele>19.3</ele>
        <time>2021-07-20T11:04:10Z</time>
      </trkpt>
      <trkpt lat="43.12539" lon="6.25591">
        <ele>19.4</ele>
        <time>2021-07-20T11:04:11Z</time>
      </trkpt>
      <trkpt lat="43.12539" lon="6.2559">
        <ele>19.4</ele>
        <time>2021-07-20T11:04:12Z</time>
      </trkpt>
      <trkpt lat="43.1254" lon="6.25588">
        <ele>19.5</ele>
        <time>2021-07-20T11:04:14Z</time>
      </trkpt>
      <trkpt lat="43.12541" lon="6.25587">
        <ele>19.5</ele>
        <time>2021-07-20T11:04:15Z</time>
      </trkpt>
      <trkpt lat="43.12541" lon="6.25585">
        <ele>19.6</ele>
        <time>2021-07-20T11:04:16Z</time>
      </trkpt>
      <trkpt lat="43.12541" lon="6.25584">
        <ele>19.6</ele>
        <time>2021-07-20T11:04:17Z</time>
      </trkpt>
      <trkpt lat="43.12541" lon="6.25582">
        <ele>19.7</ele>
        <time>2021-07-20T11:04:18Z</time>
      </trkpt>
      <trkpt lat="43.12542" lon="6.2558">
        <ele>19.7</ele>
        <time>2021-07-20T11:04:20Z</time>
      </trkpt>
      <trkpt lat="43.12542" lon="6.25578">
        <ele>19.8</ele>
        <time>2021-07-20T11:04:21Z</time>
      </trkpt>
      <trkpt lat="43.12543" lon="6.25575">
        <ele>19.9</ele>
        <time>2021-07-20T11:04:23Z</time>
      </trkpt>
      <trkpt lat="43.12543" lon="6.25574">
        <ele>19.9</ele>
        <time>2021-07-20T11:04:24Z</time>
      </trkpt>
      <trkpt lat="43.12543" lon="6.25571">
        <ele>20</ele>
        <time>2021-07-20T11:04:26Z</time>
      </trkpt>
      <trkpt lat="43.12544" lon="6.2557">
        <ele>20.1</ele>
        <time>2021-07-20T11:04:27Z</time>
      </trkpt>
      <trkpt lat="43.12544" lon="6.25569">
        <ele>20.1</ele>
        <time>2021-07-20T11:04:28Z</time>
      </trkpt>
      <trkpt lat="43.12545" lon="6.25569">
        <ele>20.1</ele>
        <time>2021-07-20T11:04:30Z</time>
      </trkpt>
      <trkpt lat="43.12546" lon="6.25568">
        <ele>20.2</ele>
        <time>2021-07-20T11:04:31Z</time>
      </trkpt>
      <trkpt lat="43.12546" lon="6.25567">
        <ele>20.2</ele>
        <time>2021-07-20T11:04:32Z</time>
      </trkpt>
      <trkpt lat="43.12547" lon="6.25567">
        <ele>20.2</ele>
        <time>2021-07-20T11:04:33Z</time>
      </trkpt>
      <trkpt lat="43.12547" lon="6.25567">
        <ele>20.2</ele>
        <time>2021-07-20T11:04:34Z</time>
      </trkpt>
      <trkpt lat="43.12547" lon="6.25566">
        <ele>20.2</ele>
        <time>2021-07-20T11:04:35Z</time>
      </trkpt>
      <trkpt lat="43.12548" lon="6.25566">
        <ele>20.3</ele>
        <time>2021-07-20T11:04:37Z</time>
      </trkpt>
      <trkpt lat="43.12548" lon="6.25566">
        <ele>20.3</ele>
        <time>2021-07-20T11:04:38Z</time>
      </trkpt>
      <trkpt lat="43.12548" lon="6.25565">
        <ele>20.3</ele>
        <time>2021-07-20T11:04:39Z</time>
      </trkpt>
      <trkpt lat="43.12549" lon="6.25565">
        <ele>20.3</ele>
        <time>2021-07-20T11:04:40Z</time>
      </trkpt>
      <trkpt lat="43.12549" lon="6.25564">
        <ele>20.4</ele>
        <time>2021-07-20T11:04:42Z</time>
      </trkpt>
      <trkpt lat="43.12549" lon="6.25564">
        <ele>20.4</ele>
        <time>2021-07-20T11:04:43Z</time>
      </trkpt>
      <trkpt lat="43.1255" lon="6.25564">
        <ele>20.4</ele>
        <time>2021-07-20T11:04:44Z</time>
      </trkpt>
      <trkpt lat="43.1255" lon="6.25564">
        <ele>20.4</ele>
        <time>2021-07-20T11:04:45Z</time>
      </trkpt>
      <trkpt lat="43.1255" lon="6.25564">
        <ele>20.4</ele>
        <time>2021-07-20T11:04:46Z</time>
      </trkpt>
      <trkpt lat="43.1255" lon="6.25564">
        <ele>20.4</ele>
        <time>2021-07-20T11:04:48Z</time>
      </trkpt>
      <trkpt lat="43.1255" lon="6.25565">
        <ele>20.4</ele>
        <time>2021-07-20T11:04:49Z</time>
      </trkpt>
      <trkpt lat="43.1255" lon="6.25565">
        <ele>20.4</ele>
        <time>2021-07-20T11:04:50Z</time>
      </trkpt>
      <trkpt lat="43.1255" lon="6.25565">
        <ele>20.4</ele>
        <time>2021-07-20T11:04:51Z</time>
      </trkpt>
      <trkpt lat="43.1255" lon="6.25565">
        <ele>20.4</ele>
        <time>2021-07-20T11:04:52Z</time>
      </trkpt>
      <trkpt lat="43.1255" lon="6.25565">
        <ele>20.4</ele>
        <time>2021-07-20T11:04:54Z</time>
      </trkpt>
      <trkpt lat="43.1255" lon="6.25564">
        <ele>20.5</ele>
        <time>2021-07-20T11:04:55Z</time>
      </trkpt>
      <trkpt lat="43.1255" lon="6.25564">
        <ele>20.5</ele>
        <time>2021-07-20T11:04:56Z</time>
      </trkpt>
      <trkpt lat="43.1255" lon="6.25563">
        <ele>20.5</ele>
        <time>2021-07-20T11:04:58Z</time>
      </trkpt>
      <trkpt lat="43.1255" lon="6.25563">
        <ele>20.5</ele>
        <time>2021-07-20T11:04:59Z</time>
      </trkpt>
      <trkpt lat="43.1255" lon="6.25563">
        <ele>20.5</ele>
        <time>2021-07-20T11:05:00Z</time>
      </trkpt>
      <trkpt lat="43.12549" lon="6.25563">
        <ele>20.6</ele>
        <time>2021-07-20T11:05:02Z</time>
      </trkpt>
      <trkpt lat="43.12548" lon="6.25564">
        <ele>20.6</ele>
        <time>2021-07-20T11:05:03Z</time>
      </trkpt>
      <trkpt lat="43.12547" lon="6.25564">
        <ele>20.7</ele>
        <time>2021-07-20T11:05:04Z</time>
      </trkpt>
      <trkpt lat="43.12546" lon="6.25565">
        <ele>20.7</ele>
        <time>2021-07-20T11:05:06Z</time>
      </trkpt>
      <trkpt lat="43.12545" lon="6.25565">
        <ele>20.8</ele>
        <time>2021-07-20T11:05:08Z</time>
      </trkpt>
      <trkpt lat="43.12543" lon="6.25565">
        <ele>20.8</ele>
        <time>2021-07-20T11:05:10Z</time>
      </trkpt>
      <trkpt lat="43.12542" lon="6.25566">
        <ele>20.9</ele>
        <time>2021-07-20T11:05:12Z</time>
      </trkpt>
      <trkpt lat="43.12541" lon="6.25566">
        <ele>20.9</ele>
        <time>2021-07-20T11:05:13Z</time>
      </trkpt>
      <trkpt lat="43.1254" lon="6.25566">
        <ele>21</ele>
        <time>2021-07-20T11:05:14Z</time>
      </trkpt>
      <trkpt lat="43.12539" lon="6.25566">
        <ele>21</ele>
        <time>2021-07-20T11:05:15Z</time>
      </trkpt>
      <trkpt lat="43.12538" lon="6.25566">
        <ele>21.1</ele>
        <time>2021-07-20T11:05:16Z</time>
      </trkpt>
      <trkpt lat="43.12537" lon="6.25566">
        <ele>21.1</ele>
        <time>2021-07-20T11:05:18Z</time>
      </trkpt>
      <trkpt lat="43.12536" lon="6.25566">
        <ele>21.1</ele>
        <time>2021-07-20T11:05:19Z</time>
      </trkpt>
      <trkpt lat="43.12536" lon="6.25566">
        <ele>21.2</ele>
        <time>2021-07-20T11:05:20Z</time>
      </trkpt>
      <trkpt lat="43.12536" lon="6.25566">
        <ele>21.2</ele>
        <time>2021-07-20T11:05:21Z</time>
      </trkpt>
      <trkpt lat="43.12536" lon="6.25565">
        <ele>21.2</ele>
        <time>2021-07-20T11:05:23Z</time>
      </trkpt>
      <trkpt lat="43.12536" lon="6.25565">
        <ele>21.2</ele>
        <time>2021-07-20T11:05:24Z</time>
      </trkpt>
      <trkpt lat="43.12536" lon="6.25564">
        <ele>21.2</ele>
        <time>2021-07-20T11:05:26Z</time>
      </trkpt>
      <trkpt lat="43.12536" lon="6.25564">
        <ele>21.2</ele>
        <time>2021-07-20T11:05:27Z</time>
      </trkpt>
      <trkpt lat="43.12536" lon="6.25563">
        <ele>21.3</ele>
        <time>2021-07-20T11:05:29Z</time>
      </trkpt>
      <trkpt lat="43.12536" lon="6.25563">
        <ele>21.3</ele>
        <time>2021-07-20T11:05:30Z</time>
      </trkpt>
      <trkpt lat="43.12536" lon="6.25563">
        <ele>21.3</ele>
        <time>2021-07-20T11:05:32Z</time>
      </trkpt>
      <trkpt lat="43.12536" lon="6.25563">
        <ele>21.3</ele>
        <time>2021-07-20T11:05:33Z</time>
      </trkpt>
      <trkpt lat="43.12536" lon="6.25563">
        <ele>21.3</ele>
        <time>2021-07-20T11:05:34Z</time>
      </trkpt>
      <trkpt lat="43.12536" lon="6.25563">
        <ele>21.3</ele>
        <time>2021-07-20T11:05:35Z</time>
      </trkpt>
      <trkpt lat="43.12536" lon="6.25563">
        <ele>21.3</ele>
        <time>2021-07-20T11:05:36Z</time>
      </trkpt>
      <trkpt lat="43.12536" lon="6.25562">
        <ele>21.3</ele>
        <time>2021-07-20T11:05:38Z</time>
      </trkpt>
      <trkpt lat="43.12536" lon="6.25562">
        <ele>21.3</ele>
        <time>2021-07-20T11:05:40Z</time>
      </trkpt>
      <trkpt lat="43.12536" lon="6.25562">
        <ele>21.3</ele>
        <time>2021-07-20T11:05:42Z</time>
      </trkpt>
      <trkpt lat="43.12535" lon="6.25562">
        <ele>21.3</ele>
        <time>2021-07-20T11:05:44Z</time>
      </trkpt>
      <trkpt lat="43.12535" lon="6.25562">
        <ele>21.3</ele>
        <time>2021-07-20T11:05:45Z</time>
      </trkpt>
      <trkpt lat="43.12535" lon="6.25562">
        <ele>21.3</ele>
        <time>2021-07-20T11:05:46Z</time>
      </trkpt>
      <trkpt lat="43.12535" lon="6.25562">
        <ele>21.3</ele>
        <time>2021-07-20T11:05:48Z</time>
      </trkpt>
      <trkpt lat="43.12535" lon="6.25562">
        <ele>21.3</ele>
        <time>2021-07-20T11:05:50Z</time>
      </trkpt>
      <trkpt lat="43.12535" lon="6.25561">
        <ele>21.4</ele>
        <time>2021-07-20T11:05:51Z</time>
      </trkpt>
      <trkpt lat="43.12535" lon="6.25559">
        <ele>21.4</ele>
        <time>2021-07-20T11:05:53Z</time>
      </trkpt>
      <trkpt lat="43.12535" lon="6.25559">
        <ele>21.4</ele>
        <time>2021-07-20T11:05:54Z</time>
      </trkpt>
      <trkpt lat="43.12535" lon="6.25559">
        <ele>21.4</ele>
        <time>2021-07-20T11:05:55Z</time>
      </trkpt>
      <trkpt lat="43.12535" lon="6.25558">
        <ele>21.4</ele>
        <time>2021-07-20T11:05:57Z</time>
      </trkpt>
      <trkpt lat="43.12535" lon="6.25558">
        <ele>21.5</ele>
        <time>2021-07-20T11:05:59Z</time>
      </trkpt>
      <trkpt lat="43.12536" lon="6.25559">
        <ele>21.5</ele>
        <time>2021-07-20T11:06:01Z</time>
      </trkpt>
      <trkpt lat="43.12536" lon="6.25559">
        <ele>21.5</ele>
        <time>2021-07-20T11:06:03Z</time>
      </trkpt>
      <trkpt lat="43.12536" lon="6.25559">
        <ele>21.5</ele>
        <time>2021-07-20T11:06:04Z</time>
      </trkpt>
      <trkpt lat="43.12536" lon="6.25559">
        <ele>21.5</ele>
        <time>2021-07-20T11:06:06Z</time>
      </trkpt>
      <trkpt lat="43.12536" lon="6.25559">
        <ele>21.5</ele>
        <time>2021-07-20T11:06:08Z</time>
      </trkpt>
      <trkpt lat="43.12536" lon="6.25559">
        <ele>21.5</ele>
        <time>2021-07-20T11:06:10Z</time>
      </trkpt>
      <trkpt lat="43.12536" lon="6.25559">
        <ele>21.5</ele>
        <time>2021-07-20T11:06:11Z</time>
      </trkpt>
      <trkpt lat="43.12536" lon="6.25559">
        <ele>21.5</ele>
        <time>2021-07-20T11:06:12Z</time>
      </trkpt>
      <trkpt lat="43.12536" lon="6.25559">
        <ele>21.5</ele>
        <time>2021-07-20T11:06:14Z</time>
      </trkpt>
      <trkpt lat="43.12536" lon="6.25559">
        <ele>21.5</ele>
        <time>2021-07-20T11:06:16Z</time>
      </trkpt>
      <trkpt lat="43.12536" lon="6.25559">
        <ele>21.5</ele>
        <time>2021-07-20T11:06:17Z</time>
      </trkpt>
      <trkpt lat="43.12536" lon="6.25559">
        <ele>21.5</ele>
        <time>2021-07-20T11:06:18Z</time>
      </trkpt>
      <trkpt lat="43.12536" lon="6.25559">
        <ele>21.5</ele>
        <time>2021-07-20T11:06:20Z</time>
      </trkpt>
      <trkpt lat="43.12536" lon="6.25559">
        <ele>21.5</ele>
        <time>2021-07-20T11:06:22Z</time>
      </trkpt>
      <trkpt lat="43.12536" lon="6.25559">
        <ele>21.5</ele>
        <time>2021-07-20T11:06:24Z</time>
      </trkpt>
      <trkpt lat="43.12536" lon="6.25559">
        <ele>21.5</ele>
        <time>2021-07-20T11:06:25Z</time>
      </trkpt>
      <trkpt lat="43.12536" lon="6.25559">
        <ele>21.5</ele>
        <time>2021-07-20T11:06:26Z</time>
      </trkpt>
      <trkpt lat="43.12536" lon="6.25559">
        <ele>21.5</ele>
        <time>2021-07-20T11:06:28Z</time>
      </trkpt>
      <trkpt lat="43.12536" lon="6.25559">
        <ele>21.5</ele>
        <time>2021-07-20T11:06:29Z</time>
      </trkpt>
      <trkpt lat="43.12536" lon="6.25559">
        <ele>21.5</ele>
        <time>2021-07-20T11:06:30Z</time>
      </trkpt>
      <trkpt lat="43.12536" lon="6.25559">
        <ele>21.5</ele>
        <time>2021-07-20T11:06:32Z</time>
      </trkpt>
      <trkpt lat="43.12536" lon="6.25559">
        <ele>21.5</ele>
        <time>2021-07-20T11:06:34Z</time>
      </trkpt>
      <trkpt lat="43.12536" lon="6.25559">
        <ele>21.5</ele>
        <time>2021-07-20T11:06:35Z</time>
      </trkpt>
      <trkpt lat="43.12536" lon="6.25559">
        <ele>21.5</ele>
        <time>2021-07-20T11:06:36Z</time>
      </trkpt>
      <trkpt lat="43.12536" lon="6.25559">
        <ele>21.5</ele>
        <time>2021-07-20T11:06:38Z</time>
      </trkpt>
      <trkpt lat="43.12536" lon="6.25559">
        <ele>21.5</ele>
        <time>2021-07-20T11:06:39Z</time>
      </trkpt>
      <trkpt lat="43.12536" lon="6.25559">
        <ele>21.5</ele>
        <time>2021-07-20T11:06:41Z</time>
      </trkpt>
      <trkpt lat="43.12536" lon="6.25559">
        <ele>21.5</ele>
        <time>2021-07-20T11:06:42Z</time>
      </trkpt>
      <trkpt lat="43.12536" lon="6.25559">
        <ele>21.5</ele>
        <time>2021-07-20T11:06:44Z</time>
      </trkpt>
      <trkpt lat="43.12536" lon="6.25559">
        <ele>21.5</ele>
        <time>2021-07-20T11:06:46Z</time>
      </trkpt>
      <trkpt lat="43.12536" lon="6.25559">
        <ele>21.5</ele>
        <time>2021-07-20T11:06:48Z</time>
      </trkpt>
      <trkpt lat="43.12536" lon="6.25559">
        <ele>21.5</ele>
        <time>2021-07-20T11:06:50Z</time>
      </trkpt>
      <trkpt lat="43.12536" lon="6.25559">
        <ele>21.5</ele>
        <time>2021-07-20T11:06:52Z</time>
      </trkpt>
      <trkpt lat="43.12536" lon="6.25559">
        <ele>21.5</ele>
        <time>2021-07-20T11:06:53Z</time>
      </trkpt>
      <trkpt lat="43.12536" lon="6.25559">
        <ele>21.5</ele>
        <time>2021-07-20T11:06:55Z</time>
      </trkpt>
      <trkpt lat="43.12536" lon="6.25559">
        <ele>21.5</ele>
        <time>2021-07-20T11:06:56Z</time>
      </trkpt>
      <trkpt lat="43.12536" lon="6.25559">
        <ele>21.5</ele>
        <time>2021-07-20T11:06:58Z</time>
      </trkpt>
      <trkpt lat="43.12536" lon="6.25559">
        <ele>21.5</ele>
        <time>2021-07-20T11:07:00Z</time>
      </trkpt>
      <trkpt lat="43.12536" lon="6.25559">
        <ele>21.5</ele>
        <time>2021-07-20T11:07:02Z</time>
      </trkpt>
      <trkpt lat="43.12536" lon="6.25559">
        <ele>21.5</ele>
        <time>2021-07-20T11:07:03Z</time>
      </trkpt>
      <trkpt lat="43.12536" lon="6.25559">
        <ele>21.5</ele>
        <time>2021-07-20T11:07:05Z</time>
      </trkpt>
      <trkpt lat="43.12536" lon="6.25559">
        <ele>21.5</ele>
        <time>2021-07-20T11:07:06Z</time>
      </trkpt>
      <trkpt lat="43.12536" lon="6.25559">
        <ele>21.5</ele>
        <time>2021-07-20T11:07:08Z</time>
      </trkpt>
      <trkpt lat="43.12536" lon="6.25559">
        <ele>21.5</ele>
        <time>2021-07-20T11:07:10Z</time>
      </trkpt>
      <trkpt lat="43.12536" lon="6.25559">
        <ele>21.5</ele>
        <time>2021-07-20T11:07:11Z</time>
      </trkpt>
      <trkpt lat="43.12536" lon="6.25559">
        <ele>21.5</ele>
        <time>2021-07-20T11:07:12Z</time>
      </trkpt>
      <trkpt lat="43.12536" lon="6.25559">
        <ele>21.5</ele>
        <time>2021-07-20T11:07:14Z</time>
      </trkpt>
      <trkpt lat="43.12536" lon="6.25559">
        <ele>21.5</ele>
        <time>2021-07-20T11:07:15Z</time>
      </trkpt>
      <trkpt lat="43.12536" lon="6.25559">
        <ele>21.5</ele>
        <time>2021-07-20T11:07:16Z</time>
      </trkpt>
      <trkpt lat="43.12536" lon="6.25559">
        <ele>21.5</ele>
        <time>2021-07-20T11:07:18Z</time>
      </trkpt>
      <trkpt lat="43.12536" lon="6.25559">
        <ele>21.5</ele>
        <time>2021-07-20T11:07:20Z</time>
      </trkpt>
      <trkpt lat="43.12536" lon="6.25559">
        <ele>21.5</ele>
        <time>2021-07-20T11:07:22Z</time>
      </trkpt>
      <trkpt lat="43.12536" lon="6.25559">
        <ele>21.5</ele>
        <time>2021-07-20T11:07:23Z</time>
      </trkpt>
      <trkpt lat="43.12536" lon="6.25559">
        <ele>21.5</ele>
        <time>2021-07-20T11:07:24Z</time>
      </trkpt>
      <trkpt lat="43.12536" lon="6.25559">
        <ele>21.5</ele>
        <time>2021-07-20T11:07:26Z</time>
      </trkpt>
      <trkpt lat="43.12536" lon="6.25559">
        <ele>21.5</ele>
        <time>2021-07-20T11:07:28Z</time>
      </trkpt>
      <trkpt lat="43.12536" lon="6.25559">
        <ele>21.5</ele>
        <time>2021-07-20T11:07:29Z</time>
      </trkpt>
      <trkpt lat="43.12536" lon="6.25559">
        <ele>21.5</ele>
        <time>2021-07-20T11:07:31Z</time>
      </trkpt>
      <trkpt lat="43.12536" lon="6.25559">
        <ele>21.5</ele>
        <time>2021-07-20T11:07:32Z</time>
      </trkpt>
      <trkpt lat="43.12536" lon="6.25559">
        <ele>21.5</ele>
        <time>2021-07-20T11:07:34Z</time>
      </trkpt>
      <trkpt lat="43.12536" lon="6.25559">
        <ele>21.5</ele>
        <time>2021-07-20T11:07:36Z</time>
      </trkpt>
      <trkpt lat="43.12536" lon="6.25559">
        <ele>21.5</ele>
        <time>2021-07-20T11:07:38Z</time>
      </trkpt>
      <trkpt lat="43.12536" lon="6.25559">
        <ele>21.5</ele>
        <time>2021-07-20T11:07:40Z</time>
      </trkpt>
      <trkpt lat="43.12536" lon="6.25559">
        <ele>21.5</ele>
        <time>2021-07-20T11:07:42Z</time>
      </trkpt>
      <trkpt lat="43.12536" lon="6.25559">
        <ele>21.5</ele>
        <time>2021-07-20T11:07:44Z</time>
      </trkpt>
      <trkpt lat="43.12536" lon="6.25559">
        <ele>21.5</ele>
        <time>2021-07-20T11:07:46Z</time>
      </trkpt>
      <trkpt lat="43.12536" lon="6.25559">
        <ele>21.5</ele>
        <time>2021-07-20T11:07:48Z</time>
      </trkpt>
      <trkpt lat="43.12536" lon="6.25559">
        <ele>21.5</ele>
        <time>2021-07-20T11:07:50Z</time>
      </trkpt>
      <trkpt lat="43.12536" lon="6.25559">
        <ele>21.5</ele>
        <time>2021-07-20T11:07:51Z</time>
      </trkpt>
      <trkpt lat="43.12536" lon="6.25559">
        <ele>21.5</ele>
        <time>2021-07-20T11:07:53Z</time>
      </trkpt>
      <trkpt lat="43.12536" lon="6.25559">
        <ele>21.5</ele>
        <time>2021-07-20T11:07:54Z</time>
      </trkpt>
      <trkpt lat="43.12536" lon="6.25559">
        <ele>21.5</ele>
        <time>2021-07-20T11:07:56Z</time>
      </trkpt>
      <trkpt lat="43.12536" lon="6.25559">
        <ele>21.5</ele>
        <time>2021-07-20T11:07:57Z</time>
      </trkpt>
      <trkpt lat="43.12536" lon="6.25559">
        <ele>21.5</ele>
        <time>2021-07-20T11:07:58Z</time>
      </trkpt>
      <trkpt lat="43.12536" lon="6.25559">
        <ele>21.5</ele>
        <time>2021-07-20T11:08:00Z</time>
      </trkpt>
      <trkpt lat="43.12536" lon="6.25559">
        <ele>21.5</ele>
        <time>2021-07-20T11:08:02Z</time>
      </trkpt>
      <trkpt lat="43.12536" lon="6.25559">
        <ele>21.5</ele>
        <time>2021-07-20T11:08:04Z</time>
      </trkpt>
      <trkpt lat="43.12536" lon="6.25559">
        <ele>21.5</ele>
        <time>2021-07-20T11:08:06Z</time>
      </trkpt>
      <trkpt lat="43.12536" lon="6.25559">
        <ele>21.5</ele>
        <time>2021-07-20T11:08:08Z</time>
      </trkpt>
      <trkpt lat="43.12536" lon="6.25559">
        <ele>21.5</ele>
        <time>2021-07-20T11:08:10Z</time>
      </trkpt>
      <trkpt lat="43.12536" lon="6.25559">
        <ele>21.5</ele>
        <time>2021-07-20T11:08:11Z</time>
      </trkpt>
      <trkpt lat="43.12536" lon="6.25559">
        <ele>21.5</ele>
        <time>2021-07-20T11:08:12Z</time>
      </trkpt>
      <trkpt lat="43.12536" lon="6.25559">
        <ele>21.5</ele>
        <time>2021-07-20T11:08:14Z</time>
      </trkpt>
      <trkpt lat="43.12536" lon="6.25559">
        <ele>21.5</ele>
        <time>2021-07-20T11:08:15Z</time>
      </trkpt>
      <trkpt lat="43.12536" lon="6.25559">
        <ele>21.5</ele>
        <time>2021-07-20T11:08:17Z</time>
      </trkpt>
      <trkpt lat="43.12536" lon="6.25559">
        <ele>21.5</ele>
        <time>2021-07-20T11:08:18Z</time>
      </trkpt>
      <trkpt lat="43.12536" lon="6.25559">
        <ele>21.5</ele>
        <time>2021-07-20T11:08:20Z</time>
      </trkpt>
      <trkpt lat="43.12536" lon="6.25559">
        <ele>21.5</ele>
        <time>2021-07-20T11:08:21Z</time>
      </trkpt>
      <trkpt lat="43.12535" lon="6.25558">
        <ele>21.6</ele>
        <time>2021-07-20T11:08:22Z</time>
      </trkpt>
      <trkpt lat="43.12534" lon="6.25556">
        <ele>21.6</ele>
        <time>2021-07-20T11:08:24Z</time>
      </trkpt>
      <trkpt lat="43.12534" lon="6.25556">
        <ele>21.6</ele>
        <time>2021-07-20T11:08:26Z</time>
      </trkpt>
      <trkpt lat="43.12534" lon="6.25556">
        <ele>21.6</ele>
        <time>2021-07-20T11:08:27Z</time>
      </trkpt>
      <trkpt lat="43.12534" lon="6.25556">
        <ele>21.6</ele>
        <time>2021-07-20T11:08:28Z</time>
      </trkpt>
      <trkpt lat="43.12534" lon="6.25556">
        <ele>21.6</ele>
        <time>2021-07-20T11:08:30Z</time>
      </trkpt>
      <trkpt lat="43.12534" lon="6.25556">
        <ele>21.6</ele>
        <time>2021-07-20T11:08:32Z</time>
      </trkpt>
      <trkpt lat="43.12534" lon="6.25556">
        <ele>21.6</ele>
        <time>2021-07-20T11:08:33Z</time>
      </trkpt>
      <trkpt lat="43.12534" lon="6.25556">
        <ele>21.6</ele>
        <time>2021-07-20T11:08:35Z</time>
      </trkpt>
      <trkpt lat="43.12534" lon="6.25556">
        <ele>21.6</ele>
        <time>2021-07-20T11:08:36Z</time>
      </trkpt>
      <trkpt lat="43.12534" lon="6.25556">
        <ele>21.6</ele>
        <time>2021-07-20T11:08:38Z</time>
      </trkpt>
      <trkpt lat="43.12534" lon="6.25556">
        <ele>21.6</ele>
        <time>2021-07-20T11:08:40Z</time>
      </trkpt>
      <trkpt lat="43.12534" lon="6.25556">
        <ele>21.6</ele>
        <time>2021-07-20T11:08:41Z</time>
      </trkpt>
      <trkpt lat="43.12534" lon="6.25556">
        <ele>21.6</ele>
        <time>2021-07-20T11:08:42Z</time>
      </trkpt>
      <trkpt lat="43.12534" lon="6.25556">
        <ele>21.6</ele>
        <time>2021-07-20T11:08:44Z</time>
      </trkpt>
      <trkpt lat="43.12534" lon="6.25556">
        <ele>21.6</ele>
        <time>2021-07-20T11:08:46Z</time>
      </trkpt>
      <trkpt lat="43.12535" lon="6.25556">
        <ele>21.7</ele>
        <time>2021-07-20T11:08:48Z</time>
      </trkpt>
    </trkseg>
  </trk>
</gpx>